[[{"header":{"parameterUnit":"m.s-1","parameterCategory":1,"la1":30.6,"la2":28.766,"lo1":-90.7593,"lo2":-88.6598,"dy":0.0162,"dx":0.0183,"nx":116,"ny":114,"refTime":"2023-06-09T06:00:00:Z","depth":0,"parameterNumber":2,"parameterNumberName":"U-component_of_WINDS"},"data":[0.0,0.0,0.0,0.0,0.0,0.0,0.0,0.0,0.0,0.0,0.0,0.0,0.0,0.0,0.0,0.0,0.0,0.0,0.0,0.0,0.0,0.0,0.0,0.0,0.0,0.0,0.0,0.0,0.0,0.0,0.0,0.0,0.0,0.0,0.0,0.0,0.0,0.0,0.0,0.0,0.0,0.0,0.0,0.0,0.0,0.0,0.0,0.0,0.0,0.0,0.0,0.0,0.0,0.0,0.0,0.0,0.0,0.0,0.0,0.0,0.0,0.0,0.0,0.0,0.0,0.0,0.0,0.0,0.0,0.0,0.0,0.0,0.0,0.0,0.0,0.0,0.0,0.0,0.0,0.0,0.0,0.0,0.0,0.0,0.0,0.0,0.0,0.0,0.0,0.0,0.0,0.0,0.0,0.0,0.0,0.0,0.0,0.0,0.0,0.0,0.0,0.0,0.0,0.0,0.0,0.0,0.0,0.0,0.0,0.0,0.0,0.0,0.0,0.0,0.0,0.0,0.0,0.0,0.0,0.0,0.0,0.0,0.0,0.0,0.0,0.0,0.0,0.0,0.0,0.0,0.0,0.0,0.0,0.0,0.0,0.0,0.0,0.0,0.0,0.0,0.0,0.0,0.0,0.0,0.0,0.0,0.0,0.0,0.0,0.0,0.0,0.0,0.0,0.0,0.0,0.0,0.0,0.0,0.0,0.0,0.0,0.0,0.0,0.0,0.0,0.0,0.0,0.0,0.0,0.0,0.0,0.0,0.0,0.0,0.0,0.0,0.0,0.0,0.0,0.0,0.0,0.0,0.0,0.0,0.0,0.0,0.0,0.0,0.0,0.0,0.0,0.0,0.0,0.0,0.0,0.0,0.0,0.0,0.0,0.0,0.0,0.0,0.0,0.0,0.0,0.0,0.0,0.0,0.0,0.0,0.0,0.0,0.0,0.0,0.0,0.0,0.0,0.0,0.0,0.0,0.0,0.0,0.0,0.0,0.0,0.0,0.0,0.0,0.0,0.0,0.0,0.0,0.0,0.0,0.0,0.0,0.0,0.0,0.0,0.0,0.0,0.0,0.0,0.0,0.0,0.0,0.0,0.0,0.0,0.0,0.0,0.0,0.0,0.0,0.0,0.0,0.0,0.0,0.0,0.0,0.0,0.0,0.0,0.0,0.0,0.0,0.0,0.0,0.0,0.0,0.0,0.0,0.0,0.0,0.0,0.0,0.0,0.0,0.0,0.0,0.0,0.0,0.0,0.0,0.0,0.0,0.0,0.0,0.0,0.0,0.0,0.0,0.0,0.0,0.0,0.0,0.0,0.0,0.0,0.0,0.0,0.0,0.0,0.0,0.0,0.0,0.0,0.0,0.0,0.0,0.0,0.0,0.0,0.0,0.0,0.0,0.0,0.0,0.0,0.0,0.0,0.0,0.0,0.0,0.0,0.0,0.0,0.0,0.0,0.0,0.0,0.0,0.0,0.0,0.0,0.0,0.0,0.0,0.0,0.0,0.0,0.0,0.0,0.0,0.0,0.0,0.0,0.0,0.0,0.0,0.0,0.0,0.0,0.0,0.0,0.0,0.0,0.0,0.0,0.0,0.0,0.0,0.0,0.0,0.0,0.0,0.0,0.0,0.0,0.0,0.0,0.0,0.0,0.0,0.0,0.0,0.0,0.0,0.0,0.0,0.0,0.0,0.0,0.0,0.0,0.0,0.0,0.0,0.0,0.0,0.0,0.0,0.0,0.0,0.0,0.0,0.0,0.0,0.0,0.0,0.0,0.0,0.0,0.0,0.0,0.0,0.0,0.0,0.0,0.0,0.0,0.0,0.0,0.0,0.0,0.0,0.0,0.0,0.0,0.0,0.0,0.0,0.0,0.0,0.0,0.0,0.0,0.0,0.0,0.0,0.0,0.0,0.0,0.0,0.0,0.0,0.0,0.0,0.0,0.0,0.0,0.0,0.0,0.0,0.0,0.0,0.0,0.0,0.0,0.0,0.0,0.0,0.0,0.0,0.0,0.0,0.0,0.0,0.0,0.0,0.0,0.0,0.0,0.0,0.0,0.0,0.0,0.0,0.0,0.0,0.0,0.0,0.0,0.0,0.0,0.0,0.0,0.0,0.0,0.0,0.0,0.0,0.0,0.0,0.0,0.0,0.0,0.0,0.0,0.0,0.0,0.0,0.0,0.0,0.0,0.0,0.0,0.0,0.0,0.0,0.0,0.0,0.0,0.0,0.0,0.0,0.0,0.0,0.0,0.0,0.0,0.0,0.0,0.0,0.0,0.0,0.0,0.0,0.0,0.0,0.0,0.0,0.0,0.0,0.0,0.0,0.0,0.0,0.0,0.0,0.0,0.0,0.0,0.0,0.0,0.0,0.0,0.0,0.0,0.0,0.0,0.0,0.0,0.0,0.0,0.0,0.0,0.0,0.0,0.0,0.0,0.0,0.0,0.0,0.0,0.0,0.0,0.0,0.0,0.0,0.0,0.0,0.0,0.0,0.0,0.0,0.0,0.0,0.0,0.0,0.0,0.0,0.0,0.0,0.0,0.0,0.0,0.0,0.0,0.0,0.0,0.0,0.0,0.0,0.0,0.0,0.0,0.0,0.0,0.0,0.0,0.0,0.0,0.0,0.0,0.0,0.0,0.0,0.0,0.0,0.0,0.0,0.0,0.0,0.0,0.0,0.0,0.0,0.0,0.0,0.0,0.0,0.0,0.0,0.0,0.0,0.0,0.0,0.0,0.0,0.0,0.0,0.0,0.0,0.0,0.0,0.0,0.0,0.0,0.0,0.0,0.0,0.0,0.0,0.0,0.0,0.0,0.0,0.0,0.0,0.0,0.0,0.0,0.0,0.0,0.0,0.0,0.0,0.0,0.0,0.0,0.0,0.0,0.0,0.0,0.0,0.0,0.0,0.0,0.0,0.0,0.0,0.0,0.0,0.0,0.0,0.0,0.0,0.0,0.0,0.0,0.0,0.0,0.0,0.0,0.0,0.0,0.0,0.0,0.0,0.0,0.0,0.0,0.0,0.0,0.0,0.0,0.0,0.0,0.0,0.0,0.0,0.0,0.0,0.0,0.0,0.0,0.0,0.0,0.0,0.0,0.0,0.0,0.0,0.0,0.0,0.0,0.0,0.0,0.0,0.0,0.0,0.0,0.0,0.0,0.0,0.0,0.0,0.0,0.0,0.0,0.0,0.0,0.0,0.0,0.0,0.0,0.0,0.0,0.0,0.0,0.0,0.0,0.0,0.0,0.0,0.0,0.0,0.0,0.0,0.0,0.0,0.0,0.0,0.0,0.0,0.0,0.0,0.0,0.0,0.0,0.0,0.0,0.0,0.0,0.0,0.0,0.0,0.0,0.0,0.0,0.0,0.0,0.0,0.0,0.0,0.0,0.0,0.0,0.0,0.0,0.0,0.0,0.0,0.0,0.0,0.0,0.0,0.0,0.0,0.0,0.0,0.0,0.0,0.0,0.0,0.0,0.0,0.0,0.0,0.0,0.0,0.0,0.0,0.0,0.0,0.0,0.0,0.0,0.0,0.0,0.0,0.0,0.0,0.0,0.0,0.0,0.0,0.0,0.0,0.0,0.0,0.0,0.0,0.0,0.0,0.0,0.0,0.0,0.0,0.0,0.0,0.0,0.0,0.0,0.0,0.0,0.0,0.0,0.0,0.0,0.0,0.0,0.0,0.0,0.0,0.0,0.0,0.0,0.0,0.0,0.0,0.0,0.0,0.0,0.0,0.0,0.0,0.0,0.0,0.0,0.0,0.0,0.0,0.0,0.0,0.0,0.0,0.0,0.0,0.0,0.0,0.0,0.0,0.0,0.0,0.0,0.0,0.0,0.0,0.0,0.0,0.0,0.0,0.0,0.0,0.0,0.0,0.0,0.0,0.0,0.0,0.0,0.0,0.0,0.0,0.0,0.0,0.0,0.0,0.0,0.0,0.0,0.0,0.0,0.0,0.0,0.0,0.0,0.0,0.0,0.0,0.0,0.0,0.0,0.0,0.0,0.0,0.0,0.0,0.0,0.0,0.0,0.0,0.0,0.0,0.0,0.0,0.0,0.0,0.0,0.0,0.0,0.0,0.0,0.0,0.0,0.0,0.0,0.0,0.0,0.0,0.0,0.0,0.0,0.0,0.0,0.0,0.0,0.0,0.0,0.0,0.0,0.0,0.0,0.0,0.0,0.0,0.0,0.0,0.0,0.0,0.0,0.0,0.0,0.0,0.0,0.0,0.0,0.0,0.0,0.0,0.0,0.0,0.0,0.0,0.0,0.0,0.0,0.0,0.0,0.0,0.0,0.0,0.0,0.0,0.0,0.0,0.0,0.0,0.0,0.0,0.0,0.0,0.0,0.0,0.0,0.0,0.0,0.0,0.0,0.0,0.0,0.0,0.0,0.0,0.0,0.0,0.0,0.0,0.0,0.0,0.0,0.0,0.0,0.0,0.0,0.0,0.0,0.0,0.0,0.0,0.0,0.0,0.0,0.0,0.0,0.0,0.0,0.0,0.0,0.0,0.0,0.0,0.0,0.0,0.0,0.0,0.0,0.0,0.0,0.0,0.0,0.0,0.0,0.0,0.0,0.0,0.0,0.0,0.0,0.0,0.0,0.0,0.0,0.0,0.0,0.0,0.0,0.0,0.0,0.0,0.0,0.0,0.0,0.0,0.0,0.0,0.0,0.0,0.0,0.0,0.0,0.0,0.0,0.0,0.0,0.0,0.0,0.0,0.0,0.0,0.0,0.0,0.0,0.0,0.0,0.0,0.0,0.0,0.0,0.0,0.0,0.0,0.0,0.0,0.0,0.0,0.0,0.0,0.0,0.0,0.0,0.0,0.0,0.0,0.0,0.0,0.0,0.0,0.0,0.0,0.0,0.0,0.0,0.0,0.0,0.0,0.0,0.0,0.0,0.0,0.0,0.0,0.0,0.0,0.0,0.0,0.0,0.0,0.0,0.0,0.0,0.0,0.0,0.0,0.0,0.0,0.0,0.0,0.0,0.0,0.0,0.0,0.0,0.0,0.0,0.0,0.0,0.0,0.0,0.0,0.0,0.0,0.0,0.0,0.0,0.0,0.0,0.0,0.0,0.0,0.0,0.0,0.0,0.0,0.0,0.0,0.0,0.0,0.0,0.0,0.0,0.0,0.0,0.0,0.0,0.0,0.0,0.0,0.0,0.0,0.0,0.0,0.0,0.0,0.0,0.0,0.0,0.0,0.0,0.0,0.0,0.0,0.0,0.0,0.0,0.0,0.0,0.0,0.0,0.0,0.0,0.0,0.0,0.0,0.0,0.0,0.0,0.0,0.0,0.0,0.0,0.0,0.0,0.0,0.0,0.0,0.0,0.0,0.0,0.0,0.0,0.0,0.0,0.0,0.0,0.0,0.0,0.0,0.0,0.0,0.0,0.0,0.0,0.0,0.0,0.0,0.0,0.0,0.0,0.0,0.0,0.0,0.0,0.0,0.0,0.0,0.0,0.0,0.0,0.0,0.0,0.0,0.0,0.0,0.0,0.0,0.0,0.0,0.0,0.0,0.0,0.0,0.0,0.0,0.0,0.0,0.0,0.0,0.0,0.0,0.0,0.0,0.0,0.0,0.0,0.0,0.0,0.0,0.0,0.0,0.0,0.0,0.0,0.0,0.0,0.0,0.0,0.0,0.0,0.0,0.0,0.0,0.0,0.0,0.0,0.0,0.0,0.0,0.0,0.0,0.0,0.0,0.0,0.0,0.0,0.0,0.0,0.0,0.0,0.0,0.0,0.0,0.0,0.0,0.0,0.0,0.0,0.0,0.0,0.0,0.0,0.0,0.0,0.0,0.0,0.0,0.0,0.0,0.0,0.0,0.0,0.0,0.0,0.0,0.0,0.0,0.0,0.0,0.0,0.0,0.0,0.0,0.0,0.0,0.0,0.0,0.0,0.0,0.0,0.0,0.0,0.0,0.0,0.0,0.0,0.0,0.0,0.0,0.0,0.0,0.0,0.0,0.0,0.0,0.0,0.0,0.0,0.0,0.0,0.0,0.0,0.0,0.0,0.0,0.0,0.0,0.0,0.0,0.0,0.0,0.0,0.0,0.0,0.0,0.0,0.0,0.0,0.0,-5.9501,-5.8927,0.0,0.0,0.0,0.0,0.0,0.0,0.0,0.0,0.0,0.0,0.0,0.0,0.0,0.0,0.0,0.0,0.0,0.0,0.0,0.0,0.0,0.0,0.0,0.0,0.0,0.0,0.0,0.0,0.0,0.0,0.0,0.0,0.0,0.0,0.0,0.0,0.0,0.0,-4.329,-4.3439,-4.3768,-4.4137,-4.4455,-4.4812,0.0,0.0,0.0,0.0,0.0,0.0,0.0,0.0,0.0,0.0,0.0,0.0,0.0,0.0,0.0,0.0,0.0,0.0,0.0,0.0,0.0,0.0,0.0,0.0,0.0,0.0,0.0,0.0,0.0,0.0,0.0,0.0,0.0,0.0,0.0,0.0,0.0,0.0,0.0,0.0,0.0,0.0,0.0,0.0,0.0,0.0,0.0,0.0,0.0,0.0,0.0,0.0,0.0,0.0,0.0,0.0,0.0,0.0,0.0,0.0,0.0,0.0,0.0,0.0,0.0,0.0,0.0,0.0,0.0,0.0,-6.1557,-6.0346,0.0,0.0,0.0,0.0,0.0,0.0,0.0,0.0,0.0,0.0,0.0,0.0,0.0,0.0,0.0,0.0,0.0,0.0,0.0,0.0,0.0,0.0,0.0,0.0,0.0,0.0,0.0,0.0,0.0,0.0,0.0,0.0,0.0,0.0,0.0,0.0,0.0,-4.329,-4.3648,-4.4216,-4.5035,-4.5663,-4.5848,-4.5518,-4.4106,0.0,0.0,0.0,0.0,0.0,0.0,0.0,0.0,0.0,0.0,0.0,0.0,0.0,0.0,0.0,0.0,0.0,0.0,0.0,0.0,0.0,0.0,0.0,0.0,0.0,0.0,0.0,0.0,0.0,0.0,0.0,0.0,0.0,0.0,0.0,0.0,0.0,0.0,0.0,0.0,0.0,0.0,0.0,0.0,0.0,0.0,0.0,0.0,0.0,0.0,0.0,0.0,0.0,0.0,0.0,0.0,0.0,0.0,0.0,0.0,0.0,0.0,0.0,-6.7393,-6.8164,-6.8531,-6.8678,-6.8825,-6.8752,-6.5228,-6.3319,-6.2585,-6.1484,0.0,0.0,0.0,0.0,0.0,0.0,0.0,0.0,0.0,0.0,0.0,0.0,0.0,0.0,0.0,0.0,0.0,0.0,0.0,0.0,0.0,0.0,-4.329,-4.329,-4.329,-4.329,0.0,0.0,0.0,0.0,0.0,0.0,0.0,-4.329,-4.329,-4.329,-4.5024,-4.6561,-4.7788,-4.8491,-4.8745,-4.8577,-4.5495,-4.4948,-4.6241,0.0,0.0,0.0,0.0,0.0,0.0,0.0,0.0,0.0,0.0,0.0,0.0,0.0,0.0,0.0,0.0,0.0,0.0,0.0,0.0,0.0,0.0,0.0,0.0,0.0,0.0,0.0,0.0,0.0,0.0,0.0,0.0,0.0,0.0,0.0,0.0,0.0,0.0,0.0,0.0,0.0,-5.528,-5.528,0.0,0.0,0.0,0.0,0.0,0.0,0.0,0.0,0.0,0.0,0.0,0.0,0.0,-6.6035,-6.6733,-6.9155,-7.0073,-6.9486,-7.2422,-7.312,-7.1908,-7.2569,-7.3303,-7.3891,-7.2642,0.0,-6.6733,-6.453,0.0,0.0,0.0,0.0,0.0,0.0,0.0,0.0,0.0,0.0,0.0,0.0,0.0,0.0,0.0,0.0,0.0,0.0,0.0,0.0,0.0,-4.3947,-4.4436,-4.4436,-4.5813,-4.6022,-4.4526,0.0,0.0,0.0,0.0,0.0,0.0,-4.329,-4.4037,-4.5574,-4.7505,-4.9194,-5.0511,-5.1169,-5.1259,-5.084,-4.9404,-4.7848,-4.6232,-4.5435,0.0,0.0,0.0,0.0,0.0,0.0,0.0,0.0,0.0,0.0,0.0,0.0,0.0,0.0,0.0,0.0,0.0,0.0,0.0,0.0,0.0,0.0,0.0,0.0,0.0,0.0,0.0,0.0,0.0,0.0,0.0,0.0,0.0,0.0,0.0,0.0,0.0,0.0,0.0,-5.5647,-5.6602,-5.5706,-5.6785,-5.7079,0.0,0.0,0.0,0.0,0.0,0.0,0.0,0.0,0.0,-6.743,-6.9449,-7.0917,-7.1725,-7.4184,-7.5432,-7.5579,-7.7451,-7.8222,-7.7965,-7.8332,-7.8662,-7.8956,-7.8148,-7.6533,-7.4111,-6.9412,-6.6439,-6.464,0.0,0.0,0.0,0.0,-6.1073,-6.1064,0.0,0.0,0.0,0.0,0.0,0.0,0.0,0.0,0.0,0.0,0.0,0.0,-4.3501,-4.5037,-4.6135,-4.6237,-4.8119,-4.8461,-4.6441,0.0,0.0,0.0,0.0,0.0,0.0,-4.3947,-4.5663,-4.8297,-5.0226,-5.1917,-5.3234,-5.3862,-5.3922,-5.3443,-5.3294,-5.1289,-4.7997,-4.6651,-4.5214,-4.3818,0.0,0.0,0.0,0.0,0.0,0.0,0.0,0.0,0.0,0.0,0.0,0.0,0.0,0.0,0.0,0.0,0.0,0.0,0.0,0.0,0.0,0.0,0.0,0.0,0.0,0.0,0.0,0.0,0.0,0.0,0.0,0.0,0.0,0.0,0.0,0.0,0.0,-5.7152,-5.8253,-5.6418,-5.9281,-6.0272,0.0,0.0,0.0,0.0,0.0,0.0,-6.7357,-6.9743,-7.1615,-7.2863,-7.5028,-7.657,-7.7378,-7.9433,-8.0645,-8.1012,-8.1819,-8.2443,-8.281,-8.281,-8.281,-8.2774,-8.1966,-8.1158,-7.991,-7.3597,-6.9853,-6.7834,-6.5815,-6.4254,-6.3164,-6.3639,-6.3811,-6.3722,0.0,0.0,0.0,0.0,0.0,0.0,0.0,0.0,0.0,0.0,0.0,0.0,-4.3989,-4.6491,-4.834,-4.8778,-4.9085,-4.9239,-4.912,-4.6172,-4.4407,0.0,0.0,0.0,0.0,0.0,-4.8386,-5.102,-5.3025,-5.467,-5.5987,-5.6615,-5.6885,-5.6825,-5.6226,-5.482,-5.2636,-4.9464,-4.8087,-4.7758,-4.5185,0.0,0.0,0.0,0.0,0.0,0.0,0.0,0.0,0.0,0.0,0.0,0.0,0.0,0.0,0.0,0.0,0.0,0.0,0.0,0.0,0.0,0.0,0.0,0.0,0.0,0.0,0.0,0.0,0.0,0.0,0.0,0.0,0.0,0.0,0.0,0.0,0.0,0.0,-5.8143,-6.3429,0.0,0.0,0.0,0.0,-6.721,-6.8788,-7.077,-7.3156,-7.5579,-7.8002,-8.0388,-8.2076,-8.3324,-8.4095,-8.4976,-8.5049,-8.4389,-8.5159,-8.5159,-8.4499,-8.4499,-8.4499,-8.4425,-8.3654,-8.281,-8.1636,-7.5873,-7.301,-7.1908,-6.8715,-6.7467,-6.7369,-6.7234,-6.7153,-6.7016,0.0,0.0,0.0,0.0,0.0,0.0,0.0,0.0,0.0,0.0,0.0,0.0,0.0,-4.7064,-4.9184,-5.1127,-5.1786,-5.1795,-5.1212,-4.8865,-4.695,0.0,0.0,0.0,0.0,0.0,-5.1319,-5.4401,-5.5957,-5.7393,-5.868,-5.8471,-5.8381,-5.8381,-5.8141,-5.7423,-5.6077,-5.1947,-4.9194,-4.7459,-4.5214,-4.3539,0.0,0.0,0.0,0.0,0.0,0.0,0.0,0.0,0.0,0.0,0.0,0.0,0.0,0.0,0.0,0.0,0.0,0.0,0.0,0.0,0.0,0.0,0.0,0.0,0.0,0.0,0.0,0.0,0.0,0.0,0.0,0.0,0.0,0.0,0.0,0.0,0.0,-6.5778,-7.011,0.0,-6.9633,-6.9963,-7.1138,-7.2973,-7.4625,-7.6607,-7.9029,-8.1452,-8.3398,-8.4829,-8.593,-8.6885,-8.7692,-8.7986,-8.7986,-8.7692,-8.7435,-8.7178,-8.6885,-8.6371,-8.6151,-8.6114,-8.5306,-8.4499,-8.3508,-8.0424,-7.7451,-7.4661,-7.2973,-7.1363,-7.0005,-7.0396,-6.9799,-6.8744,0.0,0.0,0.0,0.0,0.0,0.0,0.0,0.0,0.0,0.0,0.0,-4.3286,-4.5155,-4.7988,-5.0491,-5.2574,-5.3023,-5.2902,-5.2102,-4.9427,-4.7318,0.0,-4.5544,0.0,0.0,-5.1528,-5.4072,-5.6466,-5.8022,-5.9129,-5.9757,-5.9548,-5.9308,-5.9129,-5.9578,-5.9279,-5.8261,-5.5179,-5.2247,-4.9434,-4.698,-4.5603,-4.4736,0.0,0.0,0.0,0.0,0.0,0.0,0.0,0.0,0.0,0.0,0.0,0.0,0.0,0.0,0.0,0.0,0.0,0.0,0.0,0.0,0.0,0.0,0.0,0.0,0.0,0.0,0.0,0.0,0.0,0.0,0.0,0.0,0.0,0.0,-6.5375,-6.9596,-7.0403,-7.5506,-7.8002,-7.5579,-7.6093,-7.7268,-7.8846,-8.0498,-8.237,-8.4499,-8.6407,-8.7802,-8.861,-8.9124,-8.9674,-9.0225,-9.0225,-9.0078,-8.9821,-8.9271,-8.872,-8.8169,-8.7655,-8.7105,-8.6591,-8.604,-8.5196,-8.4132,-8.303,-8.0681,-7.7635,-7.657,-7.4945,-7.3275,-7.3428,-7.2478,-7.1089,0.0,0.0,0.0,0.0,0.0,0.0,0.0,0.0,0.0,0.0,-4.2496,-4.3593,-4.4676,-4.9182,-5.2393,-5.3031,-5.2577,-5.2156,-5.1785,-4.7597,-4.5154,0.0,0.0,0.0,-5.0345,-5.4251,-5.6555,-5.7244,-5.9189,-5.9817,-5.9189,-5.9817,-5.9757,-5.9189,-6.0535,-6.0386,-5.9159,-5.9159,-5.7334,-5.4132,-5.078,-4.9733,-4.9777,0.0,0.0,0.0,0.0,0.0,0.0,0.0,0.0,0.0,0.0,0.0,0.0,0.0,0.0,0.0,0.0,0.0,0.0,0.0,0.0,0.0,0.0,0.0,0.0,0.0,0.0,0.0,0.0,0.0,0.0,0.0,0.0,0.0,-6.1789,-6.8128,-7.2459,-7.1806,-7.947,-8.3287,-7.9396,-8.2517,-8.4829,-8.4866,-8.6261,-8.7839,-8.9455,-9.0262,-9.1033,-9.1803,-9.1803,-9.1803,-9.1803,-9.1803,-9.14,-9.0629,-9.0592,-8.9748,-8.8243,-8.8206,-8.7325,-8.582,-8.5783,-8.4903,-8.3471,-8.3434,-8.2443,-8.0828,-7.925,-7.8081,-7.7186,-7.6164,-7.512,-7.3966,0.0,0.0,0.0,0.0,0.0,0.0,0.0,0.0,0.0,0.0,-4.1314,-4.3482,-4.6238,-4.9127,-5.1753,-5.3994,-5.2032,-5.0648,-5.0563,-4.7182,0.0,0.0,0.0,0.0,-5.4461,-5.6555,-5.862,-6.0715,-6.1283,-6.1224,-6.0565,-6.0745,-6.0475,-5.9847,-6.0715,-6.0924,-6.0565,-6.0565,-6.0057,-5.883,-5.4581,-5.1798,-4.9927,0.0,0.0,0.0,0.0,0.0,0.0,0.0,0.0,0.0,0.0,0.0,0.0,0.0,0.0,0.0,0.0,0.0,0.0,0.0,0.0,0.0,0.0,0.0,0.0,0.0,0.0,0.0,0.0,0.0,0.0,0.0,-6.1796,-6.539,-6.8266,-7.3413,-7.8148,-8.1415,-8.604,-8.8757,-8.8206,-8.8647,-8.9454,-9.0665,-9.0041,-9.0592,-9.2831,-9.2024,-9.1877,-9.2721,-9.2134,-9.1803,-9.1803,-9.1803,-9.1693,-9.1473,-9.0298,-8.9528,-8.905,-8.7876,-8.7105,-8.6628,-8.604,-8.5233,-8.4242,-8.3654,-8.2113,-8.0094,-7.9617,-7.8496,-7.6958,-7.6106,-7.472,-7.3044,0.0,0.0,0.0,0.0,0.0,0.0,0.0,0.0,0.0,0.0,-4.0824,-4.3219,-4.5802,-4.8266,-5.042,-5.2013,-4.9651,-4.7838,-4.7242,0.0,0.0,0.0,0.0,-5.3653,-5.6496,-5.868,-6.0416,-6.1672,-6.1972,-6.1762,-6.1134,-6.1403,-6.1164,-6.0565,-6.1523,-6.1792,-6.1553,-6.1822,-6.1942,-6.1672,-5.871,-5.6077,-5.3574,-5.0541,-4.8626,-4.7429,-4.5933,-4.5783,-4.61,-4.4934,0.0,0.0,0.0,0.0,0.0,0.0,0.0,0.0,0.0,0.0,0.0,0.0,0.0,0.0,0.0,0.0,0.0,0.0,0.0,0.0,0.0,0.0,0.0,0.0,-6.5548,-6.9881,-7.4316,-7.8109,-8.2009,-8.63,-8.9674,-9.184,-9.2281,-9.2244,-9.2537,-9.3529,-9.2684,-9.2648,-9.3749,-9.2868,-9.2391,-9.2537,-9.206,-9.1803,-9.1803,-9.1803,-9.1803,-9.1803,-9.0849,-9.0078,-8.9345,-8.8463,-8.7655,-8.6995,-8.6518,-8.5637,-8.4572,-8.4095,-8.248,0.0,0.0,0.0,0.0,0.0,-7.4423,-7.3212,0.0,0.0,0.0,0.0,0.0,0.0,0.0,0.0,0.0,0.0,0.0,-4.2635,-4.4192,-4.6828,-4.8485,-4.8485,-4.6476,-4.4611,0.0,0.0,0.0,-4.9356,-5.3305,-5.6047,-5.7393,-6.0505,-6.1852,-6.1343,-6.1912,-6.1882,-6.1253,-6.1912,-6.1852,-6.1283,-6.254,-6.275,-6.2241,-6.2839,-6.3079,-6.3019,-6.245,-6.1014,-5.874,-5.4401,-5.2606,-5.2097,-4.9523,-4.7908,-4.695,-4.6651,0.0,0.0,0.0,0.0,0.0,0.0,0.0,0.0,0.0,0.0,0.0,0.0,0.0,0.0,0.0,0.0,0.0,0.0,0.0,0.0,0.0,0.0,0.0,0.0,-6.9623,-7.408,-7.9592,-8.1961,-8.4488,-8.7996,-9.1107,-9.3123,-9.3382,-9.4006,-9.4483,-9.4556,-9.441,-9.4042,-9.3418,0.0,0.0,0.0,0.0,-9.1803,-9.1803,-9.1803,-9.1803,-9.1803,-9.1693,-9.0886,-8.9382,-8.9344,-8.8463,-8.6995,-8.6921,-8.6004,-8.4572,-8.4389,-8.292,-8.0645,-7.9815,-7.8473,-7.6728,-7.483,-7.4043,-7.3729,0.0,0.0,0.0,0.0,0.0,0.0,0.0,0.0,0.0,-3.7566,-3.9852,-4.1781,-4.2615,-4.5121,-4.6778,-4.6778,-4.4744,-4.3187,0.0,0.0,-4.7008,-5.0506,-5.459,-5.7603,-5.9458,-6.1194,-6.2301,-6.269,-6.281,-6.254,-6.1912,-6.257,-6.254,-6.1942,-6.272,-6.3019,-6.2899,-6.3019,-6.3079,-6.3079,-6.2929,-6.1672,-5.9608,-5.7094,-5.5179,-5.3533,-5.1409,-5.084,-5.075,-4.8626,-4.8356,-4.8521,-4.6518,-4.5394,0.0,0.0,0.0,0.0,0.0,0.0,0.0,0.0,0.0,0.0,0.0,0.0,0.0,0.0,0.0,0.0,0.0,0.0,0.0,-6.7784,-7.21,-7.6678,-8.1782,-8.3856,-8.6037,-8.9292,-9.1414,-9.3263,-9.4884,-9.518,-9.5547,-9.6171,-9.5034,-9.452,-9.5034,-9.3822,-9.3015,-9.2868,-9.217,-9.1803,-9.1803,-9.1803,-9.1803,-9.1803,0.0,0.0,-8.9345,-8.872,-8.7912,-8.6958,-8.6297,-8.549,-8.4499,-8.3214,-8.1232,-7.8966,-7.7956,-7.6443,-7.472,-7.3532,-7.2582,-7.183,0.0,0.0,0.0,0.0,0.0,0.0,0.0,0.0,0.0,0.0,-3.8894,-4.0425,-4.1254,-4.2811,-4.3714,-4.3438,-4.1354,0.0,0.0,-4.4907,-4.8539,-5.2713,-5.6888,-5.9727,-6.1074,-6.2061,-6.275,-6.3079,-6.3079,-6.2899,-6.26,-6.2929,-6.2899,-6.26,-6.2929,-6.3079,-6.3079,-6.3079,-6.3079,-6.3079,-6.3079,-6.2271,-6.0924,-5.9219,-5.7573,-5.5897,-5.3922,-5.2785,-5.1947,-5.0301,-4.9763,-4.9464,-4.7818,-4.683,-4.6112,0.0,0.0,0.0,0.0,0.0,0.0,0.0,0.0,0.0,0.0,0.0,0.0,0.0,0.0,-5.8152,0.0,0.0,-6.7184,-7.1684,-7.5506,-7.9069,-8.2315,-8.4008,-8.6137,-8.9332,-9.078,-9.2331,-9.4354,-9.4912,-9.5586,-9.661,-9.5951,-9.5327,-9.4923,-9.4153,-9.3308,-9.2464,-9.2024,-9.1803,-9.1803,-9.1803,-9.1803,-9.1767,-9.0407,-8.9343,-8.8504,-8.7138,-8.6036,-8.5278,-8.4486,-8.399,-8.3553,-8.115,-7.9254,-7.7662,-7.6194,-7.5692,-7.5614,-7.412,-7.3212,-7.2666,0.0,0.0,0.0,0.0,0.0,0.0,0.0,0.0,0.0,0.0,-3.8064,-3.8994,-3.9798,-4.045,-4.0551,0.0,0.0,0.0,0.0,-4.5424,-4.9808,-5.4539,-5.8625,-6.1184,-6.2091,-6.275,-6.3079,-6.3079,-6.3079,-6.3079,-6.3079,-6.3079,-6.3079,-6.3079,-6.3079,-6.3079,-6.3079,-6.3079,-6.3079,-6.3079,-6.3079,-6.269,-6.1942,-6.0595,-5.9279,-5.7872,-5.6047,-5.3922,-5.1917,-5.1409,-5.0331,-4.9209,-4.8626,-4.8117,-4.7399,-4.5933,-4.6194,0.0,0.0,0.0,0.0,0.0,0.0,0.0,0.0,-5.4228,-5.5683,-5.8051,-5.9844,-6.2178,-6.6068,-6.8368,-7.1109,-7.5642,-7.8754,-8.1088,-8.2441,-8.3795,-8.5651,-8.8378,-8.9483,-9.091,-9.3215,-9.4136,-9.4958,-9.587,-9.6416,-9.5985,-9.4254,-9.4223,-9.3602,-9.2097,-9.1877,-9.1694,-9.1435,-9.1694,-9.1694,-9.1435,-8.9724,-8.8498,-8.7624,-8.5561,-8.4159,-8.3338,-8.2424,-8.1992,-8.1695,-7.8998,-7.7344,-7.6338,-7.4858,-7.5299,-7.6498,-7.4684,-7.385,-7.3492,0.0,0.0,0.0,0.0,0.0,0.0,0.0,0.0,0.0,0.0,0.0,0.0,0.0,0.0,0.0,0.0,0.0,0.0,-4.1241,-4.5404,-4.984,-5.438,-5.7849,-6.0414,-6.2091,-6.275,-6.3079,-6.3079,-6.3079,-6.3079,-6.3079,-6.3079,-6.3079,-6.3079,-6.3079,-6.3079,-6.3079,-6.3079,-6.3079,-6.3079,-6.3079,-6.269,-6.1942,-6.0595,-5.9279,-5.7932,-5.6555,-5.4012,-5.1319,-5.1259,-5.0331,-4.9299,-4.9209,-4.9149,-4.8686,-4.677,-4.7013,-4.7675,-4.6522,-4.8033,-5.0582,-5.3315,-5.4093,-5.5446,0.0,0.0,-6.1231,-6.4106,-6.644,-6.8538,-7.0364,-7.3544,-7.6521,-7.8416,-8.0648,-8.2441,-8.3253,-8.4099,-8.5018,-8.6049,-8.7278,-8.9318,-9.2672,-9.3486,-9.3668,-9.3374,-9.5426,-9.582,-9.3794,-9.4059,-9.3896,-9.2978,-9.2207,-9.1323,-9.0244,-9.1249,-9.1285,-9.028,-8.9368,-8.8498,-8.7588,-8.4991,-8.3387,-8.253,-8.1078,-7.9671,-7.8296,-7.7231,-7.5915,-7.4602,-7.4383,-7.4423,-7.4498,-7.3372,-7.2406,-7.16,0.0,0.0,0.0,0.0,0.0,0.0,0.0,0.0,0.0,0.0,0.0,0.0,0.0,0.0,0.0,0.0,0.0,0.0,-4.0727,-4.654,-5.1424,-5.4924,-5.9274,-6.1965,-6.266,-6.2929,-6.3079,-6.3079,-6.3079,-6.3079,-6.3079,-6.3079,-6.3079,-6.3079,-6.3079,-6.3079,-6.3079,-6.3079,-6.3079,-6.3079,-6.3079,-6.245,-6.1373,-6.0027,-5.7992,-5.5658,-5.4341,-5.2217,0.0,-4.9194,-4.8835,-4.873,-4.873,-4.873,-4.8386,-4.68,-4.6783,-4.7416,-4.8052,-5.0456,-5.3112,-5.4837,-5.6528,-5.8727,-6.2245,-6.3463,-6.4715,-6.7692,-7.0094,-7.209,-7.3578,-7.6251,-7.8653,0.0,-8.1866,-8.3287,-8.4065,-8.4065,-8.4099,-8.4403,-8.4522,-8.6162,-9.0108,-9.109,-9.1552,-9.1598,-9.3408,-9.3717,-9.1979,-9.2058,-9.1811,-9.0978,-9.015,-8.9474,-8.8928,-8.9432,-8.9474,-8.8963,-8.7072,-8.5985,-8.5587,-8.2442,-8.0156,-7.8542,-7.8581,-7.7405,-7.5516,-7.5207,-7.4397,-7.3372,-7.279,-7.254,-7.254,-7.2714,-7.254,-7.203,0.0,0.0,0.0,0.0,0.0,0.0,0.0,0.0,0.0,0.0,0.0,0.0,0.0,0.0,0.0,0.0,0.0,0.0,0.0,-4.5792,-5.079,-5.4595,-5.8954,-6.1732,-6.281,-6.2989,-6.3079,-6.3079,-6.3079,-6.3079,-6.3079,-6.3079,-6.3079,-6.3079,-6.3079,-6.3079,-6.3079,-6.3079,-6.3079,-6.3049,-6.2869,-6.2002,-6.0655,-5.8949,-5.6256,-5.3234,-5.2067,-5.0152,-4.7997,-4.686,-4.6681,-4.695,-4.713,-4.7309,-4.7292,-4.6418,-4.652,-4.7437,-4.9774,-5.2603,-5.5277,-5.6867,-5.9641,-6.255,-6.485,-6.6474,-6.8267,-7.0872,-7.2834,-7.4492,-7.5777,-7.7874,-7.9837,-8.1088,-8.2543,-8.3693,-8.4234,-8.349,-8.2813,-8.2611,-8.1765,-8.2548,-8.6059,-8.7961,-8.914,-8.9639,-9.1293,-9.167,-9.0164,-9.0244,-9.0029,-8.9462,-8.8603,-8.8043,-8.7723,-8.7831,-8.7725,-8.736,-8.5018,-8.3898,-8.3746,-8.0141,-7.7367,-7.5419,-7.6074,-7.5229,-7.3508,-7.3551,-7.3103,-7.2321,-7.1556,-7.1312,-7.1367,-7.1902,-7.2062,-7.1901,0.0,0.0,0.0,0.0,0.0,0.0,0.0,0.0,0.0,0.0,0.0,0.0,0.0,0.0,0.0,0.0,0.0,0.0,0.0,-4.194,-4.6152,-5.2709,-5.5238,-5.8272,-6.2034,-6.275,-6.3079,-6.3079,-6.3079,-6.3079,-6.3079,-6.3079,-6.3079,-6.3079,-6.3079,-6.3079,-6.3079,-6.3079,-6.3079,-6.3019,-6.2391,-6.1313,-5.9847,-5.7244,-5.4192,-5.1229,-5.0495,-4.8207,-4.5304,-4.4616,-4.3947,-4.3559,-4.4227,-4.4885,-4.5421,-4.5663,-4.6602,-4.8233,-5.1395,-5.3889,-5.6562,-6.0216,-6.3903,-6.7218,-6.9485,-7.1142,-7.2631,-7.4153,-7.51,-7.5879,-7.6724,-7.8686,-8.0412,-8.1156,-8.2543,-8.349,-8.3524,-8.2272,-8.1088,-8.0378,-7.9025,-7.877,0.0,-8.417,-8.6727,-8.6989,-8.9367,-9.0211,-8.8936,-8.9284,-8.9508,-8.9508,-8.8648,-8.7631,-8.6463,-8.6892,-8.6551,-8.5354,-8.3828,-8.31,-8.2984,-7.8845,-7.6115,-7.4593,-7.3895,-7.3151,-7.244,-7.244,-7.2,-7.1356,-7.1312,-7.1312,-7.1244,-7.051,-7.0317,-7.0239,0.0,0.0,0.0,0.0,0.0,0.0,0.0,0.0,0.0,0.0,0.0,0.0,0.0,0.0,0.0,0.0,0.0,0.0,0.0,-4.1311,-4.5103,-4.8434,-5.3051,-5.6736,-5.933,-6.0562,-6.1732,-6.3079,-6.263,-6.266,-6.3079,-6.3079,-6.3079,-6.3079,-6.3079,-6.3079,-6.3079,-6.3079,-6.3079,-6.2929,-6.1373,-6.0236,-5.9009,-5.5029,-5.1768,-4.8955,0.0,-4.4676,-4.3219,-4.2073,-4.1863,-4.2162,-4.2821,-4.3219,-4.3624,-4.4987,-4.7045,-4.9752,-5.3512,-5.7306,-6.1028,-6.4749,-6.7387,-6.9755,-7.2496,-7.351,-7.4018,-7.4525,-7.4018,-7.3443,-7.324,-7.4999,-7.6893,-7.8179,-8.0851,-8.3118,-8.4099,-8.3389,-8.1934,-7.9735,-7.9464,0.0,0.0,0.0,0.0,-8.4592,-8.6404,-8.7264,-8.6863,-8.6972,-8.704,-8.704,-8.6249,-8.5617,-8.5188,-8.5343,-8.4966,-8.4063,-8.2135,-8.0122,-7.8142,-7.6761,-7.5033,-7.3138,-7.2868,-7.236,-7.1684,-7.1684,-7.1548,-7.1312,-7.1312,-7.1007,-7.0534,-7.0297,-6.9553,-6.8673,0.0,0.0,0.0,0.0,0.0,0.0,0.0,0.0,0.0,0.0,0.0,0.0,0.0,0.0,0.0,0.0,0.0,0.0,0.0,0.0,-4.22,-4.4435,-4.9165,-5.266,-5.4637,-5.616,-5.7663,-5.9189,-5.9249,-5.9608,-6.0266,-6.0715,-6.1074,-6.1313,-6.1313,-6.1583,-6.1972,-6.1523,-6.1313,-6.1104,-5.862,-5.7094,-5.5837,-5.1678,-4.8596,0.0,-4.3569,-4.2073,-4.1175,-4.0337,-4.0337,-4.0786,-4.1444,-4.2455,-4.3772,-4.5766,-4.8748,-5.2323,-5.6544,-6.0791,-6.4749,-6.7929,-7.0263,-7.2259,-7.4187,-7.4627,-7.4525,-7.4255,-7.2834,-7.1379,-7.0669,-7.1447,-7.2699,-7.4255,-7.6927,-7.9634,-8.1934,-8.1359,-8.031,-7.9228,-7.9058,-7.8686,0.0,0.0,0.0,-8.2577,-8.4099,-8.4979,-8.4979,-8.5215,-8.5384,-8.5384,-8.4877,-8.464,-8.464,-8.4099,-8.3186,-8.19,-8.0479,-7.8348,-7.5676,-7.5439,-7.4255,-7.2394,-7.2124,-7.1751,-7.1312,-7.1312,-7.1142,-7.0906,-7.0906,-7.0466,-6.9755,-6.9485,-6.8741,-6.7895,0.0,0.0,0.0,0.0,0.0,0.0,0.0,0.0,0.0,0.0,0.0,0.0,0.0,0.0,0.0,0.0,0.0,0.0,0.0,0.0,0.0,-4.0765,-4.3752,-4.632,-4.846,-5.0176,-5.1409,-5.2157,-5.3384,-5.4341,-5.4999,-5.6226,-5.7154,-5.7782,-5.7782,-5.8471,-5.9548,-5.8291,-5.7782,-5.7483,-5.4221,-5.2187,-5.072,-4.7385,0.0,-4.308,-4.1803,-4.0516,-3.9373,-3.9373,-3.9433,-3.9649,-4.0337,-4.2726,-4.5696,-4.8023,-5.1597,-5.5817,-6.0351,-6.4275,-6.7624,-6.9891,-7.2597,-7.4661,-7.4661,-7.4627,-7.4289,-7.3443,-7.1447,-6.9586,0.0,0.0,-6.8267,-6.9857,-7.1616,-7.4052,-7.7739,-7.7029,-7.6927,0.0,0.0,0.0,-7.8991,0.0,0.0,-8.119,0.0,-8.349,-8.3558,-8.4234,-8.464,-8.464,-8.464,-8.464,-8.464,-8.3152,-8.1291,-7.9126,-7.9058,-7.7841,-7.5574,-7.4864,-7.3747,-7.2293,-7.1616,-7.1312,-7.1312,-7.1312,-7.0872,-7.0195,-7.0195,-6.9722,-6.8944,-6.8166,-6.7861,-6.7793,0.0,0.0,0.0,0.0,0.0,0.0,0.0,0.0,0.0,0.0,0.0,0.0,0.0,0.0,0.0,0.0,0.0,0.0,0.0,0.0,0.0,0.0,0.0,0.0,0.0,0.0,0.0,0.0,-5.1319,-5.1541,-5.2247,-5.2576,-5.2815,-5.2995,-5.2995,-5.3174,-5.3473,-5.3114,-5.2995,-5.2785,0.0,-4.9344,-4.8686,0.0,0.0,0.0,0.0,0.0,-3.9373,-3.9373,-4.0068,-4.1085,-4.2252,-4.4098,-4.6554,-5.0461,-5.454,-5.8914,-6.4011,-6.8132,-7.1515,-7.3747,-7.4864,-7.5439,-7.5439,-7.4559,-7.3105,-7.0703,-6.7557,-6.4647,-6.2753,0.0,0.0,-6.8944,-7.3883,0.0,-8.1629,-8.2238,0.0,-8.0851,-8.0885,-8.0513,-7.9228,-8.0073,0.0,0.0,-8.2171,-8.3186,-8.4268,-8.4505,-8.464,-8.464,-8.464,-8.464,-8.464,-8.3152,-8.1291,-7.9092,-7.8551,-7.6792,-7.4052,-7.3849,-7.2969,-7.1582,-7.1379,-7.1312,-7.1312,-7.1312,-7.0872,-7.0195,-7.0195,-6.9383,-6.8166,-6.7963,-6.7184,-6.6339,0.0,0.0,0.0,0.0,0.0,0.0,0.0,0.0,0.0,0.0,0.0,0.0,0.0,0.0,0.0,0.0,0.0,0.0,0.0,0.0,0.0,0.0,0.0,0.0,0.0,0.0,0.0,0.0,0.0,0.0,-4.8207,-4.8476,-4.8775,-4.9075,-4.9075,-4.9404,-4.9883,-4.9314,0.0,0.0,0.0,0.0,0.0,0.0,0.0,0.0,0.0,0.0,0.0,0.0,0.0,-4.3838,-4.5454,-4.7968,-5.0992,-5.479,-5.8954,-6.3299,-6.7597,-7.1278,-7.4221,-7.5845,-7.5946,-7.5371,-7.4052,-7.236,-7.0094,-6.6812,-6.37,-6.1061,-5.9438,-6.1061,0.0,0.0,0.0,0.0,-8.0513,-8.1731,-8.2205,0.0,-8.2611,0.0,-8.1156,-8.1765,-8.2408,0.0,-8.2847,-8.3253,-8.4099,-8.4133,-8.4133,-8.4133,-8.3828,-8.349,-8.3152,-8.2002,-8.0344,-7.8145,-7.7367,-7.5574,-7.3003,-7.3003,-7.2394,-7.1312,0.0,-7.1312,-7.1278,-7.0973,-7.0364,-6.9688,-6.9316,-6.847,-6.7387,-6.7049,-6.6406,-6.5696,0.0,0.0,0.0,0.0,0.0,0.0,0.0,0.0,0.0,0.0,0.0,0.0,0.0,0.0,0.0,0.0,0.0,0.0,0.0,0.0,0.0,0.0,0.0,0.0,0.0,0.0,0.0,0.0,0.0,0.0,0.0,0.0,0.0,0.0,0.0,0.0,0.0,0.0,0.0,0.0,0.0,0.0,0.0,0.0,0.0,0.0,0.0,0.0,0.0,0.0,-4.5544,-4.7113,-4.9373,-5.2856,-5.6794,-6.0168,-6.3957,-6.7849,-7.1165,-7.3984,-7.6183,-7.6995,-7.6521,-7.5067,-7.2022,-6.9451,-6.6643,-6.2753,-6.0216,-5.8457,-5.7611,-5.8829,-6.0825,-6.3531,0.0,-7.2394,-7.7807,-7.9126,-8.0581,-8.3321,-8.3659,-8.3659,-8.3659,-8.3659,-8.393,-8.4573,-8.4031,-8.3659,-8.3659,-8.3558,-8.3456,-8.3355,-8.2644,-8.19,-8.1156,-8.031,-7.8822,-7.6724,-7.5946,-7.4458,-7.2394,-7.2394,-7.1988,-7.1312,-7.1312,-7.1244,-7.1109,-7.0466,-6.9688,-6.8876,-6.8166,-6.7387,-6.6576,-6.5933,-6.5561,-6.5324,0.0,0.0,0.0,0.0,0.0,0.0,0.0,0.0,0.0,0.0,-3.4831,-3.4831,0.0,0.0,0.0,0.0,0.0,0.0,0.0,0.0,0.0,0.0,0.0,0.0,0.0,0.0,0.0,0.0,0.0,0.0,0.0,0.0,0.0,0.0,0.0,0.0,0.0,0.0,0.0,0.0,0.0,0.0,0.0,0.0,0.0,0.0,0.0,0.0,0.0,0.0,-4.7219,-4.9389,-5.3098,-5.6077,-5.9439,-6.5306,-6.7796,-6.976,-7.4613,-7.6758,-7.7773,-7.8551,-7.7705,-7.5743,-7.2124,-6.9079,0.0,-6.0622,-5.8321,-5.6765,-5.5412,-5.7374,-6.0757,-6.5459,-6.9485,-7.4255,-8.075,-8.1765,-8.2475,0.0,-8.4437,-8.4437,-8.4437,-8.4437,0.0,0.0,-8.4505,-8.4437,-8.4437,-8.3828,-8.3219,-8.2611,-8.1866,-8.1122,-8.0412,-7.9025,-7.7536,-7.5912,-7.5168,-7.395,-7.2394,-7.2394,-7.1988,-7.1312,-7.1312,0.0,-7.0364,-7.0229,-6.935,-6.8098,-6.7963,-6.7083,-6.5865,-6.573,-6.4918,-6.3971,0.0,0.0,0.0,0.0,0.0,0.0,0.0,-3.4073,-3.4299,-3.5429,-3.5328,-3.5006,-3.4705,-3.468,-3.4625,0.0,0.0,0.0,0.0,0.0,0.0,0.0,0.0,0.0,0.0,0.0,-3.9084,-3.9918,0.0,0.0,0.0,0.0,-3.9373,0.0,0.0,0.0,0.0,0.0,0.0,0.0,0.0,0.0,0.0,0.0,0.0,0.0,0.0,0.0,0.0,0.0,-4.8175,-5.2458,-5.6543,-6.008,-6.3612,-6.86,-7.125,-7.3313,-7.7003,-7.8855,-7.9701,-7.9667,-7.7976,-7.4897,-6.9586,0.0,0.0,-5.7239,-5.5581,-5.4871,-5.416,-5.6427,0.0,-6.3362,-6.6745,-7.1244,-7.7976,-7.9261,0.0,-8.3693,-8.4403,-8.464,0.0,-8.4268,-8.4031,-8.4031,-8.3693,-8.3625,-8.4031,-8.2949,-8.1832,-8.0716,-8.0344,-7.9803,-7.9058,-7.7536,-7.6251,-7.51,-7.3984,-7.2902,-7.1853,-7.1853,-7.165,-7.1312,-7.1312,-7.0872,-7.0161,-6.9789,-6.8944,-6.7861,-6.7489,-6.6643,-6.5628,-6.5256,-6.4444,-6.3497,0.0,0.0,0.0,0.0,0.0,0.0,0.0,-3.4299,-3.4751,-3.6229,-3.6081,-3.5583,-3.4931,-3.4756,-3.4625,0.0,0.0,0.0,0.0,0.0,0.0,0.0,0.0,0.0,0.0,0.0,0.0,-4.0187,-3.9679,0.0,0.0,0.0,0.0,0.0,-3.9373,-3.9373,0.0,0.0,0.0,0.0,0.0,-3.9499,0.0,0.0,0.0,0.0,0.0,0.0,0.0,0.0,-4.8347,-5.381,-5.7965,-6.24,-6.6813,-7.0206,-7.3335,-7.6249,-7.8655,-8.0412,-8.1325,-8.0412,-7.7807,-7.3747,-6.7184,-6.3294,0.0,-5.4532,-5.3518,-5.3518,-5.3518,-5.5513,-5.8017,0.0,-6.3125,-6.7184,-7.4221,-7.6048,-7.828,0.0,-8.393,0.0,-8.4606,-8.3795,0.0,-8.349,-8.2678,-8.2408,-8.2983,-8.1765,-8.0445,-7.916,-7.8788,-7.828,-7.7502,-7.598,-7.4864,-7.4119,-7.28,-7.1853,-7.1312,-7.1312,-7.1312,-7.1312,-7.1142,-7.0635,-6.9891,-6.9147,-6.8368,-6.759,-6.6846,-6.6102,-6.5358,-6.4647,-6.3903,-6.3193,0.0,0.0,0.0,0.0,0.0,0.0,0.0,-3.4449,-3.5583,-3.6329,-3.6807,-3.6634,-3.5533,-3.4981,-3.4324,0.0,0.0,0.0,0.0,0.0,0.0,0.0,0.0,0.0,0.0,0.0,0.0,-3.9499,-3.9439,0.0,0.0,0.0,0.0,0.0,0.0,-3.9373,-3.9373,-3.9373,0.0,0.0,0.0,0.0,0.0,0.0,0.0,0.0,0.0,0.0,0.0,0.0,0.0,-5.0869,-5.4921,-6.0671,-6.6524,-6.9474,0.0,0.0,-7.9331,-8.119,-8.1968,-8.0547,-7.7435,-7.3138,-6.7083,0.0,-5.893,-5.4431,-5.3518,-5.3518,-5.3518,-5.4262,-5.6055,-5.9641,0.0,-6.4512,0.0,0.0,0.0,-8.1968,0.0,0.0,-8.4573,-8.3355,0.0,-8.3456,-8.2171,-8.1426,-8.1494,-8.075,-7.9938,-7.9126,-7.7807,-7.6724,-7.5912,-7.4424,-7.3308,-7.2597,-7.1785,-7.1379,-7.1312,-7.1312,-7.1312,-7.1278,-7.0601,-6.9857,0.0,-6.8335,-6.7557,-6.6846,-6.6102,-6.5358,-6.4613,-6.3869,-6.3125,-6.2482,0.0,0.0,0.0,0.0,0.0,0.0,-3.3345,-3.3847,-3.4726,-3.6609,-3.7036,-3.701,-3.6584,-3.6031,-3.5002,-3.3262,0.0,0.0,0.0,0.0,0.0,0.0,0.0,0.0,0.0,0.0,-3.898,-3.9373,-3.9373,0.0,0.0,0.0,0.0,0.0,0.0,-3.9373,-3.9373,0.0,0.0,0.0,0.0,0.0,0.0,0.0,0.0,0.0,0.0,0.0,-4.2171,0.0,0.0,0.0,-5.026,-5.5392,0.0,0.0,-7.1522,-7.4564,-7.847,-8.0953,-8.1934,-8.004,-7.6386,-7.1819,-6.6305,0.0,-5.778,-5.4228,-5.3518,-5.3518,-5.3518,-5.3754,-5.4702,-5.707,-5.7002,0.0,-6.6474,0.0,0.0,0.0,0.0,0.0,0.0,0.0,-8.1494,-8.0919,-8.0716,-8.0242,-7.9329,-7.9464,-7.8788,-7.713,-7.6487,-7.5608,-7.439,-7.3341,-7.2699,-7.2394,-7.165,-7.1075,-7.0635,-7.0635,-7.0398,-6.9958,-6.9654,-6.8842,0.0,-6.7387,-6.6542,-6.5459,-6.5155,-6.458,-6.3903,-6.3632,-6.3024,-6.2381,0.0,0.0,0.0,0.0,0.0,-3.1662,-3.3169,-3.3345,-3.4198,-3.6634,-3.6935,-3.701,-3.7161,-3.6408,-3.5253,-3.3696,-3.3269,0.0,0.0,0.0,0.0,0.0,0.0,0.0,0.0,0.0,-3.9529,-3.9709,-3.9709,-3.9469,0.0,0.0,-3.9349,-3.8721,0.0,0.0,0.0,0.0,0.0,0.0,0.0,0.0,0.0,0.0,0.0,0.0,0.0,0.0,0.0,0.0,0.0,0.0,0.0,0.0,0.0,0.0,-6.8605,-7.2529,-7.6149,-7.9228,-8.0953,-7.8957,-7.5067,-7.0432,0.0,0.0,-5.6799,-5.4059,-5.3518,-5.3518,-5.3518,-5.3518,-5.3856,-5.4905,0.0,-5.6122,-6.1704,0.0,0.0,0.0,0.0,-7.669,0.0,-8.1088,-8.0581,-7.8889,-7.9464,-7.9228,-7.7739,-7.7942,-7.7367,-7.5743,-7.527,-7.4424,-7.3172,-7.2665,-7.2293,-7.209,-7.1548,-7.0906,-7.0195,-7.0195,-6.9789,-6.9079,-6.8639,-6.7827,0.0,-6.6339,-6.5561,-6.458,-6.4377,-6.3971,-6.3497,-6.326,-6.2854,-6.2381,0.0,0.0,0.0,0.0,0.0,0.0,-3.2064,-3.3169,-3.45,-3.6204,-3.6405,-3.6631,-3.7136,-3.573,-3.4726,-3.47,-3.3696,0.0,0.0,0.0,0.0,0.0,0.0,0.0,0.0,0.0,-3.9738,-4.0397,-4.0397,-4.0397,-4.0367,-4.0397,-4.0038,-3.9373,0.0,0.0,0.0,0.0,0.0,0.0,0.0,0.0,0.0,0.0,0.0,0.0,0.0,0.0,0.0,0.0,0.0,0.0,0.0,-4.7741,0.0,0.0,-6.3802,-7.0534,-7.2056,-7.5743,-7.8788,-7.7299,-7.3544,-6.9045,0.0,0.0,-5.619,-5.3957,-5.3518,-5.3518,-5.3518,-5.3518,-5.3518,-5.3518,-5.4735,0.0,-5.9708,0.0,0.0,0.0,0.0,0.0,-7.6589,-7.9566,-8.0378,-7.8179,-7.8686,0.0,-7.6995,-7.6149,-7.5709,-7.5709,-7.4255,-7.3172,-7.2428,-7.2394,-7.2022,-7.1312,-7.1312,-7.0906,-7.0195,-7.0195,-6.9789,-6.9011,-6.7489,-6.6812,0.0,-6.5222,-6.4613,-6.4546,-6.3802,-6.3531,-6.3429,-6.2685,-6.2381,-6.2381,0.0,0.0,0.0,0.0,0.0,0.0,0.0,-3.1411,-3.2114,-3.337,-3.4198,-3.5027,-3.5909,-3.5558,-3.5232,-3.5232,-3.3922,0.0,0.0,0.0,0.0,0.0,0.0,0.0,0.0,0.0,-3.9738,-4.0397,-4.0397,-4.0397,-4.0397,-4.0397,-4.0038,-3.9373,-3.9373,-3.9373,0.0,0.0,0.0,0.0,0.0,0.0,0.0,0.0,0.0,0.0,0.0,0.0,0.0,0.0,0.0,0.0,0.0,0.0,0.0,-5.1465,-5.7204,0.0,-6.6237,-6.8842,-7.0466,-6.9485,-6.7015,-6.4072,-6.1129,0.0,-5.5581,-5.3856,-5.3518,-5.3518,-5.3518,-5.3518,-5.3991,-5.5513,-5.5716,0.0,0.0,0.0,0.0,0.0,0.0,0.0,0.0,0.0,0.0,-7.7333,-7.7468,0.0,-7.5405,-7.4593,-7.4187,-7.4187,-7.324,-7.2394,-7.1684,-7.165,-7.1548,-7.1312,-7.0804,-7.0161,-6.9417,-6.8876,-6.7929,-6.6745,-6.6237,-6.5493,-6.4512,-6.4038,-6.3565,-6.3024,-6.2279,-6.2009,-6.1907,-6.1129,-6.0825,-6.0825,0.0,0.0,0.0,0.0,0.0,0.0,0.0,-3.0608,-3.1009,-3.2064,-3.2817,-3.3771,-3.5056,-3.5006,-3.5056,-3.5458,-3.4399,0.0,0.0,0.0,0.0,0.0,0.0,0.0,-3.9337,-3.9373,-3.9978,-4.1145,-4.1145,-4.1265,-4.1504,-4.1504,-4.0905,-3.9798,-3.9798,-3.9649,0.0,0.0,0.0,0.0,0.0,0.0,-4.3,0.0,0.0,0.0,0.0,0.0,0.0,0.0,0.0,0.0,0.0,0.0,0.0,0.0,-5.186,-5.6387,0.0,-6.4005,-6.5459,-6.4986,-6.3193,0.0,0.0,-5.6867,-5.4972,-5.3754,-5.3518,-5.3518,-5.3518,-5.3518,-5.3957,-5.5344,-5.5649,0.0,0.0,0.0,0.0,0.0,0.0,0.0,0.0,0.0,0.0,0.0,-7.6284,0.0,-7.4255,-7.3477,-7.3071,-7.3071,-7.236,-7.1751,-7.1312,-7.1312,-7.1176,-7.0872,-7.0398,-6.9654,-6.8605,-6.7861,-6.6812,-6.5662,-6.5121,-6.4343,0.0,-6.3193,-6.2651,-6.1941,-6.1467,-6.1129,-6.0791,-6.0283,-6.0114,-6.0114,0.0,0.0,0.0,0.0,0.0,0.0,0.0,-3.0557,-3.0909,-3.1913,-3.2064,-3.2717,-3.4374,-3.4123,-3.4299,-3.5332,0.0,0.0,0.0,0.0,0.0,0.0,0.0,0.0,-3.9337,-3.9433,-4.0397,-4.2321,-4.241,-4.2731,-4.329,-4.329,-4.2273,-4.0457,-4.0427,-4.0068,0.0,0.0,0.0,0.0,0.0,0.0,0.0,0.0,0.0,0.0,0.0,0.0,0.0,0.0,0.0,0.0,0.0,0.0,0.0,0.0,0.0,0.0,0.0,-6.0396,-6.2588,-6.2668,-6.1076,-5.9115,-5.7772,-5.5915,0.0,-5.3653,-5.3518,-5.3518,-5.3585,-5.3551,-5.3551,-5.3721,0.0,0.0,0.0,-6.0858,0.0,0.0,-7.1853,0.0,-7.3443,0.0,0.0,0.0,0.0,0.0,-7.3477,-7.2732,-7.2326,-7.2326,-7.1616,-7.1278,-7.1312,-7.1278,-7.0872,-7.0195,-7.0026,-6.9214,-6.7793,-6.7015,-6.6237,0.0,-6.4106,-6.3463,-6.3294,-6.2584,-6.1873,-6.1231,-6.1163,-6.0689,-6.0013,-5.9945,-5.9945,-5.9945,0.0,0.0,0.0,0.0,0.0,0.0,0.0,0.0,0.0,0.0,-3.0733,-3.1461,-3.2667,-3.3093,-3.3721,0.0,0.0,0.0,0.0,0.0,0.0,0.0,0.0,0.0,-3.9337,-3.9918,-4.0636,-4.1662,-4.2611,-4.314,-4.329,-4.329,-4.2551,-4.1115,-4.0636,-4.0307,0.0,0.0,0.0,0.0,0.0,0.0,0.0,0.0,0.0,0.0,-4.329,-4.329,0.0,0.0,0.0,0.0,0.0,0.0,0.0,0.0,-4.7092,-4.8679,-5.1022,0.0,-5.3661,-5.4415,-5.4076,-5.3465,0.0,-5.334,-5.3423,-5.3483,-5.3518,-5.3687,-5.4228,-5.389,-5.4059,-5.575,0.0,0.0,0.0,0.0,0.0,-7.0601,-7.3375,-7.4525,-7.2834,0.0,0.0,0.0,0.0,-7.3037,-7.2665,-7.1954,-7.1582,-7.1582,-7.0838,-7.0737,-7.1312,-7.0737,-7.0364,-7.0161,-6.8436,-6.7421,-6.7015,-6.573,-6.4715,-6.4005,-6.3666,-6.2888,-6.1806,-6.1637,-6.1095,-6.0317,-5.9776,-5.9438,-5.9201,-5.8626,-5.8423,-5.8423,0.0,0.0,0.0,0.0,0.0,0.0,0.0,0.0,0.0,0.0,0.0,0.0,0.0,0.0,0.0,0.0,0.0,0.0,0.0,0.0,0.0,0.0,0.0,-3.817,-3.9822,-4.0217,-4.0876,-4.1871,-4.2851,-4.3509,-4.3738,-4.3738,-4.309,-4.1841,-4.1145,-4.0696,0.0,0.0,0.0,0.0,-4.3269,0.0,0.0,0.0,0.0,0.0,-4.2551,-4.2641,0.0,-4.32,-4.329,-4.3349,0.0,0.0,0.0,0.0,-4.5868,-4.6966,-4.8286,-4.973,-5.0993,-5.1529,-5.1553,-5.1481,-5.1626,0.0,-5.2015,-5.2624,-5.2416,-5.248,-5.3855,-5.3379,-5.3442,0.0,-5.6359,0.0,0.0,0.0,0.0,0.0,-7.3409,-7.4119,0.0,0.0,0.0,0.0,0.0,-7.2259,-7.1921,-7.1548,-7.1142,-7.0804,-7.0398,-7.0398,-7.0804,-7.006,-6.935,-6.8639,-6.7387,-6.6474,-6.5764,-6.4613,-6.37,-6.299,-6.2651,-6.1839,-6.0757,-6.0757,-6.0283,-5.9573,-5.9167,-5.8592,-5.7949,-5.7543,-5.7171,-5.69,0.0,0.0,0.0,0.0,0.0,0.0,0.0,0.0,0.0,0.0,0.0,0.0,0.0,0.0,0.0,0.0,0.0,0.0,0.0,0.0,0.0,0.0,0.0,-3.917,-4.0509,-4.0546,-4.1145,-4.241,-4.324,-4.3898,-4.4317,-4.4526,-4.3868,-4.253,-4.1871,-4.1235,0.0,0.0,0.0,0.0,-4.3479,0.0,0.0,0.0,0.0,0.0,0.0,0.0,0.0,-4.3,-4.32,-4.3379,-4.3868,0.0,0.0,0.0,0.0,0.0,-4.7027,-4.9215,-5.1072,-5.1041,-5.0962,-5.0945,-5.1009,0.0,0.0,0.0,0.0,0.0,0.0,-5.2542,0.0,0.0,0.0,0.0,0.0,0.0,0.0,0.0,0.0,0.0,0.0,0.0,0.0,0.0,0.0,-7.1954,-7.1345,-7.121,-7.0838,-7.0195,-6.9857,-6.9688,-6.9688,-6.9045,-6.803,-6.6643,-6.6406,-6.5595,-6.4241,-6.3497,-6.2753,-6.2009,0.0,0.0,-5.9945,-5.9945,-5.9505,-5.8829,-5.8829,-5.8017,-5.6799,-5.6799,-5.6325,-5.5647,0.0,0.0,0.0,0.0,0.0,0.0,0.0,0.0,0.0,0.0,0.0,0.0,0.0,0.0,0.0,0.0,0.0,0.0,0.0,0.0,0.0,-3.8708,-3.7882,-3.8563,-4.1167,-4.1235,-4.1632,-4.241,-4.4137,-4.4766,-4.4347,-4.5442,-4.4964,-4.311,-4.2491,-4.2201,-4.2111,-4.241,-4.2701,-4.3021,-4.3319,0.0,0.0,0.0,0.0,0.0,0.0,0.0,0.0,-4.253,-4.288,-4.323,-4.2791,0.0,0.0,0.0,0.0,0.0,-4.5451,-4.7576,-4.957,-4.9275,-4.9002,-4.884,-4.912,0.0,0.0,0.0,0.0,0.0,0.0,-5.2055,-5.2896,0.0,0.0,-6.2888,0.0,0.0,-6.9823,-6.9789,0.0,0.0,0.0,0.0,0.0,0.0,0.0,-7.1447,-7.1312,-7.0703,-7.0297,-7.0195,-6.8335,-6.732,-6.732,-6.7218,-6.6711,-6.5831,-6.4613,-6.3565,-6.2719,-6.1975,-6.1197,-6.0452,0.0,-5.9877,-5.9167,-5.9167,-5.8727,-5.8051,-5.8051,-5.7543,-5.6799,-5.6799,-5.6325,-5.5615,0.0,0.0,0.0,0.0,0.0,0.0,0.0,0.0,0.0,0.0,0.0,0.0,0.0,0.0,0.0,0.0,0.0,0.0,0.0,0.0,0.0,-3.9385,-3.9158,-3.9773,-4.1384,-4.1752,-4.2261,-4.288,-4.4496,-4.5125,-4.4855,-4.5484,-4.4915,-4.3359,-4.3389,-4.303,-4.241,-4.2731,-4.306,-4.329,0.0,0.0,0.0,0.0,0.0,0.0,0.0,0.0,0.0,0.0,-4.2252,-4.2821,-4.288,0.0,0.0,0.0,0.0,0.0,-4.4586,-4.6202,-4.7829,-4.8377,-4.9205,-4.9719,-4.9166,0.0,0.0,0.0,0.0,0.0,0.0,0.0,-5.3787,-5.7517,0.0,-6.3567,-6.4885,-6.6353,-6.733,0.0,0.0,0.0,0.0,0.0,0.0,0.0,0.0,0.0,-7.0703,-6.9992,-6.9417,-6.8977,-6.7557,-6.644,-6.5628,-6.4816,-6.4444,-6.4512,-6.3429,-6.2516,-6.1772,-6.0994,-6.025,-5.9471,0.0,-5.849,-5.778,-5.7408,-5.7036,-5.6697,-5.6697,-5.6258,-5.5547,-5.5175,-5.4803,-5.4465,0.0,0.0,0.0,0.0,0.0,0.0,0.0,0.0,0.0,0.0,0.0,0.0,0.0,0.0,0.0,0.0,0.0,0.0,0.0,0.0,-3.8023,-3.9621,-4.0277,-4.1062,-4.2073,-4.244,-4.297,-4.3738,-4.4975,-4.5603,-4.5753,-4.5753,-4.5065,-4.3868,-4.4317,-4.3808,-4.2611,-4.312,-4.329,-4.329,0.0,0.0,0.0,0.0,0.0,0.0,0.0,0.0,0.0,0.0,0.0,0.0,0.0,0.0,0.0,-4.329,-4.329,-4.3439,-4.4137,-4.5394,-4.6741,-4.7608,0.0,0.0,0.0,-4.9553,0.0,0.0,0.0,0.0,0.0,-5.2554,0.0,-5.9665,-6.2436,-6.3952,-6.3787,-6.4688,-6.5591,-6.6305,-6.6761,0.0,0.0,0.0,0.0,0.0,0.0,0.0,-6.9925,-6.9045,-6.8138,-6.7238,-6.5993,-6.4699,-6.3267,-6.2072,-6.1975,-6.299,-6.2212,-6.1467,-6.0723,-5.9945,-5.9201,-5.8457,-5.7712,-5.707,-5.6494,-5.5953,-5.5681,-5.5681,-5.5681,-5.5243,-5.4499,-5.3788,-5.3518,-5.3518,0.0,0.0,0.0,0.0,0.0,0.0,0.0,0.0,0.0,0.0,0.0,0.0,0.0,0.0,0.0,0.0,0.0,0.0,0.0,0.0,-3.7792,-3.8916,-4.005,-4.1703,-4.4037,-4.3499,-4.3898,-4.5155,-4.5903,-4.6561,-4.716,-4.716,-4.6441,-4.5155,-4.5214,-4.4496,-4.323,-4.326,-4.329,-4.329,-4.329,0.0,0.0,0.0,0.0,0.0,0.0,0.0,0.0,0.0,0.0,0.0,0.0,0.0,-4.329,-4.329,-4.329,-4.3439,-4.4137,-4.5753,-4.71,-4.6591,-4.7489,0.0,-5.2217,-5.1917,0.0,-5.3481,0.0,0.0,0.0,-5.3728,0.0,0.0,0.0,-6.5276,-6.6684,0.0,-6.7042,-6.7119,-6.717,0.0,0.0,0.0,0.0,0.0,0.0,0.0,-6.9137,-6.7793,-6.6412,-6.527,-6.2547,-6.0561,-5.9343,-5.8936,-5.9691,-6.1467,-6.0655,-5.9877,-5.9167,-5.8389,-5.7645,-5.6934,-5.619,-5.5852,-5.5784,-5.575,-5.5681,-5.5681,-5.5681,-5.5243,-5.4499,-5.3788,-5.3518,-5.3518,0.0,0.0,0.0,0.0,0.0,0.0,0.0,0.0,0.0,0.0,0.0,0.0,0.0,0.0,0.0,0.0,0.0,0.0,0.0,-3.6442,-3.8179,-3.8946,-4.1081,-4.289,-4.4246,-4.4077,-4.4586,-4.5933,-4.6591,-4.707,-4.7309,-4.7309,-4.6591,-4.5304,-4.5304,-4.4796,-4.3888,-4.3469,-4.3529,-4.3858,-4.3469,-4.314,0.0,0.0,0.0,0.0,0.0,0.0,0.0,0.0,-4.0876,-4.1722,-4.1265,-4.2162,-4.323,-4.2851,-4.303,-4.3349,-4.3589,-4.5143,-4.6741,-4.689,-4.7908,0.0,0.0,-5.2187,-5.2157,-5.3324,-5.4042,0.0,0.0,0.0,0.0,0.0,0.0,0.0,0.0,0.0,0.0,0.0,0.0,0.0,0.0,0.0,0.0,0.0,0.0,0.0,-6.5324,-6.3568,-6.2341,-6.1893,-5.9978,-5.8723,-5.8285,-5.7248,-5.6889,-5.7215,-5.8232,-5.8592,-5.8287,-5.707,-5.6393,-5.6089,-5.5344,-5.5006,-5.4972,-5.4532,-5.4329,-5.4329,-5.4329,-5.416,-5.389,-5.3619,-5.3518,-5.3518,0.0,0.0,0.0,0.0,0.0,0.0,0.0,0.0,0.0,0.0,0.0,0.0,0.0,0.0,0.0,0.0,0.0,0.0,-3.3598,-3.6302,-3.8366,-3.9466,-4.1748,-4.3419,-4.4287,-4.4526,-4.5185,-4.6279,-4.698,-4.7309,-4.7309,-4.7309,-4.6711,-4.5633,-4.5633,-4.5244,-4.4586,-4.3888,-4.3898,-4.4257,-4.3559,-4.329,0.0,0.0,0.0,0.0,0.0,0.0,0.0,0.0,-4.0337,-4.1055,-4.1025,-4.1953,-4.297,-4.2731,-4.3,-4.329,-4.329,-4.4605,-4.6112,-4.6561,0.0,0.0,-5.2546,-5.3294,-5.3892,-5.5388,-5.5418,-5.5299,-5.5718,0.0,0.0,0.0,0.0,0.0,0.0,0.0,0.0,0.0,0.0,0.0,0.0,0.0,0.0,0.0,0.0,0.0,0.0,-6.0647,-5.9484,-5.9119,-5.7529,-5.6398,-5.5808,-5.4936,-5.4158,-5.3512,-5.5089,-5.6174,-5.6667,-5.5744,-5.5344,-5.531,-5.4566,-5.4262,-5.4194,-5.3721,-5.3518,-5.3518,-5.3518,-5.3518,-5.3518,-5.3518,-5.3518,-5.3518,0.0,0.0,0.0,0.0,0.0,0.0,0.0,0.0,0.0,0.0,0.0,0.0,0.0,0.0,0.0,0.0,0.0,0.0,-3.4609,-3.6253,-3.8206,-4.0469,-4.1735,-4.301,-4.4257,-4.4945,-4.5633,-4.6279,-4.698,-4.7309,-4.7309,-4.7309,-4.695,-4.6279,-4.6279,-4.5933,-4.5244,-4.4586,-4.4317,-4.4257,-4.3559,-4.329,-4.329,0.0,0.0,0.0,0.0,0.0,0.0,0.0,-4.0397,-4.0636,-4.1961,-4.2381,-4.253,-4.312,-4.329,-4.329,-4.329,-4.4287,-4.5304,0.0,0.0,0.0,-5.4281,-5.5688,-5.7094,-6.0416,-5.7962,-5.5598,-5.6885,-5.6615,0.0,-5.877,-6.0775,0.0,0.0,0.0,0.0,0.0,0.0,0.0,0.0,0.0,0.0,0.0,0.0,0.0,0.0,-5.9607,-5.8296,-5.7088,-5.5038,-5.3085,-5.1199,-5.1631,-5.1537,-5.0878,-5.1302,-5.2391,-5.4105,-5.4451,-5.4566,-5.4532,-5.3822,-5.3518,-5.3518,-5.3518,-5.3518,-5.3518,-5.3518,-5.3518,-5.3518,-5.3518,-5.3518,-5.3518,0.0,0.0,0.0,0.0,0.0,0.0,0.0,0.0,0.0,0.0,0.0,0.0,0.0,0.0,0.0,0.0,0.0,0.0,-3.3369,-3.5763,-3.7646,-3.8601,-4.1026,-4.259,-4.298,-4.4496,-4.5873,-4.701,-4.7219,-4.7309,-4.7309,-4.7309,-4.695,-4.6279,-4.6279,-4.5933,-4.5244,-4.4586,-4.4317,-4.4287,-4.4067,-4.4018,-4.3988,0.0,0.0,0.0,0.0,0.0,0.0,0.0,0.0,0.0,-4.0846,-4.1923,-4.291,-4.2162,-4.294,-4.3838,-4.291,-4.3958,0.0,-4.6471,0.0,0.0,0.0,-5.5329,0.0,0.0,-5.871,-5.7363,-5.7752,-5.8411,0.0,-5.8471,-6.0086,-6.1553,0.0,0.0,0.0,0.0,0.0,0.0,0.0,0.0,0.0,0.0,0.0,0.0,0.0,-5.4922,-5.3833,-5.3001,-5.1894,-5.0864,-4.9853,-5.002,-4.9744,-4.9078,-4.9915,-5.1359,-5.3309,-5.287,-5.3101,-5.3822,-5.3585,-5.3518,-5.3518,-5.3518,-5.3518,-5.3518,-5.3518,-5.3518,-5.3518,-5.3518,-5.3518,-5.3518,0.0,0.0,0.0,0.0,0.0,0.0,0.0,0.0,0.0,0.0,0.0,0.0,0.0,0.0,0.0,0.0,0.0,0.0,0.0,-3.5526,-3.7411,-3.8777,-4.0872,-4.2381,-4.312,-4.4556,-4.5693,-4.6501,-4.677,-4.692,-4.692,-4.692,-4.683,-4.6711,-4.6711,-4.6322,-4.5663,-4.4975,-4.4706,-4.4676,-4.4436,-4.4466,-4.4646,0.0,0.0,0.0,0.0,0.0,0.0,0.0,0.0,0.0,-4.0786,0.0,-4.2462,-4.1923,-4.2432,-4.315,-4.315,-4.4197,0.0,-4.7309,-4.9853,-5.2725,-5.5538,0.0,0.0,0.0,-5.9398,-5.8291,-5.88,-5.889,0.0,-5.889,-5.9697,-6.0446,0.0,0.0,0.0,0.0,0.0,0.0,0.0,0.0,0.0,0.0,0.0,0.0,0.0,-5.2157,-5.1229,-5.084,-5.0182,-4.9553,-4.894,-4.891,-4.8536,-4.7908,-4.8511,-4.9677,-5.1359,-5.1721,-5.2487,-5.3518,-5.3518,-5.3518,-5.3518,-5.3518,-5.3518,-5.3518,-5.3518,-5.3518,-5.3518,-5.3518,-5.3518,-5.3518,0.0,0.0,0.0,0.0,0.0,0.0,0.0,0.0,0.0,0.0,-3.1035,0.0,0.0,0.0,0.0,0.0,0.0,0.0,0.0,0.0,-3.7546,-4.0203,-4.1115,-4.2462,-4.4377,-4.4975,-4.5274,-4.5214,-4.5903,-4.619,-4.619,-4.6249,-4.6651,-4.7219,-4.7219,-4.686,-4.613,-4.5424,-4.5125,-4.5065,-4.4466,-4.4616,-4.5125,-4.4556,0.0,0.0,0.0,0.0,0.0,0.0,0.0,0.0,-4.1392,-4.1422,-4.1542,-4.2081,-4.1871,-4.1863,-4.3658,0.0,0.0,-4.7997,-5.1169,0.0,-5.6017,-5.9279,-6.1882,-6.1762,0.0,-5.871,-5.9787,-5.856,-5.7932,-5.9638,0.0,0.0,0.0,0.0,0.0,0.0,0.0,0.0,0.0,0.0,0.0,0.0,0.0,0.0,0.0,-5.081,-5.0076,-5.0016,-4.9494,-4.891,-4.8207,-4.8207,-4.7878,-4.7219,-4.7219,-4.7728,-4.8695,-5.0828,-5.235,-5.3382,-5.3484,-5.345,-5.3416,-5.3484,-5.3518,-5.3518,-5.3518,-5.3518,-5.3518,-5.3518,-5.3518,-5.3518,0.0,0.0,0.0,0.0,0.0,0.0,0.0,0.0,0.0,0.0,0.0,0.0,0.0,0.0,0.0,0.0,0.0,0.0,0.0,0.0,-3.8089,-3.9546,-4.1705,-4.3599,-4.5035,-4.5214,-4.5035,-4.4526,-4.5185,-4.5514,-4.5514,-4.6082,-4.6411,-4.6531,-4.6531,-4.6142,-4.5454,-4.4257,-4.3708,-4.3708,-4.3629,-4.3958,-4.4496,-4.4377,-4.4227,0.0,0.0,0.0,0.0,0.0,0.0,0.0,-4.1205,-4.1422,-4.1294,-4.0935,-4.1444,-4.2291,0.0,-4.4018,0.0,0.0,-5.4251,-5.7932,-5.8381,-5.9548,-6.0236,-5.9189,-5.9787,-6.0236,-5.9458,0.0,0.0,0.0,0.0,0.0,0.0,0.0,0.0,0.0,0.0,0.0,0.0,0.0,0.0,0.0,0.0,0.0,-4.9958,-4.9643,-4.9224,-4.8716,-4.8566,-4.8177,-4.7519,-4.7519,-4.7189,-4.6531,-4.6531,-4.6789,-4.741,-4.9655,-5.1375,-5.2604,-5.3247,-5.3145,-5.2604,-5.3247,-5.3518,-5.3518,-5.3518,-5.3518,-5.3518,-5.3518,-5.3518,-5.3518,0.0,0.0,0.0,0.0,0.0,0.0,0.0,0.0,0.0,0.0,0.0,0.0,0.0,0.0,0.0,0.0,0.0,0.0,0.0,0.0,0.0,-4.03,-4.2581,-4.3988,-4.4347,-4.4676,-4.4347,-4.3389,-4.3718,-4.4197,-4.4855,-4.5514,-4.5992,-4.6279,-4.6279,-4.5753,-4.4796,-4.4107,-4.3589,-4.3319,-4.3688,-4.4197,-4.4706,-4.4077,-4.3798,-4.3618,-4.2372,0.0,0.0,0.0,0.0,0.0,0.0,0.0,-4.1302,-4.0606,-4.0876,-4.1713,0.0,0.0,0.0,0.0,0.0,0.0,-5.856,-5.889,-5.886,-5.7842,-5.871,0.0,0.0,0.0,0.0,0.0,0.0,0.0,0.0,0.0,0.0,0.0,0.0,0.0,0.0,0.0,0.0,0.0,0.0,-4.9164,-4.885,-4.8506,-4.8177,-4.7818,-4.7818,-4.7489,-4.683,-4.683,-4.6501,-4.5843,-4.5843,-4.6223,-4.6983,-4.9128,-5.0704,-5.1826,-5.2232,-5.2164,-5.1826,-5.2604,-5.2942,-5.2976,-5.3348,-5.3518,-5.3518,-5.3518,-5.3518,-5.3518,0.0,0.0,0.0,0.0,0.0,0.0,0.0,0.0,0.0,0.0,0.0,0.0,0.0,0.0,0.0,0.0,0.0,0.0,0.0,0.0,0.0,0.0,-4.312,-4.3838,-4.3469,-4.3808,-4.3449,-4.241,-4.2291,-4.295,-4.4317,-4.4855,-4.5484,-4.6142,-4.6142,-4.5394,-4.4137,-4.3898,-4.3479,-4.3021,-4.3599,-4.4137,-4.4526,-4.3539,-4.305,-4.2811,-4.1773,-4.1422,-4.1474,-4.2051,0.0,0.0,0.0,0.0,-4.0935,-4.0397,-4.0217,-4.0726,0.0,0.0,0.0,0.0,0.0,0.0,0.0,0.0,0.0,0.0,0.0,0.0,0.0,0.0,0.0,0.0,0.0,0.0,0.0,0.0,0.0,0.0,0.0,0.0,0.0,0.0,0.0,0.0,0.0,-4.8237,-4.8117,-4.7608,-4.7309,-4.7309,-4.7189,-4.686,-4.6322,-4.6202,-4.5813,-4.5125,-4.5005,-4.5526,-4.661,-4.8372,-4.9757,-5.0788,-5.1085,-5.115,-5.1082,-5.1826,-5.2131,-5.2198,-5.2841,-5.3112,-5.3112,-5.3112,-5.3112,-5.3112,0.0,0.0,0.0,0.0,0.0,0.0,0.0,0.0,0.0,0.0,0.0,0.0,0.0,0.0,0.0,0.0,0.0,0.0,0.0,0.0,0.0,-4.2201,-4.253,-4.312,-4.4167,-4.315,-4.256,-4.241,-4.1841,-4.2462,-4.4317,-4.4407,-4.4796,-4.5424,-4.5424,-4.4706,-4.3349,-4.2252,-4.1713,-4.1654,-4.1743,-4.1833,-4.1953,-4.2381,-4.2171,-4.1624,-4.1482,-4.1422,-4.1384,-4.1512,-4.1145,0.0,0.0,0.0,-3.9679,-3.9589,-3.9523,-3.9738,0.0,0.0,0.0,0.0,0.0,0.0,0.0,0.0,0.0,0.0,0.0,0.0,0.0,0.0,0.0,0.0,0.0,0.0,0.0,0.0,0.0,0.0,0.0,0.0,0.0,0.0,0.0,0.0,-4.8327,-4.8027,-4.7459,-4.7369,-4.7309,-4.7309,-4.6741,-4.6369,-4.6279,-4.5723,-4.5095,-4.4436,-4.3828,-4.4122,-4.5129,-4.6176,-4.7552,-4.9127,-5.0589,-5.0845,-5.0304,-5.1048,-5.1352,-5.1386,-5.1488,-5.1522,-5.1522,-5.1522,-5.1522,-5.1522,0.0,0.0,0.0,0.0,0.0,0.0,0.0,0.0,0.0,0.0,0.0,0.0,0.0,0.0,0.0,0.0,0.0,0.0,0.0,0.0,0.0,-4.0666,-4.1055,-4.1534,-4.2102,-4.1564,-4.1085,-4.0726,-4.0427,0.0,0.0,-4.4317,-4.5065,-4.6381,-4.5633,-4.4766,-4.3808,-4.2491,-4.1752,-4.1422,-4.1422,-4.1632,-4.1931,-4.1482,-4.1085,-4.0726,-3.9978,-3.9709,-3.9768,-4.0157,-4.0337,-4.0397,-4.0397,0.0,0.0,0.0,-3.9373,0.0,0.0,0.0,0.0,0.0,0.0,0.0,0.0,0.0,0.0,0.0,0.0,0.0,0.0,0.0,0.0,0.0,0.0,0.0,0.0,0.0,0.0,0.0,0.0,0.0,0.0,0.0,0.0,0.0,-4.7399,-4.707,-4.677,-4.6381,-4.6172,-4.6172,-4.5903,-4.5574,-4.5185,-4.4885,-4.4407,-4.3738,-4.3439,-4.3527,-4.4004,-4.5525,-4.689,-4.8166,-4.9416,-4.9796,-4.9526,-5.027,-5.0574,-5.0608,-5.1048,-5.1185,-5.1185,-5.1185,-5.1185,-5.1185,0.0,0.0,0.0,0.0,0.0,0.0,0.0,0.0,0.0,0.0,0.0,0.0,0.0,0.0,0.0,0.0,0.0,0.0,0.0,0.0,0.0,-3.911,-3.9619,-3.9888,-3.9888,-3.9888,-3.9649,-3.917,0.0,0.0,-4.4317,-4.4317,-4.5574,-4.7758,-4.6411,-4.5244,-4.4227,-4.295,-4.2111,-4.1632,-4.1265,-4.1324,-4.1572,-4.0905,-4.0546,-4.0247,-3.908,-3.8751,-3.8931,-3.911,-3.9589,-4.0157,-4.0157,-4.0157,0.0,0.0,0.0,0.0,0.0,0.0,0.0,0.0,0.0,0.0,0.0,0.0,0.0,0.0,0.0,0.0,0.0,0.0,0.0,0.0,0.0,0.0,0.0,0.0,0.0,0.0,0.0,0.0,0.0,0.0,0.0,0.0,-4.6352,-4.6052,-4.6052,-4.5574,-4.5304,-4.5304,-4.5125,-4.4796,-4.4317,-4.3988,-4.3569,-4.309,-4.309,-4.3298,-4.3732,-4.5421,-4.6696,-4.7671,-4.8576,-4.9018,-4.9052,-4.9593,-4.983,-4.9864,-5.0439,-5.0642,-5.0642,-5.0642,-5.0642,-5.0642,0.0,0.0,0.0,0.0,0.0,0.0,0.0,0.0,0.0,0.0,0.0,0.0,-3.2089,-3.219,-3.2164,-3.2067,-3.4039,0.0,0.0,0.0,0.0,-3.8392,-3.8482,0.0,-3.8482,-3.8482,-3.8482,0.0,0.0,0.0,-4.4317,-4.4317,-4.6052,-4.9149,-4.7788,-4.6112,-4.4227,-4.295,-4.2381,-4.2231,-4.0935,-4.0098,-3.9709,-4.0876,-4.0935,-4.0307,-3.9619,-3.9768,-4.0098,-3.8871,-3.8901,-3.9433,-3.9433,-3.9433,-3.9433,0.0,0.0,0.0,0.0,0.0,0.0,0.0,0.0,0.0,0.0,0.0,0.0,0.0,0.0,0.0,0.0,0.0,0.0,0.0,0.0,0.0,0.0,0.0,0.0,0.0,0.0,0.0,0.0,0.0,0.0,0.0,-4.5364,-4.5334,-4.5334,-4.5304,-4.5304,-4.5304,-4.4676,-4.4347,-4.4317,-4.309,-4.247,-4.244,-4.244,-4.3243,-4.4774,-4.5778,-4.6696,-4.7671,-4.8576,-4.9018,-4.9018,-4.9052,-4.9052,-4.9052,-4.912,-4.912,-4.912,-4.912,-4.912,-4.912,0.0,0.0,0.0,0.0,0.0,0.0,0.0,0.0,0.0,0.0,0.0,0.0,0.0,-3.1687,-3.2023,-3.2847,-3.4455,0.0,0.0,0.0,0.0,-3.7135,-3.7554,-3.7584,-3.7165,-3.7554,-3.7764,0.0,0.0,-4.0038,-4.3648,-4.4107,-4.5424,-4.7339,-4.6411,-4.5873,-4.5424,-4.2851,-4.2021,-4.2261,-4.0457,-4.0397,-4.1235,-4.0427,-4.0247,-4.0247,-3.914,-3.8901,-3.905,-3.8542,-3.8841,-3.9313,-3.8901,-3.8751,-3.8601,-3.7793,-3.7764,0.0,0.0,0.0,0.0,0.0,0.0,0.0,0.0,0.0,0.0,0.0,0.0,0.0,0.0,0.0,0.0,0.0,0.0,0.0,0.0,0.0,0.0,0.0,0.0,0.0,0.0,0.0,0.0,0.0,0.0,-4.4676,-4.4676,-4.4257,-4.4047,-4.4047,-4.3389,-4.2851,-4.2432,-4.2021,-4.1782,-4.1782,-4.1782,-4.2334,-4.3479,-4.4411,-4.5369,-4.6254,-4.7167,-4.8139,-4.8951,-4.8511,-4.8578,-4.9018,-4.9018,-4.9018,-4.9018,-4.9018,-4.9018,-4.9018,0.0,0.0,0.0,0.0,0.0,0.0,0.0,0.0,0.0,-3.0809,0.0,0.0,0.0,0.0,-3.1951,-3.3303,-3.4076,-3.4806,-3.5457,-3.5166,-3.5211,-3.5655,-3.6483,-3.663,-3.601,-3.7148,0.0,0.0,0.0,0.0,0.0,-4.317,-4.4098,-4.4849,-4.4103,-4.4745,0.0,0.0,0.0,-4.2821,-4.0232,-4.0456,-4.2222,-4.0537,-4.0634,-4.1504,-3.9948,-3.9529,-3.9559,-3.8422,-3.8512,-3.896,-3.8272,-3.8063,-3.7853,-3.6806,-3.7225,0.0,-3.7793,0.0,0.0,0.0,0.0,0.0,0.0,0.0,0.0,0.0,0.0,0.0,0.0,0.0,0.0,0.0,0.0,0.0,0.0,0.0,0.0,0.0,0.0,0.0,0.0,0.0,0.0,0.0,0.0,0.0,-4.3947,-4.3529,-4.32,-4.3,-4.241,-4.1752,-4.1055,-4.1055,-4.1055,-4.1055,-4.1055,-4.1821,-4.3196,-4.382,-4.4756,-4.5901,-4.6514,-4.7496,-4.8612,-4.8075,-4.8311,-4.9018,-4.9018,-4.9018,-4.9018,-4.9018,-4.9018,-4.9018,0.0,0.0,0.0,0.0,0.0,0.0,0.0,0.0,-3.0809,-3.1311,0.0,0.0,0.0,0.0,0.0,-3.3293,-3.2908,-3.3422,-3.5323,-3.4509,-3.3973,-3.3973,0.0,0.0,0.0,0.0,0.0,0.0,0.0,0.0,0.0,0.0,-4.214,-4.1903,-4.1097,-4.2743,-4.5998,0.0,-4.4105,-4.3875,0.0,-4.0198,-4.2246,-4.115,-4.2181,-4.3977,-4.2102,-4.1871,-4.1901,-3.8631,-3.7973,-3.8392,-3.7674,-3.7404,-3.7255,-3.6626,-3.6896,0.0,0.0,0.0,0.0,0.0,0.0,0.0,0.0,0.0,0.0,0.0,0.0,0.0,0.0,0.0,0.0,0.0,0.0,0.0,0.0,0.0,0.0,0.0,0.0,0.0,0.0,0.0,0.0,0.0,-4.329,-4.329,-4.326,-4.323,-4.297,-4.2351,-4.1722,-4.1025,-4.0367,-4.0367,-4.0367,-4.0367,-4.0367,-4.1628,-4.4028,-4.4028,-4.5015,-4.6688,-4.6718,-4.7158,-4.7838,-4.7838,-4.8308,-4.8984,-4.8984,-4.8984,-4.8984,-4.8984,-4.8984,-4.8984,0.0,0.0,0.0,0.0,0.0,0.0,-3.0683,-3.0608,-3.0658,0.0,0.0,0.0,-3.1612,-3.2085,-3.2581,-3.2942,-3.3098,-3.3401,-3.3966,-3.3339,-3.3142,-3.3553,-3.4407,-3.4743,-3.4492,-3.5583,-3.6156,-3.6156,-3.6325,-3.6916,-3.7954,-3.8936,-3.9562,0.0,-4.0237,-4.0435,-4.0542,-3.958,0.0,-4.1466,-3.8654,-3.9017,0.0,0.0,0.0,-4.1656,-4.198,-4.2231,-4.2261,-4.1332,-4.1153,-4.0943,-3.8781,-3.7494,-3.6626,-3.5968,-3.6567,-3.7165,-3.6058,0.0,0.0,0.0,0.0,0.0,0.0,0.0,0.0,0.0,0.0,0.0,0.0,0.0,0.0,0.0,0.0,0.0,0.0,0.0,0.0,0.0,0.0,0.0,0.0,0.0,0.0,0.0,-4.329,-4.312,-4.2641,-4.2192,-4.1624,-4.0965,-4.0756,-4.0337,-3.9709,-3.9679,-3.9679,-3.9679,-3.9679,-4.0385,-4.1659,-4.2263,-4.3198,-4.4308,-4.4933,-4.5635,-4.6346,-4.6887,-4.753,-4.8176,-4.8176,-4.8176,-4.8274,-4.8815,-4.868,-4.8277,0.0,0.0,0.0,0.0,0.0,-3.1637,-3.1336,-3.1286,-3.1286,0.0,0.0,0.0,-3.1411,-3.2092,-3.2642,-3.2778,-3.299,-3.3224,-3.3395,-3.2736,-3.2488,-3.2803,-3.3447,-3.3908,-3.4074,-3.5112,-3.5675,-3.5675,-3.5675,-3.5837,-3.6185,-3.7001,-3.7249,-3.6973,0.0,0.0,0.0,0.0,0.0,0.0,-3.7751,0.0,0.0,-3.9643,-4.0279,0.0,0.0,-4.2344,-4.2677,-4.1548,-4.1151,-4.0756,-3.8631,-3.7853,-3.7524,-3.6567,-3.7225,-3.7973,-3.6656,-3.7315,-3.8422,0.0,0.0,0.0,-4.0038,-3.9978,0.0,0.0,0.0,0.0,0.0,0.0,0.0,0.0,0.0,0.0,0.0,0.0,0.0,0.0,0.0,0.0,0.0,-4.309,-4.291,-4.291,-4.2671,-4.2342,-4.2021,-4.1324,-4.0786,-4.0397,-4.0127,-3.9798,-3.9373,-3.9373,-3.9373,-3.9373,-3.9373,-3.9849,-4.0724,-4.1593,-4.2489,-4.3353,-4.4543,-4.5128,-4.5297,-4.6041,-4.6786,-4.7462,-4.7462,-4.7462,-4.753,-4.8274,-4.8071,-4.7564,0.0,0.0,-3.3111,-3.3111,-3.2591,-3.2215,-3.2215,-3.2215,-3.2215,0.0,-3.2315,-3.2215,-3.1712,-3.2114,-3.259,-3.2972,-3.2843,-3.2893,-3.3244,-3.2357,-3.1899,-3.1951,-3.2489,-3.3106,-3.3738,-3.5103,-3.5854,-3.5854,-3.5854,-3.54,-3.4553,-3.544,-3.5122,-3.3815,0.0,0.0,0.0,0.0,0.0,-3.6673,-3.6827,-3.8086,0.0,0.0,-4.0406,-4.2205,-4.1682,-4.2211,-4.2811,-4.0576,-3.9673,-3.9228,-3.8118,-3.8422,-3.896,-3.7764,-3.8242,-3.8931,-3.7734,-3.7943,-3.8751,-3.9709,-3.8781,0.0,-3.9619,-3.911,-3.8272,0.0,0.0,0.0,0.0,0.0,0.0,0.0,0.0,0.0,0.0,0.0,0.0,0.0,0.0,0.0,-4.308,-4.2581,-4.2291,-4.2291,-4.1692,-4.1265,-4.1265,-4.0636,-4.0277,-4.0277,-3.9738,-3.9373,-3.9373,-3.9373,-3.9373,-3.9373,-3.9373,-3.9809,-4.0588,-4.156,-4.2426,-4.3232,-4.4855,-4.5196,-4.4649,-4.5297,-4.6007,-4.6684,-4.6684,-4.6684,-4.6752,-4.753,-4.7327,-4.6786,0.0,-3.3111,-3.3111,-3.3111,-3.2591,-3.2215,-3.2215,-3.2215,-3.2215,-3.2215,-3.3018,-3.352,-3.342,-3.3495,-3.3784,-3.4287,-3.3115,-3.2361,-3.2439,-3.1462,-3.1063,-3.1508,-3.1635,-3.2168,-3.3208,-3.3522,-3.37,-3.37,-3.37,-3.3598,-3.3428,-3.3615,-3.3522,-3.3237,0.0,0.0,0.0,0.0,0.0,-3.2074,-3.387,0.0,-3.8412,-3.8783,-3.925,-3.9814,-4.1178,-4.1484,-4.1383,-4.1838,-4.0891,-3.9576,-3.978,-3.8901,-3.7764,-3.7494,-3.7584,-3.7734,-3.7494,-3.8302,-3.8901,-3.7584,-3.8153,0.0,-3.7524,-3.7434,-3.7614,0.0,0.0,0.0,0.0,0.0,0.0,0.0,0.0,0.0,0.0,0.0,0.0,0.0,0.0,0.0,-4.1773,-4.1654,-4.1602,-4.1602,-4.0965,-4.0606,-4.0606,-3.9978,-3.9619,-3.9619,-3.9499,-3.9373,-3.9373,-3.9373,-3.9373,-3.9373,-3.9373,-3.9481,-3.9702,-4.1295,-4.2077,-4.2363,-4.4081,-4.475,-4.4615,-4.4784,-4.5229,-4.5906,-4.5906,-4.5906,-4.6007,-4.6752,-4.6549,-4.6007,-3.3061,-3.3111,-3.3111,-3.3111,-3.2842,-3.2641,-3.2641,-3.2641,-3.2641,-3.2641,-3.3621,-3.4098,-3.3545,-3.3972,-3.4198,-3.3922,-3.3119,-3.239,-3.1838,-3.1311,-3.1009,-3.1009,-3.126,-3.1788,-3.2616,-3.2943,-3.3111,-3.3111,-3.3111,-3.3111,-3.3111,-3.3111,-3.2918,-3.2616,-3.2064,0.0,0.0,0.0,-3.1436,-3.1612,-3.3822,0.0,-3.6103,-3.7548,-3.8045,-3.8192,-3.9402,-4.0245,-4.078,-4.0998,-4.125,0.0,-3.9824,-3.9619,-3.9679,-3.8691,-3.8631,-3.8841,-3.8512,-3.8901,0.0,-3.8601,-3.8691,0.0,0.0,-3.7434,-3.7045,0.0,0.0,0.0,0.0,0.0,0.0,0.0,0.0,0.0,0.0,0.0,0.0,0.0,0.0,0.0,-4.0876,-4.0606,-4.0247,-3.9918,-3.9888,-3.9918,-3.9918,-3.9553,-3.9373,-3.9373,-3.9373,-3.9373,-3.9373,-3.9373,-3.9373,-3.9373,-3.9373,-3.9373,-3.9445,-4.0758,-4.1593,-4.2045,-4.338,-4.4212,-4.4615,-4.4615,-4.4818,-4.5128,-4.5128,-4.5128,-4.5229,-4.5974,-4.5771,-4.5263,-3.2893,-3.2918,-3.2918,-3.2918,-3.2918,-3.2918,-3.2918,-3.3061,-3.3111,-3.3111,-3.4048,-3.4374,-3.3495,-3.4198,-3.45,-3.3922,-3.3294,-3.2667,-3.2064,-3.1537,-3.111,-3.0783,-3.106,-3.1537,-3.219,-3.2667,-3.2968,-3.3111,-3.3111,-3.3061,-3.2918,-3.2918,-3.2591,-3.2039,0.0,0.0,0.0,0.0,0.0,-3.2089,0.0,-3.458,-3.4399,-3.6182,-3.686,-3.6935,-3.7362,-3.8512,-3.9804,-3.9574,-4.0797,-4.201,-3.9546,-4.0014,0.0,0.0,0.0,0.0,0.0,0.0,0.0,0.0,0.0,-3.914,0.0,0.0,0.0,0.0,0.0,0.0,0.0,0.0,0.0,0.0,0.0,0.0,0.0,0.0,0.0,0.0,0.0,0.0,0.0,-3.9619,-3.8931,-3.8242,-3.8841,-3.923,-3.923,-3.923,-3.929,-3.9373,-3.9373,-3.9373,-3.9373,-3.9373,-3.9373,-3.9373,-3.9373,-3.9373,-3.9445,-4.0481,-4.133,-4.2078,-4.3108,-4.3948,-4.4615,-4.4615,-4.4615,-4.4615,-4.4615,-4.4615,-4.4682,-4.5263,-4.5094,-4.4682,-3.2215,-3.2315,-3.2315,-3.2315,-3.2315,-3.2315,-3.2315,-3.2742,-3.3111,-3.3111,-3.4048,-3.4675,-3.455,-3.465,-3.5253,-3.6609,-3.4022,-3.2893,-3.4248,-3.2064,-3.0884,-3.1286,-3.0909,-3.1185,-3.219,-3.2265,-3.2566,-3.3111,-3.3111,-3.2817,-3.2315,-3.2315,-3.2014,0.0,-3.0934,0.0,0.0,0.0,-3.0633,0.0,-3.2114,-3.3652,0.0,-3.5583,-3.5683,-3.5683,-3.5759,-3.6251,-3.7014,0.0,-3.9093,-3.9325,0.0,-3.917,-3.8153,-3.914,0.0,0.0,0.0,0.0,0.0,0.0,-4.0314,-4.1183,0.0,0.0,-3.7883,-3.6806,0.0,0.0,0.0,0.0,0.0,0.0,0.0,0.0,0.0,0.0,0.0,0.0,0.0,0.0,0.0,-3.8901,-3.8242,-3.7554,-3.8123,-3.8512,-3.8512,-3.8512,-3.8781,-3.9409,-3.9373,-3.9373,-3.9373,-3.9373,-3.9373,-3.9373,-3.9373,-3.9373,-3.9445,-4.1095,-4.1885,-4.2077,-4.3739,-4.4497,-4.4615,-4.4615,-4.4615,-4.4615,-4.4615,-4.4615,-4.4615,-4.4716,-4.4682,-4.4615,-3.1637,-3.1738,-3.1738,-3.1738,-3.1738,-3.1838,-3.2164,-3.2968,-3.3545,-3.3545,-3.4248,-3.4806,0.0,0.0,0.0,-3.6135,0.0,-3.3822,0.0,0.0,-3.1788,-3.234,-3.1838,-3.1913,-3.2692,-3.239,-3.234,-3.2566,-3.2265,-3.1964,-3.1738,-3.1738,-3.1461,0.0,-3.0708,0.0,-3.0482,0.0,-3.0608,0.0,0.0,0.0,0.0,-3.3872,-3.4299,-3.46,-3.46,-3.5359,-3.6399,0.0,-3.7673,0.0,0.0,0.0,0.0,-3.8871,0.0,0.0,0.0,0.0,0.0,0.0,0.0,0.0,-3.8302,0.0,-3.7225,0.0,0.0,0.0,0.0,0.0,0.0,0.0,-3.6956,0.0,0.0,0.0,0.0,0.0,0.0,0.0,0.0,0.0,0.0,0.0,-3.7464,-3.7823,-3.7823,-3.7823,-3.8123,-3.8811,-3.8811,-3.902,-3.9373,-3.9373,-3.9373,-3.9373,-3.9373,-3.9373,-3.9445,-4.0656,-4.1528,-4.2045,-4.329,-4.4121,-4.4615,-4.4615,-4.4615,-4.4615,-4.4615,-4.4615,-4.4615,-4.4615,-4.4615,-4.4615,-3.0884,-3.1085,-3.1185,-3.1185,-3.1286,-3.1637,-3.234,-3.3144,0.0,0.0,0.0,0.0,-3.5433,-3.5759,0.0,0.0,-3.5579,-3.4926,0.0,0.0,-3.2591,-3.2416,-3.229,-3.2265,-3.239,-3.2139,-3.1989,-3.1989,-3.1587,-3.1386,0.0,-3.1235,-3.0984,-3.0608,0.0,-3.0382,-3.0055,0.0,-3.0608,-3.0633,-3.0859,-3.0959,-3.106,-3.219,-3.2867,-3.3219,-3.3395,-3.4324,-3.542,-3.4568,-3.6301,0.0,-3.6225,-3.707,-3.875,0.0,0.0,0.0,-3.8949,0.0,0.0,0.0,0.0,0.0,0.0,0.0,0.0,0.0,0.0,0.0,0.0,0.0,0.0,0.0,0.0,-3.6357,0.0,0.0,0.0,0.0,0.0,0.0,0.0,0.0,0.0,-3.6537,-3.6896,-3.7165,-3.7165,-3.7165,-3.7524,-3.8362,-3.8392,-3.8721,-3.9373,-3.9373,-3.9373,-3.9373,-3.9373,-3.9373,-3.9409,-4.0309,-4.1164,-4.2045,-4.2925,-4.3768,-4.4615,-4.4615,-4.4615,-4.4615,-4.4615,-4.4615,-4.4615,-4.4615,-4.4615,-4.4615,-2.9854,-3.0281,0.0,0.0,0.0,0.0,0.0,0.0,0.0,0.0,0.0,0.0,0.0,0.0,0.0,0.0,0.0,-3.6081,-3.5483,0.0,-3.2918,0.0,0.0,-3.1738,-3.0708,-3.116,-3.1411,-3.1411,-3.1411,-3.1386,0.0,0.0,-3.0633,-3.0608,-3.0608,-3.0608,-3.0583,-3.0608,-3.0608,-3.0583,-3.0055,-2.9854,-2.9955,0.0,-3.1461,-3.1537,-3.2064,0.0,0.0,-3.3661,-3.4854,0.0,0.0,0.0,0.0,0.0,0.0,0.0,0.0,0.0,0.0,-3.8571,0.0,0.0,0.0,0.0,-3.7375,0.0,0.0,0.0,0.0,-3.8751,-3.8512,-3.92,-3.8212,0.0,0.0,0.0,0.0,0.0,0.0,0.0,0.0,0.0,-3.7165,-3.6537,-3.6507,-3.6507,-3.6507,-3.6507,-3.7075,-3.8362,-3.8392,-3.8721,-3.9373,-3.9373,-3.9373,-3.9373,-3.9373,-3.9373,-3.9409,-4.0309,-4.1164,-4.2045,-4.2925,-4.3768,-4.4615,-4.4615,-4.4615,-4.4615,-4.4615,-4.4615,-4.4615,-4.4615,-4.4615,-4.4615,-3.0331,-3.0482,0.0,0.0,0.0,0.0,0.0,-3.3144,0.0,0.0,0.0,0.0,0.0,-3.8843,-3.8919,0.0,0.0,-3.7613,-3.6684,-3.5604,0.0,0.0,0.0,-3.3696,0.0,-3.2416,-3.1763,-3.1386,-3.0683,0.0,0.0,0.0,0.0,-3.008,0.0,-3.0407,0.0,0.0,0.0,0.0,0.0,-3.0005,-3.0331,0.0,-3.0557,-3.0909,-3.1085,-3.1478,0.0,-3.2133,-3.2988,-3.387,-3.3122,-3.4168,-3.561,-3.5408,-3.6237,-3.7321,0.0,0.0,-3.914,-3.8033,0.0,0.0,0.0,0.0,0.0,0.0,0.0,0.0,0.0,-3.7883,-3.7823,-3.8063,-3.7375,-3.6806,0.0,0.0,0.0,0.0,0.0,0.0,0.0,0.0,0.0,-3.5878,-3.5848,-3.5848,-3.5848,-3.5848,-3.6237,-3.7105,-3.7135,-3.7644,-3.8721,-3.8751,-3.896,-3.9373,-3.9373,-3.9373,-3.9409,-4.0309,-4.086,-4.1198,-4.2676,-4.3472,-4.3768,-4.4355,-4.4615,-4.4615,-4.4615,-4.4615,-4.4615,-4.4615,-4.4615,-4.4615,-3.0357,0.0,0.0,0.0,0.0,0.0,0.0,0.0,0.0,0.0,-3.7136,0.0,-3.9747,0.0,-3.9823,0.0,-3.9446,-3.8718,-3.7059,-3.6784,0.0,-3.5273,-3.5077,-3.4505,0.0,0.0,-3.1964,-3.0809,0.0,-3.0256,0.0,0.0,0.0,0.0,0.0,-3.0306,-2.9854,0.0,-3.0608,0.0,0.0,-3.0005,0.0,0.0,-3.0131,-3.0583,0.0,-3.0532,-3.0809,-3.0809,-3.1498,-3.2287,-3.1853,-3.3119,-3.4783,-3.4663,-3.5676,-3.6773,-3.6596,-3.7431,0.0,-3.6877,-3.6985,0.0,-3.6626,0.0,-3.7105,0.0,0.0,0.0,0.0,0.0,-3.7674,-3.7434,-3.6896,-3.6417,0.0,-3.5759,0.0,0.0,0.0,0.0,0.0,0.0,-3.6537,-3.5908,-3.5639,-3.5519,0.0,0.0,-3.5818,-3.6477,-3.6477,-3.6985,-3.8033,-3.8272,-3.8631,-3.905,-3.932,-3.9373,-3.9409,-3.999,-4.0413,-4.0758,-4.1917,-4.2552,-4.2894,-4.3439,-4.368,-4.368,-4.368,-4.368,-4.3739,-4.4384,-4.4615,-4.4559,-2.993,0.0,0.0,0.0,-3.1085,0.0,0.0,0.0,-3.5658,0.0,-3.7914,-3.8994,-3.907,-3.9973,-4.0174,-3.9094,-3.9923,-3.9371,-3.6707,-3.8014,0.0,0.0,-3.4751,-3.4324,-3.1612,0.0,0.0,0.0,0.0,0.0,0.0,0.0,0.0,0.0,-3.0608,0.0,-2.9829,-3.0382,-3.0306,-2.9804,-2.9804,-2.9804,-2.9829,-2.9804,-3.0131,-3.0532,-2.998,-2.9804,-2.9804,-2.9804,-3.0381,-3.113,-3.113,-3.1792,-3.27,-3.3602,-3.3939,-3.4185,-3.4796,-3.5712,-3.6305,-3.5305,-3.6222,0.0,0.0,0.0,-3.8123,0.0,0.0,0.0,0.0,0.0,0.0,-3.7494,-3.6896,-3.6267,-3.5609,0.0,-3.5759,0.0,0.0,0.0,0.0,-3.7375,-3.7105,-3.6477,-3.5848,-3.5519,0.0,0.0,-3.5789,-3.6417,-3.6447,-3.6746,-3.7375,-3.8003,-3.8362,-3.8392,-3.908,-3.9373,-3.9373,-3.9373,-3.9849,-4.0622,-4.069,-4.1164,-4.1917,-4.1949,-4.1949,-4.1949,-4.1949,-4.1981,-4.2237,-4.3885,-4.4559,-4.4412,-3.0507,-3.0708,-3.116,0.0,-3.1562,-3.1763,0.0,0.0,0.0,0.0,-3.8693,-3.9948,-4.1232,-4.1609,-4.1455,-4.0777,-4.0601,0.0,0.0,0.0,0.0,-3.6182,-3.6132,-3.5429,-3.3897,-3.3746,-3.2993,-3.1587,0.0,0.0,-3.0608,0.0,0.0,0.0,0.0,0.0,-2.9829,-3.0382,-3.0306,-2.9804,-2.9804,-3.003,-3.0357,0.0,-3.0131,-3.0532,-2.998,-2.9804,-2.9804,-2.9804,-2.9972,-3.0177,-3.0177,-3.0809,-3.1609,-3.1865,-3.3246,-3.4646,-3.4358,-3.5683,-3.6977,-3.6297,-3.6428,-3.6686,0.0,0.0,0.0,0.0,0.0,0.0,0.0,0.0,0.0,-3.7434,-3.6896,-3.6267,-3.5609,0.0,0.0,-3.6417,0.0,0.0,-3.6716,-3.6716,-3.6447,-3.5818,-3.5609,-3.5519,-3.5519,0.0,0.0,-3.5759,-3.5759,-3.6058,-3.6716,-3.7345,-3.7913,-3.8392,-3.908,-3.9373,-3.9373,-3.9373,-3.9517,-3.9773,-4.0447,-4.0826,-4.1033,-4.1215,-4.1245,-4.1245,-4.1245,-4.1565,-4.2109,-4.3229,-4.3621,-4.368,-3.0708,0.0,0.0,-3.2215,0.0,0.0,-3.3696,-3.4248,0.0,-3.7387,-3.8843,0.0,-4.0704,-4.1207,-4.1229,-4.0676,-4.0325,0.0,-3.8919,0.0,0.0,-3.7211,-3.6707,-3.573,-3.4399,-3.4048,0.0,-3.1863,0.0,0.0,-3.0608,0.0,0.0,0.0,0.0,-3.008,-2.9804,-3.0131,-3.008,-2.9804,-2.9804,-2.998,0.0,-2.9905,-2.998,-3.0206,-2.9905,-2.9804,-2.9804,-2.9804,-2.9804,-2.9856,-3.0266,-3.0771,-3.1352,-3.2164,-3.3445,-3.4473,-3.4128,-3.5238,-3.6376,-3.5621,-3.5971,-3.6477,-3.6477,-3.6686,-3.6806,0.0,-3.6985,-3.7255,0.0,0.0,0.0,0.0,0.0,0.0,0.0,0.0,0.0,0.0,-3.6058,0.0,-3.6058,-3.6327,-3.6207,-3.5549,-3.5759,-3.5818,0.0,0.0,0.0,-3.5519,-3.5789,-3.5968,-3.6058,-3.6956,-3.7464,-3.7554,-3.8512,-3.896,-3.899,-3.929,-3.9373,-3.9409,-3.992,-4.01,-4.0139,-4.0254,-4.03,-4.0269,-3.9991,-4.0084,-4.0526,-4.1406,-4.2168,-4.2863,-3.0909,0.0,0.0,0.0,0.0,0.0,0.0,-3.5357,0.0,-3.7161,0.0,-3.9622,-3.9145,-3.9948,-4.0325,-3.9848,0.0,-3.9371,-3.8944,-3.8793,-3.8265,-3.7236,-3.6631,-3.5504,-3.3922,-3.3822,-3.2993,0.0,-3.1311,-3.106,-3.0608,0.0,0.0,0.0,0.0,0.0,0.0,-2.9804,-2.9804,-2.9804,-2.9804,-2.9804,-2.9804,-2.9804,-2.9804,-2.9804,-2.9804,-2.9804,-2.9804,-2.9804,-2.9804,-2.9934,-3.0771,-3.1007,-3.1341,-3.2975,-3.3533,-3.3636,-3.3636,-3.4442,-3.51,-3.4211,-3.5184,-3.6357,-3.6357,-3.6776,-3.7015,-3.6477,-3.6776,-3.6836,0.0,0.0,0.0,0.0,0.0,0.0,0.0,0.0,0.0,0.0,0.0,0.0,0.0,-3.6058,-3.6118,-3.5549,-3.6028,0.0,0.0,0.0,0.0,-3.5519,-3.6058,-3.6118,-3.5639,-3.6746,-3.7075,-3.6626,-3.7734,-3.8272,-3.8272,-3.896,-3.923,-3.9134,-3.926,-3.923,-3.914,-3.908,-3.902,-3.896,-3.8272,-3.8123,-3.8347,-3.9152,-4.0252,-4.1565,-3.1964,0.0,0.0,0.0,0.0,-3.5027,-3.5931,-3.6533,-3.7136,-3.7789,-3.932,-4.0325,-4.0249,-4.04,-4.0475,-4.0375,-3.9546,0.0,0.0,0.0,0.0,-3.7186,-3.6232,-3.5127,-3.3922,-3.3445,-3.2616,-3.1386,-3.0959,-3.0708,-3.0608,0.0,0.0,0.0,0.0,0.0,-2.9804,-2.9804,0.0,-2.9804,-2.9804,-2.9804,-2.9804,-2.9804,-2.9804,-2.9804,-2.9804,-2.9804,-2.9804,-2.9804,-2.9804,-2.9818,-3.0011,-3.0049,-3.0101,-3.0419,-3.1082,-3.1683,-3.1683,-3.2947,-3.4211,-3.4013,-3.4831,-3.5669,-3.5669,-3.5759,-3.5818,-3.5699,-3.5759,-3.5759,-3.5549,0.0,0.0,0.0,0.0,0.0,0.0,0.0,0.0,0.0,0.0,-3.5729,0.0,0.0,-3.5639,-3.5519,-3.5609,0.0,0.0,0.0,0.0,0.0,-3.5609,0.0,0.0,0.0,-3.6836,-3.7255,-3.7464,-3.7584,-3.7614,-3.8272,-3.8272,-3.7793,-3.8332,-3.8272,-3.7704,-3.7195,-3.7015,-3.6926,-3.6267,-3.6656,-3.7597,-3.7921,-3.8135,-3.8613,0.0,0.0,0.0,0.0,0.0,0.0,0.0,-3.7688,-3.804,-3.8015,-3.8718,-3.922,-3.922,-3.9471,-3.9672,-3.9672,-3.8894,-3.8417,-3.8417,-3.7638,-3.7109,-3.6832,-3.5981,-3.4856,-3.3495,-3.2918,-3.2215,-3.1386,-3.0583,-3.0331,-3.0608,-3.0055,0.0,0.0,0.0,-2.9804,0.0,0.0,0.0,-2.9804,-2.9804,-2.9804,-2.9804,-2.9804,-2.9804,-2.9804,-2.9804,-2.9804,-2.9804,-2.9804,-2.9804,-2.9804,-2.9804,-2.9804,-2.9895,-3.0381,-3.0846,-3.1315,-3.1792,-3.2947,-3.3979,-3.3979,-3.4773,-3.5519,-3.5519,-3.5519,-3.5519,-3.5519,-3.5519,-3.5519,-3.5519,-3.5789,0.0,0.0,0.0,0.0,0.0,0.0,-3.5639,0.0,0.0,0.0,0.0,0.0,0.0,0.0,0.0,-3.5878,-3.5519,0.0,-3.5848,0.0,0.0,0.0,0.0,0.0,0.0,-3.6417,-3.6776,-3.6926,-3.6956,-3.7584,-3.7704,-3.7434,-3.7734,-3.7704,-3.7375,-3.7075,-3.6776,-3.6447,-3.6148,-3.6387,-3.6963,-3.7033,-3.7026,-3.7322,0.0,-3.3596,0.0,0.0,-3.5981,0.0,-3.7588,-3.8241,-3.8567,-3.8241,-3.809,-3.8015,-3.8015,-3.8417,-3.8693,-3.8693,-3.8065,-3.7663,-3.7663,-3.7036,-3.6458,-3.6078,-3.5378,-3.4349,-3.2918,-3.2215,-3.1612,-3.106,-3.0206,-3.0005,-3.0432,-3.0005,0.0,0.0,0.0,0.0,0.0,0.0,-2.9804,-2.9804,-2.9804,-2.9804,-2.9804,-2.9804,-2.9804,-2.9804,-2.9804,-2.9804,-2.9804,-2.9804,-2.9804,-2.9804,-2.9804,-2.9804,-2.9972,-3.0932,-3.1204,-3.1389,-3.2343,-3.329,-3.3979,-3.3979,-3.4773,-3.5519,-3.5519,-3.5519,-3.5519,-3.5519,-3.5519,-3.5519,-3.5519,-3.5938,0.0,0.0,0.0,0.0,0.0,0.0,-3.5519,0.0,0.0,0.0,-3.5519,0.0,0.0,0.0,0.0,-3.6058,-3.5519,-3.5998,-3.6058,0.0,0.0,-3.6088,-3.5729,0.0,-3.6088,-3.5729,-3.6088,-3.6267,-3.6297,-3.6926,-3.7135,-3.7015,-3.7165,-3.7135,-3.7015,-3.7015,-3.6716,-3.6267,-3.6267,-3.6267,-3.6267,-3.6267,-3.6267,-3.6559,0.0,0.0,0.0,0.0,0.0,0.0,-3.6556,-3.7412,-3.8266,-3.8718,-3.8341,-3.8015,-3.8015,-3.8065,-3.809,-3.809,-3.7111,-3.6556,-3.6556,-3.5529,-3.4926,-3.4876,-3.3872,-3.2993,-3.2315,-3.1286,-3.0507,-2.9955,-2.9854,-2.9829,0.0,-2.9804,0.0,0.0,0.0,0.0,0.0,-2.9804,-2.9804,-2.9804,-2.9804,-2.9804,-2.9804,-2.9804,-2.9804,-2.9804,-2.9804,-2.9804,-2.9804,-2.9804,-2.9804,-2.9804,-2.9804,-2.9804,-2.9972,-3.0932,-3.1204,-3.1389,-3.2343,-3.329,-3.3979,-3.3979,-3.4773,-3.5519,-3.5519,-3.5519,-3.5519,-3.5519,-3.5519,-3.5519,-3.5519,-3.5549,-3.5579,0.0,0.0,0.0,0.0,0.0,-3.5519,-3.5519,0.0,0.0,-3.5519,-3.5519,0.0,0.0,-3.5579,-3.5579,-3.5519,-3.5579,-3.5579,-3.5519,-3.5579,-3.5848,-3.6387,-3.5878,-3.5878,-3.6387,-3.5848,-3.5579,-3.5609,-3.6267,-3.6237,-3.5729,-3.6297,-3.6237,-3.5699,-3.5699,-3.5639,-3.5579,-3.5579,-3.5579,-3.5579,-3.5579,-3.5579,-3.5642,0.0,0.0,0.0,0.0,0.0,0.0,0.0,-3.7437,-3.7588,-3.7814,-3.7939,-3.8015,-3.8015,-3.7713,-3.7387,-3.7036,-3.6307,-3.573,-3.5403,-3.4951,-3.4575,-3.4248,-3.3796,-3.2993,-3.1738,-3.1311,-3.0658,0.0,0.0,0.0,-2.9804,0.0,0.0,0.0,0.0,-2.9804,-2.9804,-2.9804,-2.9804,-2.9804,-2.9804,-2.9804,-2.9804,-2.9804,-2.9804,-2.9804,-2.9804,-2.9804,-2.9804,-2.9804,-2.9804,-2.9804,-2.9804,-2.9804,-2.9856,-3.0254,-3.0771,-3.1278,-3.1683,-3.2841,-3.3979,-3.3979,-3.4773,-3.5519,-3.5519,-3.5519,-3.5519,-3.5519,-3.5519,-3.5519,-3.5519,-3.5519,-3.5519,-3.5519,0.0,0.0,0.0,0.0,0.0,-3.5519,0.0,-3.5519,-3.5519,-3.5519,0.0,0.0,0.0,-3.5519,-3.5519,-3.5519,-3.5519,-3.5519,0.0,-3.5639,-3.5908,-3.5639,-3.5639,-3.5908,-3.5639,-3.5519,-3.5519,-3.5789,-3.5759,-3.5519,-3.5789,-3.5759,-3.5519,-3.5519,-3.5519,-3.5519,-3.5519,-3.5519,-3.5519,-3.5519,-3.5519,-3.5554,-3.4881,0.0,-3.5253,0.0,-3.6405,-3.6681,-3.7412,-3.7186,-3.6935,-3.6935,-3.7287,-3.7513,-3.7513,-3.7036,-3.6533,-3.6157,-3.5479,-3.4856,-3.45,-3.4324,-3.3997,-3.342,-3.3244,0.0,-3.1185,-3.1009,-3.0557,-2.9804,-2.9804,0.0,0.0,0.0,0.0,0.0,-2.9804,-2.9804,-2.9804,-2.9804,-2.9804,-2.9804,-2.9804,-2.9804,-2.9804,-2.9804,-2.9804,-2.9804,-2.9804,-2.9804,-2.9804,-2.9804,-2.9804,-2.9804,-2.9804,-3.0011,-3.0292,-3.0533,-3.1304,-3.2119,-3.2407,-3.3429,-3.4442,-3.4442,-3.4971,-3.5519,-3.5519,-3.5519,-3.5519,-3.5519,-3.5519,-3.5519,-3.5519,-3.5519,-3.5519,-3.5519,0.0,0.0,0.0,-3.5519,0.0,-3.5519,-3.5519,-3.5519,-3.5519,-3.5519,0.0,0.0,0.0,-3.5519,-3.5519,-3.5519,-3.5519,0.0,0.0,0.0,-3.5519,-3.5519,-3.5519,-3.5519,-3.5519,-3.5519,-3.5519,-3.5519,-3.5519,-3.5519,-3.5519,-3.5519,-3.5519,-3.5519,-3.5519,-3.5519,-3.5519,-3.5519,-3.5519,-3.5519,-3.5519,-3.5587,-3.5382,-3.5483,-3.5658,-3.6304,-3.6405,-3.6405,-3.643,-3.643,-3.6405,-3.6405,-3.643,-3.643,-3.643,-3.5881,-3.5508,-3.5508,-3.455,-3.3922,-3.3897,-3.3395,-3.2842,0.0,0.0,-3.116,-3.0633,-3.008,-2.9804,-2.9804,0.0,0.0,-2.9804,0.0,-2.9804,-2.9804,-2.9804,-2.9804,-2.9804,-2.9804,-2.9804,-2.9804,-2.9804,-2.9804,-2.9804,-2.9804,-2.9804,-2.9804,-2.9804,-2.9804,-2.9804,-2.9804,-2.9804,-2.9804,-2.9804,-3.0457,-3.1352,-3.2272,-3.3227,-3.4177,-3.5166,-3.5457,-3.5457,-3.5457,-3.5519,-3.5519,-3.5519,-3.5519,-3.5519,-3.5519,-3.5519,-3.5519,-3.5519,-3.5519,-3.5519,-3.5519,0.0,0.0,0.0,-3.5519,0.0,-3.5519,-3.5519,-3.5519,-3.5519,-3.5519,0.0,0.0,0.0,0.0,0.0,0.0,0.0,-3.5519,-3.5519,0.0,-3.5519,-3.5519,-3.5519,-3.5519,-3.5519,-3.5519,-3.5519,-3.5519,-3.5519,-3.5519,-3.5519,-3.5519,-3.5519,-3.5519,-3.5519,-3.5519,-3.5519,-3.5519,-3.5519,-3.5519,-3.5519,-3.5519,-3.6056,-3.6107,-3.6157,-3.638,-3.6405,-3.6405,-3.6405,-3.6405,-3.6279,-3.5855,-3.5805,-3.5655,-3.5278,-3.5382,-3.5207,0.0,-3.4098,-3.3571,0.0,-3.2591,-3.224,-3.1687,-3.1486,-3.116,-3.0633,-3.0432,-3.0181,-2.9804,0.0,0.0,0.0,-2.9804,-2.9804,-2.9804,-2.9804,-2.9804,-2.9804,-2.9804,-2.9804,-2.9804,-2.9804,-2.9804,-2.9804,-2.9804,-2.9804,-2.9804,-2.9804,-2.9804,-2.9804,-2.9804,-2.9804,-2.9895,-3.0545,-3.0533,-3.0305,-3.0608,-3.1378,-3.2307,-3.3255,-3.4007,-3.4643,-3.5326,-3.5519,-3.5519,-3.5519,-3.5519,-3.5519,-3.5519,-3.5519,-3.5519,-3.5519,-3.5519,-3.5519,-3.5519,-3.5519,0.0,-3.5519,0.0,-3.5519,-3.5519,-3.5519,-3.5519,-3.5519,-3.5519,0.0,0.0,0.0,0.0,0.0,0.0,0.0,0.0,-3.5519,0.0,-3.5519,-3.5519,-3.5519,-3.5519,-3.5519,-3.5519,-3.5519,-3.5519,-3.5519,-3.5519,-3.5519,-3.5519,-3.5519,-3.5519,-3.5519,-3.5519,-3.5519,-3.5519,-3.5519,-3.5519,-3.5519,-3.5519,-3.6107,-3.6254,-3.6355,-3.6081,-3.6279,-3.6329,-3.6081,-3.6056,-3.5931,-3.5533,-3.5307,-3.4981,-3.4474,-3.468,0.0,-3.3947,-3.352,-3.2968,-3.2265,-3.2014,-3.1662,-3.111,-3.111,-3.0859,-3.0306,-3.0306,0.0,-2.9804,-2.9804,-2.9804,-2.9804,-2.9804,-2.9804,-2.9804,-2.9804,-2.9804,-2.9804,-2.9804,-2.9804,-2.9804,-2.9804,-2.9804,-2.9804,-2.9804,-2.9804,-2.9804,-2.9804,-2.9804,-2.9804,-2.9804,-2.9804,-2.9895,-3.0495,-3.0266,-3.0011,-3.1071,-3.2046,-3.2939,-3.3533,-3.4109,-3.471,-3.5359,-3.5519,-3.5519,-3.5519,-3.5519,-3.5519,-3.5519,-3.5519,-3.5519,-3.5519,-3.5519,-3.5519,-3.5519,-3.5519,-3.5519,-3.5519,0.0,-3.5519,0.0,0.0,0.0,0.0,-3.5519,-3.5519,0.0,0.0,0.0,0.0,0.0,0.0,-3.5519,-3.5519,-3.5519,-3.5519,-3.5519,-3.5519,-3.5519,-3.5519,-3.5519,-3.5519,-3.5519,-3.5519,-3.5519,-3.5519,-3.5519,-3.5519,-3.5519,-3.5519,-3.5519,-3.5519,-3.5519,-3.5519,-3.5519,-3.5519,-3.5519,-3.5533,-3.5906,-3.6081,0.0,-3.5906,0.0,-3.5533,-3.5433,-3.5433,-3.5382,-3.4931,-3.4449,-3.3897,-3.3847,-3.3822,-3.3796,0.0,0.0,0.0,-3.1687,-3.1135,-3.0583,-3.0557,-3.0306,-2.9804,-2.9804,-2.9804,-2.9804,-2.9804,-2.9804,-2.9804,-2.9804,-2.9804,-2.9804,-2.9804,-2.9804,-2.9804,-2.9804,-2.9804,-2.9804,-2.9804,-2.9804,-2.9804,-2.9804,-2.9804,-2.9804,-2.9804,-2.9804,-2.9804,-2.9804,-2.9804,-2.9804,-2.9856,-2.9934,-3.0457,-3.2975,-3.4409,-3.5228,-3.5294,-3.5359,-3.5392,-3.5457,-3.5519,-3.5519,-3.5519,-3.5519,-3.5519,-3.5519,-3.5519,-3.5519,-3.5519,-3.5519,-3.5519,-3.5519,-3.5519,-3.5519,-3.5519,-3.5519,-3.5519,0.0,0.0,0.0,-3.5519,-3.5519,-3.5519,0.0,0.0,0.0,0.0,0.0,-3.5519,-3.5519,-3.5519,-3.5519,-3.5519,-3.5519,-3.5519,-3.5519,-3.5519,-3.5519,-3.5519,-3.5519,-3.5519,-3.5519,-3.5519,-3.5519,-3.5519,-3.5519,-3.5519,-3.5519,-3.5519,-3.5519,-3.5519,-3.5519,-3.5519,-3.5519,0.0,0.0,-3.5077,-3.4881,-3.5027,-3.5052,-3.4881,-3.4881,-3.4731,-3.4349,-3.4173,-3.3897,-3.3345,-3.3269,-3.3093,-3.2641,-3.2767,-3.2516,-3.1637,-3.1461,-3.0959,-3.003,-2.998,-2.993,-2.9804,-2.9804,-2.9804,-2.9804,-2.9804,-2.9804,-2.9804,-2.9804,-2.9804,-2.9804,-2.9804,-2.9804,-2.9804,-2.9804,-2.9804,-2.9804,-2.9804,-2.9804,-2.9804,-2.9804,-2.9804,-2.9804,-2.9804,-2.9804,-2.9804,-2.9804,-2.9804,-2.9934,-3.062,-3.1352,-3.1792,-3.1033,-3.1489,-3.2371,-3.308,-3.3808,-3.4543,-3.5326,-3.5519,-3.5519,-3.5519,-3.5519,-3.5519,-3.5519,-3.5519,-3.5519,-3.5519,-3.5519,-3.5519,-3.5519,-3.5519,-3.5519,-3.5519,-3.5519,-3.5519,0.0,-3.5519,-3.5519,-3.5519,-3.5519,-3.5519,0.0,0.0,0.0,-3.5519,-3.5519,-3.5519,-3.5519,-3.5519,-3.5519,-3.5519,-3.5519,-3.5519,-3.5519,-3.5519,-3.5519,-3.5519,-3.5519,-3.5519,-3.5519,-3.5519,-3.5519,-3.5519,-3.5519,-3.5519,-3.5519,-3.5519,-3.5519,-3.5519,-3.5519,-3.5519,-3.5519,-3.4399,-3.455,-3.465,-3.4399,-3.455,-3.465,-3.4374,-3.4349,-3.4248,-3.3947,-3.3671,-3.3319,-3.2742,-3.2692,-3.2441,-3.1888,-3.2114,-3.1938,-3.1085,-3.0809,-3.0407,-2.9829,-2.9804,-2.9804,-2.9804,-2.9804,-2.9804,-2.9804,-2.9804,-2.9804,-2.9804,-2.9804,-2.9804,-2.9804,-2.9804,-2.9804,-2.9804,-2.9804,-2.9804,-2.9804,-2.9804,-2.9804,-2.9804,-2.9804,-2.9804,-2.9804,-2.9804,-2.9804,-2.9804,-2.9804,-2.9804,-2.9895,-3.0381,-3.1193,-3.1756,-3.0733,-3.1746,-3.3255,-3.3802,-3.4308,-3.4806,-3.5359,-3.5519,-3.5519,-3.5519,-3.5519,-3.5519,-3.5519,-3.5519,-3.5519,-3.5519,-3.5519,-3.5519,-3.5519,-3.5519,-3.5519,-3.5519,-3.5519,-3.5519,-3.5519,-3.5519,-3.5519,-3.5519,-3.5519,-3.5519,-3.5519,-3.5519,0.0,-3.5519,-3.5519,-3.5519,-3.5519,-3.5519,-3.5519,-3.5519,-3.5519,-3.5519,-3.5519,-3.5519,-3.5519,-3.5519,-3.5519,-3.5519,-3.5519,-3.5519,-3.5519,-3.5519,-3.5519,-3.5519,-3.5519,-3.5519,-3.5519,-3.5519,-3.5519,-3.5519,-3.5519,-3.3872,-3.4148,-3.4324,-3.3847,-3.4173,-3.4324,-3.3847,-3.3771,-3.3746,-3.3646,-3.3244,-3.2717,-3.2139,-3.2089,-3.1863,-3.1311,-3.126,-3.1085,-3.0633,-3.0181,-2.988,-2.9804,-2.9804,-2.9804,-2.9804,-2.9804,-2.9804,-2.9804,-2.9804,-2.9804,-2.9804,-2.9804,-2.9804,-2.9804,-2.9804,-2.9804,-2.9804,-2.9804,-2.9804,-2.9804,-2.9804,-2.9804,-2.9804,-2.9804,-2.9804,-2.9804,-2.9804,-2.9804,-2.9804,-2.9804,-2.9804,-2.9804,-2.9804,-3.0457,-3.1204,-3.1204,-3.3045,-3.51,-3.5261,-3.5392,-3.5519,-3.5519,-3.5519,-3.5519,-3.5519,-3.5519,-3.5519,-3.5519,-3.5519,-3.5519,-3.5519,-3.5519,-3.5519,-3.5519,-3.5519,-3.5519,-3.5519,0.0,-3.5519,-3.5519,-3.5519,-3.5519,-3.5519,-3.5519,-3.5519,-3.5519,-3.5519,-3.5519,-3.5519,-3.5519,-3.5519,-3.5519,-3.5519,-3.5519,-3.5519,-3.5519,-3.5519,-3.5519,-3.5519,-3.5519,-3.5519,-3.5519,-3.5519,-3.5519,-3.5519,-3.5519,-3.5519,-3.5519,-3.5519,-3.5519,-3.5519,-3.5519,-3.5519,-3.5519,-3.5519,-3.5519,-3.3219,-3.3269,-3.3294,-3.3262,-3.3269,-3.3294,-3.3262,-3.3194,-3.3018,-3.2541,-3.239,-3.2139,-3.1587,-3.1512,-3.1311,-3.0783,-3.0733,-3.0708,-3.0633,-3.0532,-3.0281,-2.9804,-2.9804,-2.9804,-2.9804,-2.9804,-2.9804,-2.9804,-2.9804,-2.9804,-2.9804,-2.9804,-2.9804,-2.9804,-2.9804,-2.9804,-2.9804,-2.9804,-2.9804,-2.9804,-2.9804,-2.9804,-2.9804,-2.9804,-2.9804,-2.9804,-2.9804,-2.9804,-2.9804,-2.9804,-2.9804,-2.9804,-2.9804,-3.0457,-3.1204,-3.1204,-3.2083,-3.322,-3.4041,-3.4839,-3.5519,-3.5519,-3.5519,-3.5519,-3.5519,-3.5519,-3.5519,-3.5519,-3.5519,-3.5519,-3.5519,-3.5519,-3.5519,-3.5519,-3.5519,-3.5519,-3.5519,0.0,-3.5519,-3.5519,-3.5519,-3.5519,-3.5519,-3.5519,-3.5519,-3.5519,-3.5519,-3.5519,-3.5519,-3.5519,-3.5519,-3.5519,-3.5519,-3.5519,-3.5519,-3.5519,-3.5519,-3.5519,-3.5519,-3.5519,-3.5519,-3.5519,-3.5519,-3.5519,-3.5519,-3.5519,-3.5519,-3.5519,-3.5519,-3.5519,-3.5519,-3.5519,-3.5519,-3.5519,-3.5519,-3.5519,-3.3061,-3.3111,-3.3111,-3.3111,-3.3111,-3.3111,-3.3111,-3.3111,-3.2867,-3.229,-3.2215,-3.1888,-3.106,-3.0984,-3.0758,-3.0231,-3.0181,-3.0181,-3.0181,-3.0181,-3.0055,-2.9804,-2.9804,-2.9804,-2.9804,-2.9804,-2.9804,-2.9804,-2.9804,-2.9804,-2.9804,-2.9804,-2.9804,-2.9804,-2.9804,-2.9804,-2.9804,-2.9804,-2.9804,-2.9804,-2.9804,-2.9804,-2.9804,-2.9804,-2.9804,-2.9804,-2.9804,-2.9804,-2.9804,-2.9804,-2.9804,-2.9895,-3.0381,-3.1193,-3.2055,-3.2558,-3.3017,-3.3463,-3.3876,-3.471,-3.5519,-3.5519,-3.5519,-3.5519,-3.5519,-3.5519,-3.5519,-3.5519,-3.5519,-3.5519,-3.5519,-3.5519,-3.5519,-3.5519,-3.5519,0.0,-3.5519,-3.5519,-3.5519,-3.5519,-3.5519,-3.5519,-3.5519,-3.5519,-3.5519,-3.5519,-3.5519,-3.5519,-3.5519,-3.5519,-3.5519,-3.5519,-3.5519,-3.5519,-3.5519,-3.5519,-3.5519,-3.5519,-3.5519,-3.5519,-3.5519,-3.5519,-3.5519,-3.5519,-3.5519,-3.5519,-3.5519,-3.5519,-3.5519,-3.5519,-3.5519,-3.5519,-3.5519,-3.5519,-3.5519,-3.5519,-3.2591,-3.2692,-3.2717,-3.2842,-3.2867,-3.2867,-3.2867,-3.2867,-3.2616,-3.1938,-3.1838,-3.1486,-3.0532,-3.0432,-3.0256,-2.9829,-2.9804,-2.9804,-2.9804,-2.9804,-2.9804,-2.9804,-2.9804,-2.9804,-2.9804,-2.9804,-2.9804,-2.9804,-2.9804,-2.9804,-2.9804,-2.9804,-2.9804,-2.9804,-2.9804,-2.9804,-2.9804,-2.9804,-2.9804,-2.9804,-2.9804,-2.9804,-2.9804,-2.9804,-2.9804,-2.9804,-2.9804,-2.9804,-2.9804,-2.9804,-2.9804,-2.9934,-3.0658,-3.1352,-3.2083,-3.2834,-3.3325,-3.3774,-3.4245,-3.4905,-3.5519,-3.5519,-3.5519,-3.5519,-3.5519,-3.5519,-3.5519,-3.5519,-3.5519,-3.5519,-3.5519,-3.5519,-3.5519,-3.5519,0.0,-3.5519,-3.5519,-3.5519,-3.5519,-3.5519,-3.5519,-3.5519,-3.5519,-3.5519,-3.5519,-3.5519,-3.5519,-3.5519,-3.5519,-3.5519,-3.5519,-3.5519,-3.5519,-3.5519,-3.5519,-3.5519,-3.5519,-3.5519,-3.5519,-3.5519,-3.5519,-3.5519,-3.5519,-3.5519,-3.5519,-3.5519,-3.5519,-3.5519,-3.5519,-3.5519,-3.5519,-3.5519,-3.5519,-3.5519,-3.5519,-3.5519,-3.1512,-3.1512,-3.1662,-3.219,-3.2265,-3.2265,-3.2265,-3.2265,-3.1913,-3.0859,-3.0733,-3.0507,-2.9905,-2.9854,-2.9829,-2.9804,-2.9804,-2.9804,-2.9804,-2.9804,-2.9804,-2.9804,-2.9804,-2.9804,-2.9804,-2.9804,-2.9804,-2.9804,-2.9804,-2.9804,-2.9804,-2.9804,-2.9804,-2.9804,-2.9804,-2.9804,-2.9804,-2.9804,-2.9804,-2.9804,-2.9804,-2.9804,-2.9804,-2.9804,-2.9804,-2.9804,-2.9804,-2.9804,-2.9804,-2.9804,-2.9804,-2.9804,-2.9895,-2.9934,-3.0011,-3.0062,-3.1341,-3.3115,-3.4902,-3.5424,-3.5519,-3.5519,-3.5519,-3.5519,-3.5519,-3.5519,-3.5519,-3.5519,-3.5519,-3.5519,-3.5519,-3.5519,-3.5519,-3.5519,0.0,0.0,-3.5519,-3.5519,-3.5519,-3.5519,-3.5519,-3.5519,-3.5519,-3.5519,-3.5519,-3.5519,-3.5519,-3.5519,-3.5519,-3.5519,-3.5519,-3.5519,-3.5519,-3.5519,-3.5519,-3.5519,-3.5519,-3.5519,-3.5519,-3.5519,-3.5519,-3.5519,-3.5519,-3.5519,-3.5519,-3.5519,-3.5519,-3.5519,-3.5519,-3.5519,-3.5519,-3.5519,-3.5519,-3.5519,-3.5519,-3.5519,-3.1336,-3.1386,-3.1461,-3.1662,-3.1712,-3.1712,-3.1712,-3.1712,-3.1436,-3.0708,-3.0608,-3.0407,-2.9854,-2.9804,-2.9804,-2.9804,-2.9804,-2.9804,-2.9804,-2.9804,-2.9804,-2.9804,-2.9804,-2.9804,-2.9804,-2.9804,-2.9804,-2.9804,-2.9804,-2.9804,-2.9804,-2.9804,-2.9804,-2.9804,-2.9804,-2.9804,-2.9804,-2.9804,-2.9804,-2.9804,-2.9804,-2.9804,-2.9804,-2.9804,-2.9804,-2.9804,-2.9804,-2.9804,-2.9804,-2.9804,-2.9804,-3.0011,-3.1156,-3.1563,-3.1756,-3.2967,-3.3837,-3.4572,-3.5294,-3.5519,-3.5519,-3.5519,-3.5519,-3.5519,-3.5519,-3.5519,-3.5519,-3.5519,-3.5519,-3.5519,-3.5519,-3.5519,-3.5519,-3.5519,0.0,-3.5519,-3.5519,-3.5519,-3.5519,-3.5519,-3.5519,-3.5519,-3.5519,-3.5519,-3.5519,-3.5519,-3.5519,-3.5519,-3.5519,-3.5519,-3.5519,-3.5519,-3.5519,-3.5519,-3.5519,-3.5519,-3.5519,-3.5519,-3.5519,-3.5519,-3.5519,-3.5519,-3.5519,-3.5519,-3.5519,-3.5519,-3.5519,-3.5519,-3.5519,-3.5519,-3.5519,-3.5519,-3.5519,-3.5519,-3.5519,-3.5519,-3.0809,-3.0884,-3.0934,-3.111,-3.116,-3.116,-3.116,-3.116,-3.0959,-3.0432,-3.0357,-3.0206,-2.9829,-2.9804,-2.9804,-2.9804,-2.9804,-2.9804,-2.9804,-2.9804,-2.9804,-2.9804,-2.9804,-2.9704,-2.9528,-2.9528,-2.9528,-2.9528,-2.9528,-2.9603,-2.9804,-2.9804,-2.9804,-2.9804,-2.9804,-2.9804,-2.9804,-2.9804,-2.9804,-2.9804,-2.9804,-2.9804,-2.9804,-2.9804,-2.9804,-2.9804,-2.9804,-2.9804,-2.9804,-2.9804,-2.9804,-3.0011,-3.1304,-3.1938,-3.2451,-3.4109,-3.4806,-3.5034,-3.5034,-3.5231,-3.5519,-3.5519,-3.5519,-3.5519,-3.5519,-3.5519,-3.5519,-3.5519,-3.5519,-3.5519,-3.5519,-3.5519,-3.5519,-3.5519,-3.5519,-3.5519,-3.5519,-3.5519,-3.5519,-3.5519,-3.5519,-3.5519,-3.5519,-3.5519,-3.5519,-3.5519,-3.5519,-3.5519,-3.5519,-3.5519,-3.5519,-3.5519,-3.5519,-3.5519,-3.5519,-3.5519,-3.5519,-3.5519,-3.5519,-3.5519,-3.5519,-3.5519,-3.5519,-3.5519,-3.5519,-3.5519,-3.5519,-3.5519,-3.5519,-3.5519,-3.5519,-3.5519,-3.5519,-3.5519,-3.5519,-3.5519,-2.9804,-2.9804,-2.9955,-3.0507,-3.0608,-3.0608,-3.0608,-3.0608,-3.0407,-2.9854,-2.9804,-2.9804,-2.9804,-2.9804,-2.9804,-2.9804,-2.9804,-2.9804,-2.9804,-2.9804,-2.9804,-2.9804,-2.9804,-2.9528,-2.8913,-2.8888,-2.8888,-2.8888,-2.8888,-2.9227,-2.9779,-2.9779,-2.9779,-2.9779,-2.9779,-2.9779,-2.9779,-2.9804,-2.9804,-2.9804,-2.9804,-2.9804,-2.9804,-2.9804,-2.9804,-2.9804,-2.9804,-2.9804,-2.9804,-2.9804,-2.9804,-2.9804,-2.9804,-3.0457,-3.1389,-3.2307,-3.3262,-3.3979,-3.3979,-3.4739,-3.5457,-3.5519,-3.5519,-3.5519,-3.5519,-3.5519,-3.5519,-3.5519,-3.5519,-3.5519,-3.5519,-3.5519,-3.5519,-3.5519,-3.5519,-3.5519,-3.5519,-3.5519,-3.5519,-3.5519,-3.5519,-3.5519,-3.5519,-3.5519,-3.5519,-3.5519,-3.5519,-3.5519,-3.5519,-3.5519,-3.5519,-3.5519,-3.5519,-3.5519,-3.5519,-3.5519,-3.5519,-3.5519,-3.5519,-3.5519,-3.5519,-3.5519,-3.5519,-3.5519,-3.5519,-3.5519,-3.5519,-3.5519,-3.5519,-3.5519,-3.5519,-3.5519,-3.5519,-3.5519,-3.5519,-3.5519,-2.9804,-2.9804,-2.9854,-3.0005,-3.003,-3.003,-3.003,-3.003,-2.998,-2.9804,-2.9804,-2.9804,-2.9804,-2.9804,-2.9804,-2.9804,-2.9804,-2.9804,-2.9804,-2.9804,-2.9804,-2.9804,-2.9804,-2.9704,-2.9553,-2.9126,-2.8888,-2.8888,-2.8512,-2.8448,-2.8624,-2.8624,-2.8624,-2.8624,-2.9026,-2.9176,-2.9227,-2.9628,-2.9804,-2.9804,-2.9804,-2.9804,-2.9804,-2.9804,-2.9804,-2.9804,-2.9804,-2.9804,-2.9804,-2.9804,-2.9804,-2.9895,-3.0545,-3.1426,-3.2236,-3.2522,-3.2806,-3.3017,-3.3017,-3.3255,-3.3802,-3.5133,-3.5519,-3.5519,-3.5519,-3.5519,-3.5519,-3.5519,-3.5519,-3.5519,-3.5519,-3.5519,-3.5519,-3.5519,-3.5519,-3.5519,-3.5519,-3.5519,-3.5519,-3.5519,-3.5519,-3.5519,-3.5519,-3.5519,-3.5519,-3.5519,-3.5519,-3.5519,-3.5519,-3.5519,-3.5519,-3.5519,-3.5519,-3.5519,-3.5519,-3.5519,-3.5519,-3.5519,-3.5519,-3.5519,-3.5519,-3.5519,-3.5519,-3.5519,-3.5519,-3.5519,-3.5519,-3.5519,-3.5519,-3.5519,-3.5519,-3.5519,-3.5519,-3.5519,-3.5519,-3.5554,-2.9804,-2.9804,-2.9804,-2.9804,-2.9804,-2.9804,-2.9804,-2.9804,-2.9804,-2.9804,-2.9804,-2.9804,-2.9804,-2.9804,-2.9804,-2.9804,-2.9804,-2.9804,-2.9804,-2.9578,-2.9553,-2.9779,-2.9352,-2.9227,-2.9453,-2.89,-2.8662,-2.8888,-2.8147,-2.7996,-2.8423,-2.8197,-2.8097,-2.8122,-2.8637,-2.8888,-2.8913,-2.9302,-2.9578,-2.9779,-2.9553,-2.9578,-2.9804,-2.9804,-2.9804,-2.9804,-2.9804,-2.9804,-2.9804,-2.9804,-2.9804,-3.0049,-3.1341,-3.2128,-3.2735,-3.3498,-3.3463,-3.3255,-3.3636,-3.3463,-3.3533,-3.51,-3.5198,-3.4905,-3.4905,-3.5198,-3.5519,-3.5519,-3.5519,-3.5519,-3.5519,-3.5519,-3.5519,-3.5519,-3.5519,-3.5519,-3.5519,-3.5519,-3.5519,-3.5519,-3.5519,-3.5519,-3.5519,-3.5519,-3.5519,-3.5519,-3.5519,-3.5519,-3.5519,-3.5519,-3.5519,-3.5519,-3.5519,-3.5519,-3.5519,-3.5519,-3.5519,-3.5519,-3.5519,-3.5519,-3.5519,-3.5519,-3.5519,-3.5519,-3.5519,-3.5519,-3.5519,-3.5519,-3.5519,-3.5519,-3.5519,-3.5519,-3.5552,-3.5846,-3.5943,-3.6038,-2.9804,-2.9804,-2.9804,-2.9804,-2.9804,-2.9804,-2.9804,-2.9804,-2.9804,-2.9804,-2.9804,-2.9804,-2.9804,-2.9804,-2.9804,-2.9804,-2.9754,-2.9704,-2.9704,-2.9176,-2.9126,-2.9679,-2.8674,-2.8398,-2.8963,-2.8373,-2.8273,-2.8737,-2.772,-2.772,-2.8662,-2.8197,-2.7971,-2.7971,-2.8524,-2.8737,-2.8737,-2.8838,-2.9227,-2.9679,-2.9202,-2.9327,-2.9779,-2.9729,-2.9704,-2.9704,-2.9704,-2.9704,-2.9729,-2.9779,-2.9754,-3.005,-3.1765,-3.2343,-3.2727,-3.4471,-3.4341,-3.3808,-3.4739,-3.4341,-3.3842,-3.4872,-3.4476,-3.391,-3.4081,-3.4773,-3.5392,-3.5457,-3.5424,-3.5392,-3.5457,-3.5519,-3.5519,-3.5519,-3.5519,-3.5519,-3.5519,-3.5519,-3.5519,-3.5519,-3.5519,-3.5519,-3.5519,-3.5519,-3.5519,-3.5519,-3.5519,-3.5519,-3.5519,-3.5519,-3.5519,-3.5519,-3.5519,-3.5519,-3.5519,-3.5519,-3.5519,-3.5519,-3.5519,-3.5519,-3.5519,-3.5519,-3.5519,-3.5519,-3.5519,-3.5519,-3.5519,-3.5519,-3.5519,-3.5519,-3.5519,-3.5519,-3.5587,-3.6259,-3.6508,-3.6631,-2.9804,-2.9804,-2.9804,-2.9804,-2.9804,-2.9804,-2.9804,-2.9804,-2.9804,-2.9804,-2.9804,-2.9804,-2.9804,-2.9804,-2.9804,-2.9804,-2.9377,-2.9088,-2.9088,-2.8599,-2.8524,-2.9063,-2.8473,-2.8574,-2.9578,-2.8197,-2.7519,-2.7645,-2.7002,-2.6801,-2.7027,-2.6901,-2.6851,-2.6876,-2.7394,-2.7645,-2.7695,-2.8549,-2.8963,-2.9113,-2.9478,-2.9679,-2.9754,-2.9302,-2.9088,-2.9088,-2.9088,-2.9088,-2.9176,-2.9628,-2.9503,-2.9252,-3.0139,-3.0381,-3.0495,-3.091,-3.0872,-3.0759,-3.0985,-3.0872,-3.0921,-3.1901,-3.2522,-3.3325,-3.4839,-3.471,-3.4543,-3.5359,-3.4872,-3.4576,-3.5359,-3.5519,-3.5519,-3.5519,-3.5519,-3.5519,-3.5519,-3.5519,-3.5519,-3.5519,-3.5519,-3.5519,-3.5519,-3.5519,-3.5519,-3.5519,-3.5519,-3.5519,-3.5519,-3.5519,-3.5519,-3.5519,-3.5519,-3.5519,-3.5519,-3.5519,-3.5519,-3.5519,-3.5519,-3.5519,-3.5519,-3.5519,-3.5519,-3.5519,-3.5519,-3.5519,-3.5519,-3.5519,-3.5519,-3.5519,-3.5519,-3.5519,-3.5522,-3.5683,-3.5718,-3.5941,-2.9804,-2.9804,-2.9804,-2.9804,-2.9804,-2.9804,-2.9804,-2.9804,-2.9804,-2.9804,-2.9804,-2.9804,-2.9804,-2.9804,-2.9804,-2.9804,-2.9528,-2.9352,-2.9352,-2.8574,-2.8348,-2.8863,-2.8147,-2.7996,-2.8574,-2.7745,-2.7544,-2.8072,-2.7278,-2.6876,-2.6876,-2.6625,-2.6499,-2.6524,-2.7077,-2.7293,-2.7318,-2.7896,-2.8298,-2.8512,-2.8574,-2.875,-2.895,-2.8649,-2.8524,-2.8524,-2.8524,-2.8524,-2.8624,-2.9202,-2.9176,-2.9101,-3.0125,-3.0495,-3.057,-3.0996,-3.0809,-3.057,-3.1033,-3.1145,-3.1267,-3.1756,-3.2558,-3.3533,-3.4543,-3.4773,-3.4872,-3.5392,-3.51,-3.4872,-3.5392,-3.5519,-3.5519,-3.5519,-3.5519,-3.5519,-3.5519,-3.5519,-3.5519,-3.5519,-3.5519,-3.5519,-3.5519,-3.5519,-3.5519,-3.5519,-3.5519,-3.5519,-3.5519,-3.5519,-3.5519,-3.5519,-3.5519,-3.5519,-3.5519,-3.5519,-3.5519,-3.5519,-3.5519,-3.5519,-3.5519,-3.5519,-3.5519,-3.5519,-3.5519,-3.5519,-3.5519,-3.5519,-3.5519,-3.5519,-3.5519,-3.5519,-3.5587,-3.6321,-3.7055,-3.7819,-2.9804,-2.9804,-2.9804,-2.9804,-2.9804,-2.9804,-2.9804,-2.9804,-2.9804,-2.9804,-2.9804,-2.9804,-2.9804,-2.9804,-2.9804,-2.9804,-2.9603,-2.9503,-2.9503,-2.8448,-2.8072,-2.8587,-2.767,-2.7243,-2.7419,-2.7344,-2.7695,-2.8499,-2.7595,-2.7178,-2.7178,-2.67,-2.6499,-2.6524,-2.6977,-2.7178,-2.7178,-2.7278,-2.7544,-2.7921,-2.757,-2.7695,-2.8097,-2.7996,-2.7971,-2.7971,-2.7971,-2.7971,-2.8072,-2.8825,-2.8913,-2.9013,-3.05,-3.097,-3.1119,-3.1901,-3.1573,-3.1119,-3.1901,-3.2119,-3.2155,-3.2307,-3.2947,-3.3567,-3.3705,-3.4279,-3.4806,-3.4968,-3.4902,-3.4806,-3.4968,-3.5133,-3.5231,-3.5231,-3.5392,-3.5519,-3.5519,-3.5519,-3.5519,-3.5519,-3.5519,-3.5519,-3.5519,-3.5519,-3.5519,-3.5519,-3.5519,-3.5519,-3.5519,-3.5519,-3.5519,-3.5519,-3.5519,-3.5519,-3.5519,-3.5519,-3.5519,-3.5519,-3.5519,-3.5519,-3.5519,-3.5519,-3.5519,-3.5519,-3.5519,-3.5519,-3.5519,-3.5519,-3.5519,-3.5519,-3.5519,-3.5519,-3.5683,-3.7086,-3.8469,-3.9714,-2.9804,-2.9804,-2.9804,-2.9804,-2.9804,-2.9804,-2.9804,-2.9804,-2.9804,-2.9804,-2.9804,-2.9804,-2.9804,-2.9804,-2.9804,-2.9804,-2.89,-2.8323,-2.8323,-2.7329,-2.6977,-2.7469,-2.6927,-2.7052,-2.7971,-2.7519,-2.7153,-2.6826,-2.6675,-2.66,-2.66,-2.6524,-2.6499,-2.6499,-2.6575,-2.66,-2.6625,-2.7102,-2.7318,-2.7419,-2.7821,-2.8047,-2.8047,-2.757,-2.7394,-2.7394,-2.7394,-2.7394,-2.762,-2.9151,-2.9026,-2.8435,-2.9606,-3.0011,-3.0011,-3.0139,-3.0062,-3.0011,-3.0139,-3.0177,-3.0343,-3.1193,-3.1499,-3.1792,-3.2593,-3.2272,-3.201,-3.2806,-3.2371,-3.2046,-3.2841,-3.3671,-3.4211,-3.4211,-3.4938,-3.5519,-3.5519,-3.5519,-3.5519,-3.5519,-3.5519,-3.5519,-3.5519,-3.5519,-3.5519,-3.5519,-3.5519,-3.5519,-3.5519,-3.5519,-3.5519,-3.5519,-3.5519,-3.5519,-3.5519,-3.5519,-3.5519,-3.5519,-3.5519,-3.5519,-3.5519,-3.5519,-3.5519,-3.5519,-3.5519,-3.5519,-3.5519,-3.5519,-3.5519,-3.5519,-3.5519,-3.5519,-3.5619,-3.6446,-3.7322,-3.8222,-2.9804,-2.9804,-2.9804,-2.9804,-2.9804,-2.9804,-2.9804,-2.9804,-2.9804,-2.9804,-2.9804,-2.9804,-2.9804,-2.9804,-2.9654,-2.9327,-2.885,-2.8423,-2.8122,-2.7645,-2.7379,-2.7293,-2.7344,-2.7318,-2.7228,-2.7278,-2.7052,-2.6499,-2.6801,-2.6801,-2.6499,-2.6499,-2.6499,-2.6499,-2.6499,-2.6499,-2.6524,-2.6751,-2.6851,-2.6876,-2.7128,-2.7228,-2.7203,-2.6952,-2.6851,-2.6851,-2.6851,-2.6851,-2.7027,-2.8047,-2.8047,-2.7846,-2.895,-2.9302,-2.9377,-2.9704,-2.9804,-2.9804,-2.9804,-3.0177,-3.057,-3.0457,-3.0809,-3.1193,-3.1071,-3.0696,-3.097,-3.2975,-3.3052,-3.308,-3.4041,-3.4543,-3.4839,-3.4839,-3.5198,-3.5519,-3.5519,-3.5519,-3.5519,-3.5519,-3.5519,-3.5519,-3.5519,-3.5519,-3.5519,-3.5519,-3.5519,-3.5519,-3.5519,-3.5519,-3.5519,-3.5519,-3.5519,-3.5519,-3.5519,-3.5519,-3.5519,-3.5519,-3.5519,-3.5519,-3.5519,-3.5519,-3.5519,-3.5519,-3.5519,-3.5519,-3.5519,-3.5519,-3.5519,-3.5519,-3.5519,-3.6037,-3.6845,-3.7175,-3.8048,-3.9129]},{"header":{"parameterUnit":"m.s-1","parameterCategory":1,"la1":30.6,"la2":28.766,"lo1":-90.7593,"lo2":-88.6598,"dy":0.0162,"dx":0.0183,"nx":116,"ny":114,"refTime":"2023-06-09T06:00:00:Z","depth":0,"parameterNumber":3,"parameterNumberName":"V-component_of_WINDS"},"data":[0.0,0.0,0.0,0.0,0.0,0.0,0.0,0.0,0.0,0.0,0.0,0.0,0.0,0.0,0.0,0.0,0.0,0.0,0.0,0.0,0.0,0.0,0.0,0.0,0.0,0.0,0.0,0.0,0.0,0.0,0.0,0.0,0.0,0.0,0.0,0.0,0.0,0.0,0.0,0.0,0.0,0.0,0.0,0.0,0.0,0.0,0.0,0.0,0.0,0.0,0.0,0.0,0.0,0.0,0.0,0.0,0.0,0.0,0.0,0.0,0.0,0.0,0.0,0.0,0.0,0.0,0.0,0.0,0.0,0.0,0.0,0.0,0.0,0.0,0.0,0.0,0.0,0.0,0.0,0.0,0.0,0.0,0.0,0.0,0.0,0.0,0.0,0.0,0.0,0.0,0.0,0.0,0.0,0.0,0.0,0.0,0.0,0.0,0.0,0.0,0.0,0.0,0.0,0.0,0.0,0.0,0.0,0.0,0.0,0.0,0.0,0.0,0.0,0.0,0.0,0.0,0.0,0.0,0.0,0.0,0.0,0.0,0.0,0.0,0.0,0.0,0.0,0.0,0.0,0.0,0.0,0.0,0.0,0.0,0.0,0.0,0.0,0.0,0.0,0.0,0.0,0.0,0.0,0.0,0.0,0.0,0.0,0.0,0.0,0.0,0.0,0.0,0.0,0.0,0.0,0.0,0.0,0.0,0.0,0.0,0.0,0.0,0.0,0.0,0.0,0.0,0.0,0.0,0.0,0.0,0.0,0.0,0.0,0.0,0.0,0.0,0.0,0.0,0.0,0.0,0.0,0.0,0.0,0.0,0.0,0.0,0.0,0.0,0.0,0.0,0.0,0.0,0.0,0.0,0.0,0.0,0.0,0.0,0.0,0.0,0.0,0.0,0.0,0.0,0.0,0.0,0.0,0.0,0.0,0.0,0.0,0.0,0.0,0.0,0.0,0.0,0.0,0.0,0.0,0.0,0.0,0.0,0.0,0.0,0.0,0.0,0.0,0.0,0.0,0.0,0.0,0.0,0.0,0.0,0.0,0.0,0.0,0.0,0.0,0.0,0.0,0.0,0.0,0.0,0.0,0.0,0.0,0.0,0.0,0.0,0.0,0.0,0.0,0.0,0.0,0.0,0.0,0.0,0.0,0.0,0.0,0.0,0.0,0.0,0.0,0.0,0.0,0.0,0.0,0.0,0.0,0.0,0.0,0.0,0.0,0.0,0.0,0.0,0.0,0.0,0.0,0.0,0.0,0.0,0.0,0.0,0.0,0.0,0.0,0.0,0.0,0.0,0.0,0.0,0.0,0.0,0.0,0.0,0.0,0.0,0.0,0.0,0.0,0.0,0.0,0.0,0.0,0.0,0.0,0.0,0.0,0.0,0.0,0.0,0.0,0.0,0.0,0.0,0.0,0.0,0.0,0.0,0.0,0.0,0.0,0.0,0.0,0.0,0.0,0.0,0.0,0.0,0.0,0.0,0.0,0.0,0.0,0.0,0.0,0.0,0.0,0.0,0.0,0.0,0.0,0.0,0.0,0.0,0.0,0.0,0.0,0.0,0.0,0.0,0.0,0.0,0.0,0.0,0.0,0.0,0.0,0.0,0.0,0.0,0.0,0.0,0.0,0.0,0.0,0.0,0.0,0.0,0.0,0.0,0.0,0.0,0.0,0.0,0.0,0.0,0.0,0.0,0.0,0.0,0.0,0.0,0.0,0.0,0.0,0.0,0.0,0.0,0.0,0.0,0.0,0.0,0.0,0.0,0.0,0.0,0.0,0.0,0.0,0.0,0.0,0.0,0.0,0.0,0.0,0.0,0.0,0.0,0.0,0.0,0.0,0.0,0.0,0.0,0.0,0.0,0.0,0.0,0.0,0.0,0.0,0.0,0.0,0.0,0.0,0.0,0.0,0.0,0.0,0.0,0.0,0.0,0.0,0.0,0.0,0.0,0.0,0.0,0.0,0.0,0.0,0.0,0.0,0.0,0.0,0.0,0.0,0.0,0.0,0.0,0.0,0.0,0.0,0.0,0.0,0.0,0.0,0.0,0.0,0.0,0.0,0.0,0.0,0.0,0.0,0.0,0.0,0.0,0.0,0.0,0.0,0.0,0.0,0.0,0.0,0.0,0.0,0.0,0.0,0.0,0.0,0.0,0.0,0.0,0.0,0.0,0.0,0.0,0.0,0.0,0.0,0.0,0.0,0.0,0.0,0.0,0.0,0.0,0.0,0.0,0.0,0.0,0.0,0.0,0.0,0.0,0.0,0.0,0.0,0.0,0.0,0.0,0.0,0.0,0.0,0.0,0.0,0.0,0.0,0.0,0.0,0.0,0.0,0.0,0.0,0.0,0.0,0.0,0.0,0.0,0.0,0.0,0.0,0.0,0.0,0.0,0.0,0.0,0.0,0.0,0.0,0.0,0.0,0.0,0.0,0.0,0.0,0.0,0.0,0.0,0.0,0.0,0.0,0.0,0.0,0.0,0.0,0.0,0.0,0.0,0.0,0.0,0.0,0.0,0.0,0.0,0.0,0.0,0.0,0.0,0.0,0.0,0.0,0.0,0.0,0.0,0.0,0.0,0.0,0.0,0.0,0.0,0.0,0.0,0.0,0.0,0.0,0.0,0.0,0.0,0.0,0.0,0.0,0.0,0.0,0.0,0.0,0.0,0.0,0.0,0.0,0.0,0.0,0.0,0.0,0.0,0.0,0.0,0.0,0.0,0.0,0.0,0.0,0.0,0.0,0.0,0.0,0.0,0.0,0.0,0.0,0.0,0.0,0.0,0.0,0.0,0.0,0.0,0.0,0.0,0.0,0.0,0.0,0.0,0.0,0.0,0.0,0.0,0.0,0.0,0.0,0.0,0.0,0.0,0.0,0.0,0.0,0.0,0.0,0.0,0.0,0.0,0.0,0.0,0.0,0.0,0.0,0.0,0.0,0.0,0.0,0.0,0.0,0.0,0.0,0.0,0.0,0.0,0.0,0.0,0.0,0.0,0.0,0.0,0.0,0.0,0.0,0.0,0.0,0.0,0.0,0.0,0.0,0.0,0.0,0.0,0.0,0.0,0.0,0.0,0.0,0.0,0.0,0.0,0.0,0.0,0.0,0.0,0.0,0.0,0.0,0.0,0.0,0.0,0.0,0.0,0.0,0.0,0.0,0.0,0.0,0.0,0.0,0.0,0.0,0.0,0.0,0.0,0.0,0.0,0.0,0.0,0.0,0.0,0.0,0.0,0.0,0.0,0.0,0.0,0.0,0.0,0.0,0.0,0.0,0.0,0.0,0.0,0.0,0.0,0.0,0.0,0.0,0.0,0.0,0.0,0.0,0.0,0.0,0.0,0.0,0.0,0.0,0.0,0.0,0.0,0.0,0.0,0.0,0.0,0.0,0.0,0.0,0.0,0.0,0.0,0.0,0.0,0.0,0.0,0.0,0.0,0.0,0.0,0.0,0.0,0.0,0.0,0.0,0.0,0.0,0.0,0.0,0.0,0.0,0.0,0.0,0.0,0.0,0.0,0.0,0.0,0.0,0.0,0.0,0.0,0.0,0.0,0.0,0.0,0.0,0.0,0.0,0.0,0.0,0.0,0.0,0.0,0.0,0.0,0.0,0.0,0.0,0.0,0.0,0.0,0.0,0.0,0.0,0.0,0.0,0.0,0.0,0.0,0.0,0.0,0.0,0.0,0.0,0.0,0.0,0.0,0.0,0.0,0.0,0.0,0.0,0.0,0.0,0.0,0.0,0.0,0.0,0.0,0.0,0.0,0.0,0.0,0.0,0.0,0.0,0.0,0.0,0.0,0.0,0.0,0.0,0.0,0.0,0.0,0.0,0.0,0.0,0.0,0.0,0.0,0.0,0.0,0.0,0.0,0.0,0.0,0.0,0.0,0.0,0.0,0.0,0.0,0.0,0.0,0.0,0.0,0.0,0.0,0.0,0.0,0.0,0.0,0.0,0.0,0.0,0.0,0.0,0.0,0.0,0.0,0.0,0.0,0.0,0.0,0.0,0.0,0.0,0.0,0.0,0.0,0.0,0.0,0.0,0.0,0.0,0.0,0.0,0.0,0.0,0.0,0.0,0.0,0.0,0.0,0.0,0.0,0.0,0.0,0.0,0.0,0.0,0.0,0.0,0.0,0.0,0.0,0.0,0.0,0.0,0.0,0.0,0.0,0.0,0.0,0.0,0.0,0.0,0.0,0.0,0.0,0.0,0.0,0.0,0.0,0.0,0.0,0.0,0.0,0.0,0.0,0.0,0.0,0.0,0.0,0.0,0.0,0.0,0.0,0.0,0.0,0.0,0.0,0.0,0.0,0.0,0.0,0.0,0.0,0.0,0.0,0.0,0.0,0.0,0.0,0.0,0.0,0.0,0.0,0.0,0.0,0.0,0.0,0.0,0.0,0.0,0.0,0.0,0.0,0.0,0.0,0.0,0.0,0.0,0.0,0.0,0.0,0.0,0.0,0.0,0.0,0.0,0.0,0.0,0.0,0.0,0.0,0.0,0.0,0.0,0.0,0.0,0.0,0.0,0.0,0.0,0.0,0.0,0.0,0.0,0.0,0.0,0.0,0.0,0.0,0.0,0.0,0.0,0.0,0.0,0.0,0.0,0.0,0.0,0.0,0.0,0.0,0.0,0.0,0.0,0.0,0.0,0.0,0.0,0.0,0.0,0.0,0.0,0.0,0.0,0.0,0.0,0.0,0.0,0.0,0.0,0.0,0.0,0.0,0.0,0.0,0.0,0.0,0.0,0.0,0.0,0.0,0.0,0.0,0.0,0.0,0.0,0.0,0.0,0.0,0.0,0.0,0.0,0.0,0.0,0.0,0.0,0.0,0.0,0.0,0.0,0.0,0.0,0.0,0.0,0.0,0.0,0.0,0.0,0.0,0.0,0.0,0.0,0.0,0.0,0.0,0.0,0.0,0.0,0.0,0.0,0.0,0.0,0.0,0.0,0.0,0.0,0.0,0.0,0.0,0.0,0.0,0.0,0.0,0.0,0.0,0.0,0.0,0.0,0.0,0.0,0.0,0.0,0.0,0.0,0.0,0.0,0.0,0.0,0.0,0.0,0.0,0.0,0.0,0.0,0.0,0.0,0.0,0.0,0.0,0.0,0.0,0.0,0.0,0.0,0.0,0.0,0.0,0.0,0.0,0.0,0.0,0.0,0.0,0.0,0.0,0.0,0.0,0.0,0.0,0.0,0.0,0.0,0.0,0.0,0.0,0.0,0.0,0.0,0.0,0.0,0.0,0.0,0.0,0.0,0.0,0.0,0.0,0.0,0.0,0.0,0.0,0.0,0.0,0.0,0.0,0.0,0.0,0.0,0.0,0.0,0.0,0.0,0.0,0.0,0.0,0.0,0.0,0.0,0.0,0.0,0.0,0.0,0.0,0.0,0.0,0.0,0.0,0.0,0.0,0.0,0.0,0.0,0.0,0.0,0.0,0.0,0.0,0.0,0.0,0.0,0.0,0.0,0.0,0.0,0.0,0.0,0.0,0.0,0.0,0.0,0.0,0.0,0.0,0.0,0.0,0.0,0.0,0.0,0.0,0.0,0.0,0.0,0.0,0.0,0.0,0.0,0.0,0.0,0.0,0.0,0.0,0.0,0.0,0.0,0.0,0.0,0.0,0.0,0.0,0.0,0.0,0.0,0.0,0.0,0.0,0.0,0.0,0.0,0.0,0.0,0.0,0.0,0.0,0.0,0.0,0.0,0.0,0.0,0.0,0.0,0.0,0.0,0.0,0.0,0.0,0.0,0.0,0.0,0.0,0.0,0.0,0.0,0.0,0.0,0.0,0.0,0.0,0.0,0.0,0.0,0.0,0.0,0.0,0.0,0.0,0.0,0.0,0.0,0.0,0.0,0.0,0.0,0.0,0.0,0.0,0.0,0.0,0.0,0.0,0.0,0.0,0.0,0.0,0.0,0.0,0.0,0.0,0.0,0.0,0.0,0.0,0.0,0.0,0.0,0.0,0.0,0.0,0.0,0.0,0.0,0.0,0.0,0.0,0.0,0.0,0.0,0.0,0.0,0.0,0.0,0.0,0.0,0.0,0.0,0.0,0.0,0.0,0.0,0.0,0.0,0.0,0.0,0.0,0.0,0.0,-2.1657,-2.1521,0.0,0.0,0.0,0.0,0.0,0.0,0.0,0.0,0.0,0.0,0.0,0.0,0.0,0.0,0.0,0.0,0.0,0.0,0.0,0.0,0.0,0.0,0.0,0.0,0.0,0.0,0.0,0.0,0.0,0.0,0.0,0.0,0.0,0.0,0.0,0.0,0.0,0.0,-3.6405,-3.6531,-3.6807,-3.7036,-3.616,-3.4385,0.0,0.0,0.0,0.0,0.0,0.0,0.0,0.0,0.0,0.0,0.0,0.0,0.0,0.0,0.0,0.0,0.0,0.0,0.0,0.0,0.0,0.0,0.0,0.0,0.0,0.0,0.0,0.0,0.0,0.0,0.0,0.0,0.0,0.0,0.0,0.0,0.0,0.0,0.0,0.0,0.0,0.0,0.0,0.0,0.0,0.0,0.0,0.0,0.0,0.0,0.0,0.0,0.0,0.0,0.0,0.0,0.0,0.0,0.0,0.0,0.0,0.0,0.0,0.0,0.0,0.0,0.0,0.0,0.0,0.0,-2.2405,-2.1964,0.0,0.0,0.0,0.0,0.0,0.0,0.0,0.0,0.0,0.0,0.0,0.0,0.0,0.0,0.0,0.0,0.0,0.0,0.0,0.0,0.0,0.0,0.0,0.0,0.0,0.0,0.0,0.0,0.0,0.0,0.0,0.0,0.0,0.0,0.0,0.0,0.0,-3.6405,-3.6707,-3.7184,-3.7789,-3.8316,-3.7543,-3.5643,-3.6278,0.0,0.0,0.0,0.0,0.0,0.0,0.0,0.0,0.0,0.0,0.0,0.0,0.0,0.0,0.0,0.0,0.0,0.0,0.0,0.0,0.0,0.0,0.0,0.0,0.0,0.0,0.0,0.0,0.0,0.0,0.0,0.0,0.0,0.0,0.0,0.0,0.0,0.0,0.0,0.0,0.0,0.0,0.0,0.0,0.0,0.0,0.0,0.0,0.0,0.0,0.0,0.0,0.0,0.0,0.0,0.0,0.0,0.0,0.0,0.0,0.0,0.0,0.0,-2.4529,-2.481,-2.4943,-2.4997,-2.505,-2.5024,-2.3741,-2.3046,-2.2779,-2.2378,0.0,0.0,0.0,0.0,0.0,0.0,0.0,0.0,0.0,0.0,0.0,0.0,0.0,0.0,0.0,0.0,0.0,0.0,0.0,0.0,0.0,0.0,-3.6405,-3.6405,-3.6405,-3.6405,0.0,0.0,0.0,0.0,0.0,0.0,0.0,-3.6405,-3.6405,-3.6405,-3.7863,-3.9069,-4.0099,-4.0598,-4.0721,-4.0312,-3.8091,-3.7466,-3.7864,0.0,0.0,0.0,0.0,0.0,0.0,0.0,0.0,0.0,0.0,0.0,0.0,0.0,0.0,0.0,0.0,0.0,0.0,0.0,0.0,0.0,0.0,0.0,0.0,0.0,0.0,0.0,0.0,0.0,0.0,0.0,0.0,0.0,0.0,0.0,0.0,0.0,0.0,0.0,0.0,0.0,-2.012,-2.012,0.0,0.0,0.0,0.0,0.0,0.0,0.0,0.0,0.0,0.0,0.0,0.0,0.0,-2.4035,-2.4289,-2.517,-2.5504,-2.5291,-2.636,-2.6613,-2.6172,-2.6413,-2.668,-2.6894,-2.644,0.0,-2.4289,-2.3487,0.0,0.0,0.0,0.0,0.0,0.0,0.0,0.0,0.0,0.0,0.0,0.0,0.0,0.0,0.0,0.0,0.0,0.0,0.0,0.0,0.0,-3.6958,-3.7287,-3.7287,-3.8442,-3.8617,-3.7362,0.0,0.0,0.0,0.0,0.0,0.0,-3.6405,-3.7033,-3.8241,-3.995,-4.1279,-4.2384,-4.2936,-4.3011,-4.266,-4.1455,-4.0149,-3.8793,-3.7122,0.0,0.0,0.0,0.0,0.0,0.0,0.0,0.0,0.0,0.0,0.0,0.0,0.0,0.0,0.0,0.0,0.0,0.0,0.0,0.0,0.0,0.0,0.0,0.0,0.0,0.0,0.0,0.0,0.0,0.0,0.0,0.0,0.0,0.0,0.0,0.0,0.0,0.0,0.0,-2.0254,-2.0601,-2.0207,-2.0668,-2.0775,0.0,0.0,0.0,0.0,0.0,0.0,0.0,0.0,0.0,-2.4543,-2.5277,-2.5812,-2.6106,-2.7001,-2.7455,-2.7509,-2.819,-2.847,-2.8377,-2.8511,-2.8631,-2.8738,-2.8444,-2.7856,-2.6974,-2.5264,-2.4182,-2.3527,0.0,0.0,0.0,0.0,-2.5063,-2.6393,0.0,0.0,0.0,0.0,0.0,0.0,0.0,0.0,0.0,0.0,0.0,0.0,-3.7483,-3.8211,-3.8969,-3.9753,-4.0736,-4.0573,-3.8969,0.0,0.0,0.0,0.0,0.0,0.0,-3.6958,-3.8316,-4.0526,-4.2238,-4.3564,-4.4669,-4.5196,-4.5246,-4.4844,-4.4719,-4.3037,-4.0275,-3.9145,-3.7939,-3.6686,0.0,0.0,0.0,0.0,0.0,0.0,0.0,0.0,0.0,0.0,0.0,0.0,0.0,0.0,0.0,0.0,0.0,0.0,0.0,0.0,0.0,0.0,0.0,0.0,0.0,0.0,0.0,0.0,0.0,0.0,0.0,0.0,0.0,0.0,0.0,0.0,0.0,-2.0802,-2.1203,-2.0535,-2.1577,-2.1937,0.0,0.0,0.0,0.0,0.0,0.0,-2.4516,-2.5384,-2.6066,-2.652,-2.7308,-2.7869,-2.8163,-2.8911,-2.9352,-2.9486,-2.978,-3.0007,-3.014,-3.014,-3.014,-3.0127,-2.9833,-2.9539,-2.9085,-2.6787,-2.5424,-2.469,-2.3955,-2.4344,-2.552,-2.6523,-2.7911,-2.9629,0.0,0.0,0.0,0.0,0.0,0.0,0.0,0.0,0.0,0.0,0.0,0.0,-4.0574,-4.0593,-4.1561,-4.4599,-4.2669,-4.1225,-4.1125,-3.8743,-3.7262,0.0,0.0,0.0,0.0,0.0,-4.0601,-4.2811,-4.4493,-4.5874,-4.6979,-4.7506,-4.7732,-4.7682,-4.7179,-4.5999,-4.4166,-4.1505,-4.035,-4.0074,-3.7914,0.0,0.0,0.0,0.0,0.0,0.0,0.0,0.0,0.0,0.0,0.0,0.0,0.0,0.0,0.0,0.0,0.0,0.0,0.0,0.0,0.0,0.0,0.0,0.0,0.0,0.0,0.0,0.0,0.0,0.0,0.0,0.0,0.0,0.0,0.0,0.0,0.0,0.0,-2.1162,-2.3086,0.0,0.0,0.0,0.0,-2.4462,-2.5037,-2.5758,-2.6627,-2.7509,-2.839,-2.9259,-2.9873,-3.0327,-3.0608,-3.0929,-3.0955,-3.0715,-3.0996,-3.0996,-3.0755,-3.0755,-3.0755,-3.0728,-3.0448,-3.014,-2.9713,-2.7615,-2.6573,-2.6172,-2.501,-2.4556,-2.4937,-2.7335,-2.8246,-2.8966,0.0,0.0,0.0,0.0,0.0,0.0,0.0,0.0,0.0,0.0,0.0,0.0,0.0,-4.4662,-4.6572,-4.7469,-4.7039,-4.5623,-4.3067,-4.1003,-3.9396,0.0,0.0,0.0,0.0,0.0,-4.3062,-4.5648,-4.6954,-4.8159,-4.9238,-4.9063,-4.8987,-4.8987,-4.8786,-4.8184,-4.7054,-4.3589,-4.1279,-3.9823,-3.7939,-3.6533,0.0,0.0,0.0,0.0,0.0,0.0,0.0,0.0,0.0,0.0,0.0,0.0,0.0,0.0,0.0,0.0,0.0,0.0,0.0,0.0,0.0,0.0,0.0,0.0,0.0,0.0,0.0,0.0,0.0,0.0,0.0,0.0,0.0,0.0,0.0,0.0,0.0,-2.3941,-2.5518,0.0,-2.5344,-2.5464,-2.5892,-2.656,-2.7161,-2.7883,-2.8764,-2.9646,-3.0354,-3.0875,-3.1276,-3.1623,-3.1917,-3.2024,-3.2024,-3.1917,-3.1824,-3.173,-3.1623,-3.1436,-3.1356,-3.1343,-3.1049,-3.0755,-3.0394,-2.9272,-2.819,-2.7175,-2.656,-2.6859,-2.7664,-2.889,-3.0985,-3.3528,0.0,0.0,0.0,0.0,0.0,0.0,0.0,0.0,0.0,0.0,0.0,-4.3665,-4.5056,-4.8409,-5.0933,-5.1665,-5.1092,-4.9116,-4.5391,-4.2872,-4.0592,0.0,-3.8216,0.0,0.0,-4.3237,-4.5372,-4.738,-4.8686,-4.9615,-5.0142,-4.9967,-4.9766,-4.9615,-4.9992,-4.9741,-4.8887,-4.6301,-4.384,-4.148,-3.9421,-3.8266,-3.7538,0.0,0.0,0.0,0.0,0.0,0.0,0.0,0.0,0.0,0.0,0.0,0.0,0.0,0.0,0.0,0.0,0.0,0.0,0.0,0.0,0.0,0.0,0.0,0.0,0.0,0.0,0.0,0.0,0.0,0.0,0.0,0.0,0.0,0.0,-2.3794,-2.5331,-2.5625,-2.7482,-2.839,-2.7509,-2.7696,-2.8123,-2.8698,-2.9299,-2.998,-3.0755,-3.145,-3.1957,-3.2251,-3.2438,-3.2639,-3.2839,-3.2839,-3.2786,-3.2692,-3.2492,-3.2291,-3.2091,-3.1904,-3.1704,-3.1517,-3.1316,-3.1009,-3.0621,-3.0221,-2.9366,-2.8257,-2.7869,-2.8207,-2.8956,-3.004,-3.2554,-3.5832,0.0,0.0,0.0,0.0,0.0,0.0,0.0,0.0,0.0,0.0,-4.1579,-4.5439,-4.9184,-5.1714,-5.4373,-5.7369,-5.4683,-5.1366,-4.808,-4.4094,-4.0746,0.0,0.0,0.0,-4.2338,-4.5522,-4.7456,-4.8033,-4.9665,-5.0193,-4.9665,-5.0193,-5.0142,-4.9665,-5.0795,-5.067,-4.964,-4.964,-4.8109,-4.5422,-4.261,-4.1731,-4.1861,0.0,0.0,0.0,0.0,0.0,0.0,0.0,0.0,0.0,0.0,0.0,0.0,0.0,0.0,0.0,0.0,0.0,0.0,0.0,0.0,0.0,0.0,0.0,0.0,0.0,0.0,0.0,0.0,0.0,0.0,0.0,0.0,0.0,-2.2795,-2.4796,-2.6373,-2.6224,-2.8925,-3.0314,-2.8898,-3.0034,-3.0875,-3.0889,-3.1396,-3.1971,-3.267,-3.2853,-3.3133,-3.3414,-3.3414,-3.3414,-3.3414,-3.3414,-3.3267,-3.2986,-3.2973,-3.2666,-3.2118,-3.2104,-3.1784,-3.1236,-3.1223,-3.0902,-3.0381,-3.0368,-3.0007,-2.9419,-2.8845,-2.8516,-2.8571,-3.0676,-3.2858,-3.5379,0.0,0.0,0.0,0.0,0.0,0.0,0.0,0.0,0.0,0.0,-4.5483,-4.9256,-5.1352,-5.5528,-5.8368,-5.8924,-5.6165,-5.2907,-4.9364,-4.4481,0.0,0.0,0.0,0.0,-4.5698,-4.7456,-4.9188,-5.0946,-5.1423,-5.1373,-5.082,-5.0971,-5.0745,-5.0218,-5.0946,-5.1122,-5.082,-5.082,-5.0393,-4.9364,-4.5799,-4.3463,-4.1986,0.0,0.0,0.0,0.0,0.0,0.0,0.0,0.0,0.0,0.0,0.0,0.0,0.0,0.0,0.0,0.0,0.0,0.0,0.0,0.0,0.0,0.0,0.0,0.0,0.0,0.0,0.0,0.0,0.0,0.0,0.0,-2.8488,-2.8687,-2.5439,-2.672,-2.8444,-2.9633,-3.1316,-3.2305,-3.2104,-3.2265,-3.2559,-3.3,-3.2772,-3.2973,-3.3788,-3.3494,-3.344,-3.3748,-3.3534,-3.3414,-3.3414,-3.3414,-3.3374,-3.3293,-3.2866,-3.2585,-3.2412,-3.1984,-3.1704,-3.153,-3.1316,-3.1022,-3.0662,-3.0448,-2.9887,-2.9152,-2.8978,-2.9642,-3.0898,-3.1233,-3.3757,-3.7419,0.0,0.0,0.0,0.0,0.0,0.0,0.0,0.0,0.0,0.0,-4.7066,-5.0828,-5.2573,-5.6637,-5.9165,-5.892,-5.6368,-5.3013,-4.8921,0.0,0.0,0.0,0.0,-4.502,-4.7405,-4.9238,-5.0695,-5.1749,-5.2,-5.1825,-5.1297,-5.1523,-5.1322,-5.082,-5.1624,-5.185,-5.1649,-5.1875,-5.1975,-5.1749,-4.9264,-4.7054,-4.5053,-4.2409,-4.0802,-3.9798,-3.8542,-3.8417,-3.8768,-3.7788,0.0,0.0,0.0,0.0,0.0,0.0,0.0,0.0,0.0,0.0,0.0,0.0,0.0,0.0,0.0,0.0,0.0,0.0,0.0,0.0,0.0,0.0,0.0,0.0,-3.2503,-3.3238,-3.1163,-3.0965,-3.1173,-3.1517,-3.2639,-3.3427,-3.3587,-3.3574,-3.3681,-3.4042,-3.3734,-3.3721,-3.4122,-3.3801,-3.3627,-3.3681,-3.3507,-3.3414,-3.3414,-3.3414,-3.3414,-3.3414,-3.3066,-3.2786,-3.2629,-3.2198,-3.1904,-3.1664,-3.149,-3.1169,-3.0782,-3.0608,-3.002,0.0,0.0,0.0,0.0,0.0,-3.4408,-3.7002,0.0,0.0,0.0,0.0,0.0,0.0,0.0,0.0,0.0,0.0,0.0,-5.081,-5.2665,-5.5807,-5.7782,-5.7782,-5.5388,-5.2002,0.0,0.0,0.0,-4.1875,-4.4827,-4.7029,-4.8159,-5.077,-5.19,-5.1473,-5.195,-5.1925,-5.1398,-5.195,-5.19,-5.1423,-5.2477,-5.2653,-5.2226,-5.2729,-5.2929,-5.2879,-5.2402,-5.1197,-4.9289,-4.5648,-4.4141,-4.3714,-4.1555,-4.0199,-3.9396,-3.9145,0.0,0.0,0.0,0.0,0.0,0.0,0.0,0.0,0.0,0.0,0.0,0.0,0.0,0.0,0.0,0.0,0.0,0.0,0.0,0.0,0.0,0.0,0.0,0.0,-3.6631,-3.8051,-3.8283,-3.6706,-3.478,-3.29,-3.3724,-3.424,-3.3988,-3.4215,-3.4389,-3.4416,-3.4362,-3.4229,-3.4002,0.0,0.0,0.0,0.0,-3.3414,-3.3414,-3.3414,-3.3414,-3.3414,-3.3374,-3.308,-3.2643,-3.2519,-3.2198,-3.1664,-3.1637,-3.1303,-3.0782,-3.0715,-3.0181,-2.9352,-2.9346,-2.9145,-2.9453,-3.3512,-3.5218,-3.596,0.0,0.0,0.0,0.0,0.0,0.0,0.0,0.0,0.0,-4.379,-4.7179,-4.9793,-5.0674,-5.3773,-5.5748,-5.5748,-5.3324,-5.0342,0.0,0.0,-4.4609,-4.5776,-4.6934,-4.8335,-4.9891,-5.1348,-5.2277,-5.2603,-5.2703,-5.2477,-5.195,-5.2503,-5.2477,-5.1975,-5.2628,-5.2879,-5.2779,-5.2879,-5.2929,-5.2929,-5.2804,-5.1749,-5.0017,-4.7908,-4.6301,-4.492,-4.3137,-4.266,-4.2585,-4.0802,-4.0576,-4.0805,-3.912,-3.809,0.0,0.0,0.0,0.0,0.0,0.0,0.0,0.0,0.0,0.0,0.0,0.0,0.0,0.0,0.0,0.0,0.0,0.0,0.0,-3.8448,-4.0896,-4.2394,-4.2121,-4.2267,-4.0922,-3.6758,-3.6934,-3.662,-3.477,-3.4643,-3.4776,-3.5004,-3.4589,-3.4402,-3.4589,-3.4148,-3.3855,-3.3801,-3.3547,-3.3414,-3.3414,-3.3414,-3.3414,-3.3414,0.0,0.0,-3.2629,-3.2291,-3.1998,-3.165,-3.141,-3.1116,-3.0755,-3.0287,-2.9566,-2.8937,-3.0609,-3.2153,-3.3757,-3.6362,-3.839,-4.0021,0.0,0.0,0.0,0.0,0.0,0.0,0.0,0.0,0.0,0.0,-4.6352,-4.8177,-4.9164,-5.102,-5.2097,-5.1768,-4.9284,0.0,0.0,-4.5797,-4.6568,-4.8515,-4.9234,-5.0117,-5.1247,-5.2076,-5.2653,-5.2929,-5.2929,-5.2779,-5.2528,-5.2804,-5.2779,-5.2528,-5.2804,-5.2929,-5.2929,-5.2929,-5.2929,-5.2929,-5.2929,-5.2251,-5.1122,-4.969,-4.8309,-4.6903,-4.5246,-4.4292,-4.3589,-4.2208,-4.1756,-4.1505,-4.0124,-3.9295,-3.8693,0.0,0.0,0.0,0.0,0.0,0.0,0.0,0.0,0.0,0.0,0.0,0.0,0.0,0.0,-3.3574,0.0,0.0,-3.8789,-4.1387,-4.3594,-4.5077,-4.5276,-4.6088,-4.484,-4.0124,-3.9944,-3.9311,-3.7048,-3.6909,-3.6572,-3.5283,-3.4923,-3.4696,-3.4549,-3.4269,-3.3961,-3.3654,-3.3494,-3.3414,-3.3414,-3.3414,-3.3414,-3.34,-3.4365,-3.4631,-3.4417,-3.5317,-3.5637,-3.5323,-3.4887,-3.3934,-3.2492,-3.1558,-3.0721,-3.0396,-3.244,-3.252,-3.1805,-3.5056,-3.7002,-3.8231,0.0,0.0,0.0,0.0,0.0,0.0,0.0,0.0,0.0,0.0,-4.5263,-4.6471,-4.7429,-4.8207,-4.8327,0.0,0.0,0.0,0.0,-4.7038,-4.8627,-5.097,-5.1639,-5.2025,-5.2101,-5.2653,-5.2929,-5.2929,-5.2929,-5.2929,-5.2929,-5.2929,-5.2929,-5.2929,-5.2929,-5.2929,-5.2929,-5.2929,-5.2929,-5.2929,-5.2929,-5.2603,-5.1975,-5.0845,-4.9741,-4.856,-4.7029,-4.5246,-4.3564,-4.3137,-4.2233,-4.12,-4.0802,-4.0375,-3.9772,-3.8542,-3.6991,0.0,0.0,0.0,0.0,0.0,0.0,0.0,0.0,-3.1309,-3.2148,-3.3516,-3.4551,-3.5898,-3.8144,-3.9473,-4.1055,-4.3672,-4.5469,-4.6816,-4.7598,-4.8379,-4.7477,-4.3703,-4.3041,-4.203,-3.9928,-3.9354,-3.8486,-3.6921,-3.5809,-3.5173,-3.5123,-3.4644,-3.4068,-3.3521,-3.344,-3.36,-3.4186,-3.36,-3.36,-3.4186,-3.5796,-3.6431,-3.6295,-3.8318,-3.9132,-3.8861,-3.8325,-3.6827,-3.4677,-3.3431,-3.2731,-3.2502,-3.4115,-3.2546,-2.9941,-3.3839,-3.5621,-3.6442,0.0,0.0,0.0,0.0,0.0,0.0,0.0,0.0,0.0,0.0,0.0,0.0,0.0,0.0,0.0,0.0,0.0,0.0,-4.8716,-5.0316,-5.195,-5.3672,-5.4063,-5.3567,-5.2101,-5.2653,-5.2929,-5.2929,-5.2929,-5.2929,-5.2929,-5.2929,-5.2929,-5.2929,-5.2929,-5.2929,-5.2929,-5.2929,-5.2929,-5.2929,-5.2929,-5.2603,-5.1975,-5.0845,-4.9741,-4.8611,-4.7456,-4.5321,-4.3062,-4.3011,-4.2233,-4.1275,-4.12,-4.115,-4.0852,-3.9245,-3.6648,-3.3928,-3.265,-3.0748,-2.9498,-3.0781,-3.123,-3.2012,0.0,0.0,-3.5351,-3.7012,-3.8359,-3.957,-4.0625,-4.2461,-4.418,-4.5273,-4.6562,-4.7598,-4.8066,-4.8555,-4.8838,-4.8684,-4.6529,-4.4533,-4.2968,-4.0286,-3.976,-4.2184,-3.795,-3.6064,-3.8134,-3.5753,-3.4175,-3.3841,-3.3561,-3.4485,-3.6805,-3.4571,-3.4585,-3.682,-3.6675,-3.6431,-3.628,-3.8063,-3.8663,-3.8375,-3.77,-3.6834,-3.5991,-3.5502,-3.4997,-3.4392,-3.4587,-3.4408,-3.4246,-3.6682,-3.8803,-4.0509,0.0,0.0,0.0,0.0,0.0,0.0,0.0,0.0,0.0,0.0,0.0,0.0,0.0,0.0,0.0,0.0,0.0,0.0,-4.8536,-5.0017,-5.1988,-5.4566,-5.3959,-5.3275,-5.2578,-5.2804,-5.2929,-5.2929,-5.2929,-5.2929,-5.2929,-5.2929,-5.2929,-5.2929,-5.2929,-5.2929,-5.2929,-5.2929,-5.2929,-5.2929,-5.2929,-5.2402,-5.1498,-5.0368,-4.8661,-4.6702,-4.5598,-4.3815,0.0,-4.1279,-4.0978,-4.0799,-4.0799,-4.0799,-4.0601,-3.927,-3.713,-3.4688,-3.2564,-3.1223,-3.0664,-3.166,-3.2637,-3.3906,-3.5937,-3.6641,-3.7363,-3.9082,-4.0469,-4.1621,-4.248,-4.4023,-4.541,0.0,-4.7266,-4.8086,-4.8535,-4.8535,-4.8555,-4.873,-4.7577,-4.6296,-4.5049,-4.3937,-4.3057,-4.2591,-4.0857,-4.0143,-4.0711,-3.9551,-3.8735,-3.8501,-3.8151,-3.8441,-3.9593,-3.8539,-3.8441,-3.9609,-4.0371,-4.0668,-4.0594,-4.2119,-4.2284,-4.1323,-3.9715,-3.8487,-3.7548,-3.7292,-3.6992,-3.6682,-3.7993,-3.8469,-3.8469,-3.8054,-3.8469,-3.9415,0.0,0.0,0.0,0.0,0.0,0.0,0.0,0.0,0.0,0.0,0.0,0.0,0.0,0.0,0.0,0.0,0.0,0.0,0.0,-4.9538,-5.1572,-5.4121,-5.3904,-5.3426,-5.2703,-5.2854,-5.2929,-5.2929,-5.2929,-5.2929,-5.2929,-5.2929,-5.2929,-5.2929,-5.2929,-5.2929,-5.2929,-5.2929,-5.2929,-5.2904,-5.2754,-5.2026,-5.0896,-4.9464,-4.7205,-4.4669,-4.3689,-4.2082,-4.0275,-3.932,-3.917,-3.9396,-3.9546,-3.9697,-3.9595,-3.8264,-3.6264,-3.3993,-3.1939,-3.1529,-3.1914,-3.2832,-3.4434,-3.6113,-3.7441,-3.8379,-3.9414,-4.0918,-4.2051,-4.3008,-4.375,-4.4961,-4.6094,-4.6816,-4.7656,-4.832,-4.8633,-4.8203,-4.7812,-4.7695,-4.7207,-4.6703,-4.6241,-4.6156,-4.5664,-4.4327,-4.3422,-4.299,-4.3248,-4.2442,-4.1981,-4.1717,-4.1434,-4.1524,-4.2195,-4.1424,-4.1374,-4.2138,-4.3085,-4.3558,-4.3595,-4.4766,-4.4668,-4.3433,-4.1628,-4.0316,-3.9394,-3.9314,-3.9074,-3.8961,-4.0588,-4.1172,-4.0997,-3.9243,-3.8619,-3.8836,0.0,0.0,0.0,0.0,0.0,0.0,0.0,0.0,0.0,0.0,0.0,0.0,0.0,0.0,0.0,0.0,0.0,0.0,0.0,-4.9761,-5.1482,-5.2251,-5.4638,-5.4697,-5.2169,-5.2653,-5.2929,-5.2929,-5.2929,-5.2929,-5.2929,-5.2929,-5.2929,-5.2929,-5.2929,-5.2929,-5.2929,-5.2929,-5.2929,-5.2879,-5.2352,-5.1448,-5.0218,-4.8033,-4.5472,-4.2986,-4.2464,-4.045,-3.8015,-3.7437,-3.6958,-3.6631,-3.7111,-3.7663,-3.7692,-3.5837,-3.3011,-3.0433,-3.0274,-3.1192,-3.2656,-3.4766,-3.6894,-3.8809,-4.0117,-4.1074,-4.1933,-4.2812,-4.3359,-4.3808,-4.4297,-4.543,-4.6426,-4.6855,-4.7656,-4.8203,-4.8223,-4.75,-4.6816,-4.6406,-4.5625,-4.5363,0.0,-4.5463,-4.6235,-4.9718,-4.5045,-4.3149,-4.5805,-4.3185,-4.1619,-4.1619,-4.1337,-4.2386,-4.489,-4.2029,-4.1747,-4.4314,-4.3522,-4.3144,-4.3199,-4.4043,-4.3945,-4.3066,-4.2556,-4.2127,-4.1718,-4.1718,-4.1464,-4.1094,-4.1172,-4.1172,-4.1133,-4.0607,-4.0393,-4.0451,0.0,0.0,0.0,0.0,0.0,0.0,0.0,0.0,0.0,0.0,0.0,0.0,0.0,0.0,0.0,0.0,0.0,0.0,0.0,-4.69,-4.8899,-5.0484,-5.1455,-5.2103,-5.2375,-5.1611,-5.18,-5.2929,-5.2553,-5.2578,-5.2929,-5.2929,-5.2929,-5.2929,-5.2929,-5.2929,-5.2929,-5.2929,-5.2929,-5.2804,-5.1498,-5.0544,-4.9515,-4.6175,-4.3438,-4.1078,0.0,-3.7487,-3.6185,-3.5303,-3.5127,-3.5378,-3.5931,-3.6185,-3.5881,-3.3441,-3.2788,-3.2619,-3.1758,-3.3086,-3.5234,-3.7383,-3.8906,-4.0273,-4.1855,-4.2441,-4.2734,-4.3027,-4.2734,-4.2402,-4.2285,-4.3301,-4.4394,-4.5137,-4.668,-4.7988,-4.8555,-4.8144,-4.7305,-4.6035,-4.5879,0.0,0.0,0.0,0.0,-4.8716,-4.7649,-4.738,-4.8273,-4.7345,-4.6891,-4.6891,-4.6465,-4.6728,-4.7586,-4.6579,-4.6373,-4.6957,-4.5763,-4.4641,-4.3538,-4.3762,-4.332,-4.2226,-4.207,-4.1777,-4.1387,-4.1387,-4.1308,-4.1172,-4.1172,-4.0996,-4.0723,-4.0586,-4.0156,-3.9648,0.0,0.0,0.0,0.0,0.0,0.0,0.0,0.0,0.0,0.0,0.0,0.0,0.0,0.0,0.0,0.0,0.0,0.0,0.0,0.0,-4.6155,-4.7547,-4.7999,-4.8572,-4.9303,-4.8284,-4.8385,-4.9665,-4.9715,-5.0017,-5.0569,-5.0946,-5.1247,-5.1448,-5.1448,-5.1674,-5.2,-5.1624,-5.1448,-5.1272,-4.9188,-4.7908,-4.6853,-4.3363,-4.0777,0.0,-3.6558,-3.5303,-3.455,-3.3847,-3.3847,-3.4223,-3.4776,-3.4533,-3.3815,-3.2569,-3.2649,-3.3173,-3.3307,-3.5098,-3.7383,-3.9219,-4.0566,-4.1719,-4.2832,-4.3086,-4.3027,-4.2871,-4.2051,-4.1211,-4.0801,-4.125,-4.1973,-4.2871,-4.4414,-4.5976,-4.7305,-4.6973,-4.6367,-4.5742,-4.5644,-4.543,0.0,0.0,0.0,-4.7676,-4.8555,-4.9062,-4.9062,-4.9199,-4.9297,-4.9297,-4.9004,-4.8867,-4.8867,-4.8555,-4.8027,-4.7285,-4.6465,-4.5234,-4.3691,-4.3555,-4.2871,-4.1797,-4.1641,-4.1426,-4.1172,-4.1172,-4.1074,-4.0937,-4.0937,-4.0684,-4.0273,-4.0117,-3.9687,-3.9199,0.0,0.0,0.0,0.0,0.0,0.0,0.0,0.0,0.0,0.0,0.0,0.0,0.0,0.0,0.0,0.0,0.0,0.0,0.0,0.0,0.0,-4.3811,-4.4522,-4.4536,-4.3729,-4.314,-4.3137,-4.3765,-4.4794,-4.5598,-4.615,-4.7179,-4.7958,-4.8485,-4.8485,-4.9063,-4.9967,-4.8912,-4.8485,-4.8234,-4.5497,-4.379,-4.2559,-3.9849,0.0,-3.6229,-3.5077,-3.3997,-3.3111,-3.3111,-3.3162,-3.3269,-3.3847,-3.2933,-3.1923,-3.316,-3.2713,-3.2307,-3.4844,-3.7109,-3.9043,-4.0351,-4.1914,-4.3105,-4.3105,-4.3086,-4.2891,-4.2402,-4.125,-4.0176,0.0,0.0,-3.9414,-4.0332,-4.1348,-4.2754,-4.4883,-4.4473,-4.4414,0.0,0.0,0.0,-4.5605,0.0,0.0,-4.6875,0.0,-4.8203,-4.8242,-4.8633,-4.8867,-4.8867,-4.8867,-4.8867,-4.8867,-4.8008,-4.6933,-4.5683,-4.5644,-4.4941,-4.3633,-4.3223,-4.2578,-4.1738,-4.1348,-4.1172,-4.1172,-4.1172,-4.0918,-4.0527,-4.0527,-4.0254,-3.9805,-3.9355,-3.918,-3.9141,0.0,0.0,0.0,0.0,0.0,0.0,0.0,0.0,0.0,0.0,0.0,0.0,0.0,0.0,0.0,0.0,0.0,0.0,0.0,0.0,0.0,0.0,0.0,0.0,0.0,0.0,0.0,0.0,-4.3062,-4.3344,-4.384,-4.4116,-4.4317,-4.4468,-4.4468,-4.4618,-4.4869,-4.4568,-4.4468,-4.4292,0.0,-4.1404,-4.0852,0.0,0.0,0.0,0.0,0.0,-3.3111,-3.3111,-3.3621,-3.4474,-3.5454,-3.492,-3.4213,-3.5333,-3.5504,-3.5662,-3.733,-3.9336,-4.1289,-4.2578,-4.3223,-4.3555,-4.3555,-4.3047,-4.2207,-4.082,-3.9004,-3.7324,-3.623,0.0,0.0,-3.9805,-4.2656,0.0,-4.7129,-4.748,0.0,-4.668,-4.6699,-4.6484,-4.5742,-4.623,0.0,0.0,-4.7441,-4.8027,-4.8652,-4.8789,-4.8867,-4.8867,-4.8867,-4.8867,-4.8867,-4.8008,-4.6933,-4.5664,-4.5351,-4.4336,-4.2754,-4.2637,-4.2129,-4.1328,-4.1211,-4.1172,-4.1172,-4.1172,-4.0918,-4.0527,-4.0527,-4.0059,-3.9355,-3.9238,-3.8789,-3.8301,0.0,0.0,0.0,0.0,0.0,0.0,0.0,0.0,0.0,0.0,0.0,0.0,0.0,0.0,0.0,0.0,0.0,0.0,0.0,0.0,0.0,0.0,0.0,0.0,0.0,0.0,0.0,0.0,0.0,0.0,-4.045,-4.0676,-4.0927,-4.1178,-4.1178,-4.1455,-4.1856,-4.1379,0.0,0.0,0.0,0.0,0.0,0.0,0.0,0.0,0.0,0.0,0.0,0.0,0.0,-3.6784,-3.814,-3.7646,-3.6878,-3.8276,-3.8102,-3.7846,-3.9323,-4.1152,-4.2851,-4.3789,-4.3848,-4.3516,-4.2754,-4.1777,-4.0469,-3.8574,-3.6777,-3.5254,-3.4316,-3.5254,0.0,0.0,0.0,0.0,-4.6484,-4.7187,-4.7461,0.0,-4.7695,0.0,-4.6855,-4.7207,-4.7578,0.0,-4.7832,-4.8066,-4.8555,-4.8574,-4.8574,-4.8574,-4.8398,-4.8203,-4.8008,-4.7344,-4.6387,-4.5117,-4.4668,-4.3633,-4.2148,-4.2148,-4.1797,-4.1172,0.0,-4.1172,-4.1152,-4.0976,-4.0625,-4.0234,-4.0019,-3.9531,-3.8906,-3.8711,-3.834,-3.793,0.0,0.0,0.0,0.0,0.0,0.0,0.0,0.0,0.0,0.0,0.0,0.0,0.0,0.0,0.0,0.0,0.0,0.0,0.0,0.0,0.0,0.0,0.0,0.0,0.0,0.0,0.0,0.0,0.0,0.0,0.0,0.0,0.0,0.0,0.0,0.0,0.0,0.0,0.0,0.0,0.0,0.0,0.0,0.0,0.0,0.0,0.0,0.0,0.0,0.0,-3.8216,-3.9445,-4.0881,-4.065,-4.0045,-4.1352,-4.0647,-3.9667,-4.1191,-4.2715,-4.3984,-4.4453,-4.418,-4.334,-4.1582,-4.0098,-3.8476,-3.623,-3.4766,-3.375,-3.3262,-3.3965,-3.5117,-3.668,0.0,-4.1797,-4.4922,-4.5683,-4.6523,-4.8105,-4.8301,-4.8301,-4.8301,-4.8301,-4.8457,-4.8828,-4.8516,-4.8301,-4.8301,-4.8242,-4.8183,-4.8125,-4.7715,-4.7285,-4.6855,-4.6367,-4.5508,-4.4297,-4.3848,-4.2988,-4.1797,-4.1797,-4.1562,-4.1172,-4.1172,-4.1133,-4.1055,-4.0684,-4.0234,-3.9766,-3.9355,-3.8906,-3.8437,-3.8066,-3.7851,-3.7715,0.0,0.0,0.0,0.0,0.0,0.0,0.0,0.0,0.0,0.0,-4.1602,-4.1602,0.0,0.0,0.0,0.0,0.0,0.0,0.0,0.0,0.0,0.0,0.0,0.0,0.0,0.0,0.0,0.0,0.0,0.0,0.0,0.0,0.0,0.0,0.0,0.0,0.0,0.0,0.0,0.0,0.0,0.0,0.0,0.0,0.0,0.0,0.0,0.0,0.0,0.0,-3.9622,-4.0985,-4.1485,-4.2933,-4.4184,-4.3021,-4.2983,-4.338,-4.3731,-4.4316,-4.4902,-4.5351,-4.4863,-4.373,-4.1641,-3.9883,0.0,-3.5,-3.3672,-3.2773,-3.1992,-3.3125,-3.5078,-3.7793,-4.0117,-4.2871,-4.6621,-4.7207,-4.7617,0.0,-4.875,-4.875,-4.875,-4.875,0.0,0.0,-4.8789,-4.875,-4.875,-4.8398,-4.8047,-4.7695,-4.7266,-4.6836,-4.6426,-4.5625,-4.4766,-4.3828,-4.3398,-4.2695,-4.1797,-4.1797,-4.1562,-4.1172,-4.1172,0.0,-4.0625,-4.0547,-4.0039,-3.9316,-3.9238,-3.873,-3.8027,-3.7949,-3.748,-3.6934,0.0,0.0,0.0,0.0,0.0,0.0,0.0,-4.0606,-4.0876,-4.2222,-4.2102,-4.1811,-4.1452,-4.1422,-4.1265,0.0,0.0,0.0,0.0,0.0,0.0,0.0,0.0,0.0,0.0,0.0,-3.3751,-3.3495,0.0,0.0,0.0,0.0,-3.3111,0.0,0.0,0.0,0.0,0.0,0.0,0.0,0.0,0.0,0.0,0.0,0.0,0.0,0.0,0.0,0.0,0.0,-3.9448,-4.1541,-4.3289,-4.4762,-4.5689,-4.455,-4.4091,-4.416,-4.4907,-4.5527,-4.6016,-4.5996,-4.5019,-4.3242,-4.0176,0.0,0.0,-3.3047,-3.209,-3.168,-3.1269,-3.2578,0.0,-3.6582,-3.8535,-4.1133,-4.5019,-4.5762,0.0,-4.832,-4.873,-4.8867,0.0,-4.8652,-4.8516,-4.8516,-4.832,-4.8281,-4.8516,-4.7891,-4.7246,-4.6601,-4.6387,-4.6074,-4.5644,-4.4766,-4.4023,-4.3359,-4.2715,-4.209,-4.1484,-4.1484,-4.1367,-4.1172,-4.1172,-4.0918,-4.0508,-4.0293,-3.9805,-3.918,-3.8965,-3.8476,-3.7891,-3.7676,-3.7207,-3.666,0.0,0.0,0.0,0.0,0.0,0.0,0.0,-4.0876,-4.1414,-4.308,-4.3,-4.25,-4.1722,-4.1512,-4.1265,0.0,0.0,0.0,0.0,0.0,0.0,0.0,0.0,0.0,0.0,0.0,0.0,-3.3721,-3.3294,0.0,0.0,0.0,0.0,0.0,-3.3111,-3.3111,0.0,0.0,0.0,0.0,0.0,-3.3144,0.0,0.0,0.0,0.0,0.0,0.0,0.0,0.0,-3.8802,-4.1011,-4.3482,-4.5233,-4.6027,-4.4726,-4.4501,-4.4802,-4.564,-4.6426,-4.6953,-4.6426,-4.4922,-4.2578,-3.8789,-3.6543,0.0,-3.1484,-3.0898,-3.0898,-3.0898,-3.2051,-3.3496,0.0,-3.6445,-3.8789,-4.2851,-4.3906,-4.5195,0.0,-4.8457,0.0,-4.8848,-4.8379,0.0,-4.8203,-4.7734,-4.7578,-4.791,-4.7207,-4.6445,-4.5703,-4.5488,-4.5195,-4.4746,-4.3867,-4.3223,-4.2793,-4.2031,-4.1484,-4.1172,-4.1172,-4.1172,-4.1172,-4.1074,-4.0781,-4.0351,-3.9922,-3.9473,-3.9023,-3.8594,-3.8164,-3.7734,-3.7324,-3.6894,-3.6484,0.0,0.0,0.0,0.0,0.0,0.0,0.0,-4.1055,-4.25,-4.32,-4.3768,-4.3658,-4.244,-4.1782,-4.0905,0.0,0.0,0.0,0.0,0.0,0.0,0.0,0.0,0.0,0.0,0.0,0.0,-3.3144,-3.3093,0.0,0.0,0.0,0.0,0.0,0.0,-3.3111,-3.3111,-3.3111,0.0,0.0,0.0,0.0,0.0,0.0,0.0,0.0,0.0,0.0,0.0,0.0,0.0,-3.8682,-3.9175,-4.268,-4.5827,-4.2054,0.0,0.0,-4.6497,-4.6875,-4.7324,-4.6504,-4.4707,-4.2226,-3.873,0.0,-3.4023,-3.1426,-3.0898,-3.0898,-3.0898,-3.1328,-3.2363,-3.4434,0.0,-3.7246,0.0,0.0,0.0,-4.7324,0.0,0.0,-4.8828,-4.8125,0.0,-4.8183,-4.7441,-4.7012,-4.7051,-4.6621,-4.6152,-4.5683,-4.4922,-4.4297,-4.3828,-4.2969,-4.2324,-4.1914,-4.1445,-4.1211,-4.1172,-4.1172,-4.1172,-4.1152,-4.0762,-4.0332,0.0,-3.9453,-3.9004,-3.8594,-3.8164,-3.7734,-3.7305,-3.6875,-3.6445,-3.6074,0.0,0.0,0.0,0.0,0.0,0.0,-3.9738,-4.0337,-4.1384,-4.3629,-4.4137,-4.4107,-4.3599,-4.294,-4.1713,-3.9553,0.0,0.0,0.0,0.0,0.0,0.0,0.0,0.0,0.0,0.0,-3.3513,-3.3111,-3.3111,0.0,0.0,0.0,0.0,0.0,0.0,-3.3111,-3.3111,0.0,0.0,0.0,0.0,0.0,0.0,0.0,0.0,0.0,0.0,0.0,-3.5307,0.0,0.0,0.0,-3.5685,-3.7539,0.0,0.0,-4.213,-4.4581,-4.5648,-4.6738,-4.7305,-4.6211,-4.4101,-4.1465,-3.8281,0.0,-3.3359,-3.1309,-3.0898,-3.0898,-3.0898,-3.1035,-3.1582,-3.2949,-3.291,0.0,-3.8379,0.0,0.0,0.0,0.0,0.0,0.0,0.0,-4.7051,-4.6719,-4.6601,-4.6328,-4.5801,-4.5879,-4.5488,-4.4531,-4.416,-4.3652,-4.2949,-4.2344,-4.1973,-4.1797,-4.1367,-4.1035,-4.0781,-4.0781,-4.0644,-4.0391,-4.0215,-3.9746,0.0,-3.8906,-3.8418,-3.7793,-3.7617,-3.7285,-3.6894,-3.6738,-3.6387,-3.6016,0.0,0.0,0.0,0.0,0.0,-3.7734,-3.9529,-3.9738,-4.0756,-4.3658,-4.4018,-4.4107,-4.4287,-4.3389,-4.2013,-4.0157,-3.9649,0.0,0.0,0.0,0.0,0.0,0.0,0.0,0.0,0.0,-3.3169,-3.3319,-3.3319,-3.3119,0.0,0.0,-3.3018,-3.2491,0.0,0.0,0.0,0.0,0.0,0.0,0.0,0.0,0.0,0.0,0.0,0.0,0.0,0.0,0.0,0.0,0.0,0.0,0.0,0.0,0.0,0.0,-3.9609,-4.1875,-4.3965,-4.5742,-4.6738,-4.5586,-4.334,-4.0664,0.0,0.0,-3.2793,-3.1211,-3.0898,-3.0898,-3.0898,-3.0898,-3.1094,-3.1699,0.0,-3.2402,-3.5625,0.0,0.0,0.0,0.0,-4.4277,0.0,-4.6816,-4.6523,-4.5547,-4.5879,-4.5742,-4.4883,-4.5,-4.4668,-4.373,-4.3457,-4.2969,-4.2246,-4.1953,-4.1738,-4.1621,-4.1308,-4.0937,-4.0527,-4.0527,-4.0293,-3.9883,-3.9629,-3.916,0.0,-3.8301,-3.7851,-3.7285,-3.7168,-3.6934,-3.666,-3.6523,-3.6289,-3.6016,0.0,0.0,0.0,0.0,0.0,0.0,-3.8212,-3.9529,-4.1115,-4.305,-4.329,-4.3559,-4.4257,-4.2581,-4.1384,-4.1354,-4.0157,0.0,0.0,0.0,0.0,0.0,0.0,0.0,0.0,0.0,-3.3345,-3.3897,-3.3897,-3.3897,-3.3872,-3.3897,-3.3596,-3.3111,0.0,0.0,0.0,0.0,0.0,0.0,0.0,0.0,0.0,0.0,0.0,0.0,0.0,0.0,0.0,0.0,0.0,0.0,0.0,-3.3429,0.0,0.0,-3.6836,-4.0723,-4.1601,-4.373,-4.5488,-4.4629,-4.2461,-3.9863,0.0,0.0,-3.2441,-3.1152,-3.0898,-3.0898,-3.0898,-3.0898,-3.0898,-3.0898,-3.1601,0.0,-3.4473,0.0,0.0,0.0,0.0,0.0,-4.4219,-4.5937,-4.6406,-4.5137,-4.543,0.0,-4.4453,-4.3965,-4.3711,-4.3711,-4.2871,-4.2246,-4.1816,-4.1797,-4.1582,-4.1172,-4.1172,-4.0937,-4.0527,-4.0527,-4.0293,-3.9844,-3.8965,-3.8574,0.0,-3.7656,-3.7305,-3.7266,-3.6836,-3.668,-3.6621,-3.6191,-3.6016,-3.6016,0.0,0.0,0.0,0.0,0.0,0.0,0.0,-3.7434,-3.8272,-3.9768,-4.0756,-4.1743,-4.289,-4.247,-4.2081,-4.2081,-4.0427,0.0,0.0,0.0,0.0,0.0,0.0,0.0,0.0,0.0,-3.3345,-3.3897,-3.3897,-3.3897,-3.3897,-3.3897,-3.3596,-3.3111,-3.3111,-3.3111,0.0,0.0,0.0,0.0,0.0,0.0,0.0,0.0,0.0,0.0,0.0,0.0,0.0,0.0,0.0,0.0,0.0,0.0,0.0,-3.2629,-3.4033,0.0,-3.8242,-3.9746,-4.0684,-4.0117,-3.8691,-3.6992,-3.5293,0.0,-3.209,-3.1094,-3.0898,-3.0898,-3.0898,-3.0898,-3.1172,-3.2051,-3.2168,0.0,0.0,0.0,0.0,0.0,0.0,0.0,0.0,0.0,0.0,-4.4648,-4.4726,0.0,-4.3535,-4.3066,-4.2832,-4.2832,-4.2285,-4.1797,-4.1387,-4.1367,-4.1308,-4.1172,-4.0879,-4.0508,-4.0078,-3.9766,-3.9219,-3.8535,-3.8242,-3.7812,-3.7246,-3.6973,-3.6699,-3.6387,-3.5957,-3.5801,-3.5742,-3.5293,-3.5117,-3.5117,0.0,0.0,0.0,0.0,0.0,0.0,0.0,-3.6477,-3.6956,-3.8212,-3.911,-4.0247,-4.1871,-4.1811,-4.1871,-4.2351,-4.0995,0.0,0.0,0.0,0.0,0.0,0.0,0.0,-3.3154,-3.3111,-3.3545,-3.4525,-3.4525,-3.4625,-3.4826,-3.4826,-3.4324,-3.3395,-3.3395,-3.3269,0.0,0.0,0.0,0.0,0.0,0.0,-3.6081,0.0,0.0,0.0,0.0,0.0,0.0,0.0,0.0,0.0,0.0,0.0,0.0,0.0,-3.3678,-3.4554,0.0,-3.6953,-3.7793,-3.7519,-3.6484,0.0,0.0,-3.2832,-3.1738,-3.1035,-3.0898,-3.0898,-3.0898,-3.0898,-3.1152,-3.1953,-3.2129,0.0,0.0,0.0,0.0,0.0,0.0,0.0,0.0,0.0,0.0,0.0,-4.4043,0.0,-4.2871,-4.2422,-4.2187,-4.2187,-4.1777,-4.1426,-4.1172,-4.1172,-4.1094,-4.0918,-4.0644,-4.0215,-3.9609,-3.918,-3.8574,-3.791,-3.7598,-3.7148,0.0,-3.6484,-3.6172,-3.5762,-3.5488,-3.5293,-3.5098,-3.4805,-3.4707,-3.4707,0.0,0.0,0.0,0.0,0.0,0.0,0.0,-3.6417,-3.6836,-3.8033,-3.8212,-3.899,-4.0965,-4.0666,-4.0876,-4.2201,0.0,0.0,0.0,0.0,0.0,0.0,0.0,0.0,-3.3154,-3.3162,-3.3897,-3.5433,-3.5508,-3.5855,-3.6405,-3.6405,-3.555,-3.3947,-3.3922,-3.3621,0.0,0.0,0.0,0.0,0.0,0.0,0.0,0.0,0.0,0.0,0.0,0.0,0.0,0.0,0.0,0.0,0.0,0.0,0.0,0.0,0.0,0.0,0.0,-3.531,-3.6592,-3.6455,-3.5618,-3.4561,-3.3607,-3.2527,0.0,-3.0976,-3.0898,-3.0898,-3.0937,-3.0918,-3.0918,-3.1016,0.0,0.0,0.0,-3.5137,0.0,0.0,-4.1484,0.0,-4.2402,0.0,0.0,0.0,0.0,0.0,-4.2422,-4.1992,-4.1758,-4.1758,-4.1348,-4.1152,-4.1172,-4.1152,-4.0918,-4.0527,-4.043,-3.9961,-3.9141,-3.8691,-3.8242,0.0,-3.7012,-3.6641,-3.6543,-3.6133,-3.5723,-3.5351,-3.5312,-3.5039,-3.4648,-3.4609,-3.4609,-3.4609,0.0,0.0,0.0,0.0,0.0,0.0,0.0,0.0,0.0,0.0,-3.6626,-3.7494,-3.8931,-3.9439,-4.0187,0.0,0.0,0.0,0.0,0.0,0.0,0.0,0.0,0.0,-3.3154,-3.3495,-3.4098,-3.4881,-3.5755,-3.6279,-3.6405,-3.6405,-3.5705,-3.45,-3.4098,-3.3822,0.0,0.0,0.0,0.0,0.0,0.0,0.0,0.0,0.0,0.0,-3.6405,-3.6405,0.0,0.0,0.0,0.0,0.0,0.0,0.0,0.0,-3.5647,-3.5938,-3.4658,0.0,-3.5349,-3.425,-3.4783,-3.522,0.0,-3.3169,-3.2738,-3.1191,-3.0898,-3.0996,-3.1309,-3.1113,-3.1211,-3.2187,0.0,0.0,0.0,0.0,0.0,-4.0762,-4.2363,-4.3027,-4.2051,0.0,0.0,0.0,0.0,-4.2168,-4.1953,-4.1543,-4.1328,-4.1328,-4.0898,-4.084,-4.1172,-4.084,-4.0625,-4.0508,-3.9512,-3.8926,-3.8691,-3.7949,-3.7363,-3.6953,-3.6758,-3.6309,-3.5684,-3.5586,-3.5273,-3.4824,-3.4512,-3.4316,-3.418,-3.3848,-3.373,-3.373,0.0,0.0,0.0,0.0,0.0,0.0,0.0,0.0,0.0,0.0,0.0,0.0,0.0,0.0,0.0,0.0,0.0,0.0,0.0,0.0,0.0,0.0,0.0,-3.513,-3.3488,-3.3746,-3.4299,-3.5056,-3.5956,-3.6508,-3.6782,-3.6782,-3.6157,-3.5031,-3.4525,-3.4148,0.0,0.0,0.0,0.0,-3.6307,0.0,0.0,0.0,0.0,0.0,-3.5705,-3.578,0.0,-3.6329,-3.6405,-3.6455,0.0,0.0,0.0,0.0,-3.6648,-3.7025,-3.5812,-3.5554,-3.5458,-3.4675,-3.5266,-3.5714,-3.474,0.0,-3.3941,-3.2248,-3.2436,-3.2555,-3.1407,-3.16,-3.1953,0.0,-3.2539,0.0,0.0,0.0,0.0,0.0,-4.2383,-4.2793,0.0,0.0,0.0,0.0,0.0,-4.1719,-4.1523,-4.1308,-4.1074,-4.0879,-4.0644,-4.0644,-4.0879,-4.0449,-4.0039,-3.9629,-3.8906,-3.8379,-3.7969,-3.7305,-3.6777,-3.6367,-3.6172,-3.5703,-3.5078,-3.5078,-3.4805,-3.4394,-3.416,-3.3828,-3.3457,-3.3223,-3.3008,-3.2851,0.0,0.0,0.0,0.0,0.0,0.0,0.0,0.0,0.0,0.0,0.0,0.0,0.0,0.0,0.0,0.0,0.0,0.0,0.0,0.0,0.0,0.0,0.0,-3.5191,-3.4067,-3.4022,-3.4525,-3.5508,-3.6282,-3.6835,-3.7186,-3.7362,-3.681,-3.5608,-3.5056,-3.46,0.0,0.0,0.0,0.0,-3.6483,0.0,0.0,0.0,0.0,0.0,0.0,0.0,0.0,-3.6081,-3.6329,-3.648,-3.681,0.0,0.0,0.0,0.0,0.0,-3.7073,-3.6918,-3.6767,-3.6407,-3.6519,-3.6675,-3.6385,0.0,0.0,0.0,0.0,0.0,0.0,-3.2752,0.0,0.0,0.0,0.0,0.0,0.0,0.0,0.0,0.0,0.0,0.0,0.0,0.0,0.0,0.0,-4.1543,-4.1191,-4.1113,-4.0898,-4.0527,-4.0332,-4.0234,-4.0234,-3.9863,-3.9277,-3.8476,-3.834,-3.7871,-3.709,-3.666,-3.623,-3.5801,0.0,0.0,-3.4609,-3.4609,-3.4355,-3.3965,-3.3965,-3.3496,-3.2793,-3.2793,-3.2519,-3.2209,0.0,0.0,0.0,0.0,0.0,0.0,0.0,0.0,0.0,0.0,0.0,0.0,0.0,0.0,0.0,0.0,0.0,0.0,0.0,0.0,0.0,-3.8962,-3.7635,-3.6198,-3.462,-3.46,-3.4856,-3.5508,-3.7036,-3.7563,-3.7211,-3.8215,-3.7813,-3.6254,-3.5655,-3.5332,-3.5257,-3.5508,-3.583,-3.6179,-3.643,0.0,0.0,0.0,0.0,0.0,0.0,0.0,0.0,-3.5608,-3.5981,-3.6355,-3.5906,0.0,0.0,0.0,0.0,0.0,-3.7717,-3.9131,-3.9962,-3.781,-3.8543,-3.9373,-3.7691,0.0,0.0,0.0,0.0,0.0,0.0,-3.5776,-3.5931,0.0,0.0,-3.6309,0.0,0.0,-4.0312,-4.0293,0.0,0.0,0.0,0.0,0.0,0.0,0.0,-4.125,-4.1172,-4.082,-4.0586,-4.0527,-3.9453,-3.8867,-3.8867,-3.8809,-3.8516,-3.8008,-3.7305,-3.6699,-3.6211,-3.5781,-3.5332,-3.4902,0.0,-3.457,-3.416,-3.416,-3.3906,-3.3516,-3.3516,-3.3223,-3.2793,-3.2793,-3.2519,-3.2109,0.0,0.0,0.0,0.0,0.0,0.0,0.0,0.0,0.0,0.0,0.0,0.0,0.0,0.0,0.0,0.0,0.0,0.0,0.0,0.0,0.0,-3.9557,-3.8063,-3.6445,-3.4726,-3.4956,-3.5382,-3.5981,-3.7337,-3.7864,-3.7638,-3.8165,-3.7688,-3.6383,-3.6408,-3.6107,-3.5508,-3.5855,-3.6132,-3.6405,0.0,0.0,0.0,0.0,0.0,0.0,0.0,0.0,0.0,0.0,-3.5454,-3.5931,-3.5981,0.0,0.0,0.0,0.0,0.0,-3.7412,-3.8768,-3.9867,-3.9262,-4.0471,-4.1443,-3.9902,0.0,0.0,0.0,0.0,0.0,0.0,0.0,-3.9078,-3.9346,0.0,-3.9433,-4.1735,-4.1462,-4.1665,0.0,0.0,0.0,0.0,0.0,0.0,0.0,0.0,0.0,-4.082,-4.041,-4.0078,-3.9824,-3.9004,-3.8359,-3.7891,-3.7422,-3.7207,-3.7246,-3.6621,-3.6094,-3.5664,-3.5215,-3.4785,-3.4336,0.0,-3.3769,-3.3359,-3.3144,-3.293,-3.2734,-3.2734,-3.248,-3.207,-3.1855,-3.1641,-3.1445,0.0,0.0,0.0,0.0,0.0,0.0,0.0,0.0,0.0,0.0,0.0,0.0,0.0,0.0,0.0,0.0,0.0,0.0,0.0,0.0,-4.0332,-3.9707,-3.8138,-3.6649,-3.5303,-3.5533,-3.6056,-3.6782,-3.7739,-3.8266,-3.8391,-3.8391,-3.7814,-3.681,-3.7186,-3.6759,-3.5755,-3.6182,-3.6405,-3.6405,0.0,0.0,0.0,0.0,0.0,0.0,0.0,0.0,0.0,0.0,0.0,0.0,0.0,0.0,0.0,-3.6405,-3.6405,-3.6531,-3.7036,-3.809,-3.922,-3.9948,0.0,0.0,0.0,-4.158,0.0,0.0,0.0,0.0,0.0,-3.9692,0.0,-4.3548,-4.2811,-4.2731,-4.4768,-4.3736,-4.3723,-4.6212,-4.4925,0.0,0.0,0.0,0.0,0.0,0.0,0.0,-4.0371,-3.9863,-3.9637,-3.9705,-3.897,-3.8396,-3.8203,-3.6929,-3.6324,-3.6367,-3.5918,-3.5488,-3.5059,-3.4609,-3.418,-3.375,-3.332,-3.2949,-3.2617,-3.2305,-3.2229,-3.2229,-3.2229,-3.1894,-3.1465,-3.1055,-3.0898,-3.0898,0.0,0.0,0.0,0.0,0.0,0.0,0.0,0.0,0.0,0.0,0.0,0.0,0.0,0.0,0.0,0.0,0.0,0.0,0.0,0.0,-4.0174,-3.9086,-3.7923,-3.7222,-3.7033,-3.6581,-3.6835,-3.7889,-3.8517,-3.9069,-3.9572,-3.9572,-3.8969,-3.7889,-3.7939,-3.7337,-3.6355,-3.638,-3.6405,-3.6405,-3.6405,0.0,0.0,0.0,0.0,0.0,0.0,0.0,0.0,0.0,0.0,0.0,0.0,0.0,-3.6405,-3.6405,-3.6405,-3.6531,-3.7036,-3.8391,-3.9521,-3.9094,-3.9848,0.0,-4.3815,-4.3564,0.0,-4.4678,0.0,0.0,0.0,-4.2642,0.0,0.0,0.0,-4.5707,-4.6693,0.0,-4.6726,-4.6888,-4.6815,0.0,0.0,0.0,0.0,0.0,0.0,0.0,-4.0017,-3.9141,-3.9413,-4.0983,-3.9369,-3.9141,-4.069,-3.8274,-3.6489,-3.5488,-3.5019,-3.457,-3.416,-3.3711,-3.3281,-3.2871,-3.2441,-3.2246,-3.2207,-3.2187,-3.2229,-3.2229,-3.2229,-3.1894,-3.1465,-3.1055,-3.0898,-3.0898,0.0,0.0,0.0,0.0,0.0,0.0,0.0,0.0,0.0,0.0,0.0,0.0,0.0,0.0,0.0,0.0,0.0,0.0,0.0,-3.951,-3.8936,-3.8946,-3.7561,-3.6875,-3.7209,-3.6985,-3.7412,-3.8542,-3.9094,-3.9496,-3.9697,-3.9697,-3.9094,-3.8015,-3.8015,-3.7588,-3.6908,-3.6556,-3.6606,-3.6883,-3.6556,-3.6279,0.0,0.0,0.0,0.0,0.0,0.0,0.0,0.0,-3.4299,-3.4931,-3.4625,-3.5378,-3.6355,-3.5956,-3.6107,-3.6455,-3.6656,-3.7964,-3.922,-3.9346,-4.0199,0.0,0.0,-4.379,-4.3765,-4.4744,-4.5347,0.0,0.0,0.0,0.0,0.0,0.0,0.0,0.0,0.0,0.0,0.0,0.0,0.0,0.0,0.0,0.0,0.0,0.0,0.0,-4.2422,-4.1183,-4.0775,-4.1453,-4.0171,-3.9796,-4.0434,-3.8979,-3.7833,-3.6979,-3.4903,-3.3828,-3.3652,-3.2949,-3.2559,-3.2383,-3.1953,-3.1758,-3.1738,-3.1484,-3.1367,-3.1367,-3.1367,-3.1269,-3.1113,-3.0957,-3.0898,-3.0898,0.0,0.0,0.0,0.0,0.0,0.0,0.0,0.0,0.0,0.0,0.0,0.0,0.0,0.0,0.0,0.0,0.0,0.0,-3.8907,-3.8088,-3.7867,-3.8363,-3.6936,-3.6433,-3.7161,-3.7362,-3.7914,-3.8919,-3.9421,-3.9697,-3.9697,-3.9697,-3.9195,-3.8291,-3.8291,-3.7965,-3.7412,-3.6908,-3.6835,-3.7136,-3.6631,-3.6405,0.0,0.0,0.0,0.0,0.0,0.0,0.0,0.0,-3.3847,-3.4449,-3.4424,-3.5203,-3.6056,-3.5855,-3.6081,-3.6405,-3.6405,-3.7511,-3.8693,-3.9069,0.0,0.0,-4.4091,-4.4719,-4.5221,-4.6476,-4.6502,-4.6401,-4.6753,0.0,0.0,0.0,0.0,0.0,0.0,0.0,0.0,0.0,0.0,0.0,0.0,0.0,0.0,0.0,0.0,0.0,0.0,-4.217,-4.1651,-4.2169,-4.1035,-4.0601,-4.1014,-3.9822,-3.8898,-3.8258,-3.5519,-3.4003,-3.3713,-3.2509,-3.1953,-3.1934,-3.1504,-3.1328,-3.1289,-3.1016,-3.0898,-3.0898,-3.0898,-3.0898,-3.0898,-3.0898,-3.0898,-3.0898,0.0,0.0,0.0,0.0,0.0,0.0,0.0,0.0,0.0,0.0,0.0,0.0,0.0,0.0,0.0,0.0,0.0,0.0,-3.7852,-3.7377,-3.7137,-3.7246,-3.612,-3.6009,-3.7136,-3.7713,-3.8291,-3.8919,-3.9421,-3.9697,-3.9697,-3.9697,-3.9396,-3.8919,-3.8919,-3.8542,-3.7965,-3.7412,-3.7186,-3.7136,-3.6631,-3.6405,-3.6405,0.0,0.0,0.0,0.0,0.0,0.0,0.0,-3.3897,-3.4098,-3.5132,-3.5483,-3.5608,-3.6182,-3.6405,-3.6405,-3.6405,-3.7161,-3.8015,0.0,0.0,0.0,-4.5547,-4.6728,-4.7908,-5.0695,-4.8636,-4.6652,-4.7732,-4.7506,0.0,-4.9314,-5.0996,0.0,0.0,0.0,0.0,0.0,0.0,0.0,0.0,0.0,0.0,0.0,0.0,0.0,0.0,-4.1544,-4.1774,-4.3411,-4.2041,-4.1755,-4.2961,-4.0886,-3.9546,-3.8864,-3.6848,-3.5422,-3.4303,-3.2395,-3.1504,-3.1484,-3.1074,-3.0898,-3.0898,-3.0898,-3.0898,-3.0898,-3.0898,-3.0898,-3.0898,-3.0898,-3.0898,-3.0898,0.0,0.0,0.0,0.0,0.0,0.0,0.0,0.0,0.0,0.0,0.0,0.0,0.0,0.0,0.0,0.0,0.0,0.0,-3.6656,-3.6872,-3.6593,-3.5526,-3.5507,-3.5658,-3.5984,-3.7337,-3.8492,-3.9446,-3.9622,-3.9697,-3.9697,-3.9697,-3.9396,-3.8919,-3.8919,-3.8542,-3.7965,-3.7412,-3.7186,-3.7161,-3.7059,-3.6935,-3.691,0.0,0.0,0.0,0.0,0.0,0.0,0.0,0.0,0.0,-3.4274,-3.5177,-3.6006,-3.5378,-3.6031,-3.6784,-3.6006,-3.6885,0.0,-3.8994,0.0,0.0,0.0,-4.6426,0.0,0.0,-4.9264,-4.8134,-4.846,-4.9012,0.0,-4.9063,-5.0419,-5.1649,0.0,0.0,0.0,0.0,0.0,0.0,0.0,0.0,0.0,0.0,0.0,0.0,0.0,-4.3589,-4.3013,-4.3111,-4.2305,-4.1836,-4.1831,-4.1141,-4.0552,-4.0009,-3.8387,-3.6297,-3.388,-3.3037,-3.2064,-3.1074,-3.0937,-3.0898,-3.0898,-3.0898,-3.0898,-3.0898,-3.0898,-3.0898,-3.0898,-3.0898,-3.0898,-3.0898,0.0,0.0,0.0,0.0,0.0,0.0,0.0,0.0,0.0,0.0,0.0,0.0,0.0,0.0,0.0,0.0,0.0,0.0,0.0,-3.6231,-3.6049,-3.4458,-3.4908,-3.5483,-3.6182,-3.7387,-3.8341,-3.9019,-3.9245,-3.9371,-3.9371,-3.9371,-3.9295,-3.9195,-3.9195,-3.8868,-3.8316,-3.7739,-3.7513,-3.7487,-3.7287,-3.7312,-3.7462,0.0,0.0,0.0,0.0,0.0,0.0,0.0,0.0,0.0,-3.4223,0.0,-3.5629,-3.5177,-3.5604,-3.6207,-3.6207,-3.7086,0.0,-3.9697,-4.1831,-4.4242,-4.6602,0.0,0.0,0.0,-4.9841,-4.8912,-4.9339,-4.9414,0.0,-4.9414,-5.0092,-5.072,0.0,0.0,0.0,0.0,0.0,0.0,0.0,0.0,0.0,0.0,0.0,0.0,0.0,-4.3765,-4.2986,-4.266,-4.2108,-4.158,-4.0974,-4.0949,-4.0727,-4.0199,-3.9283,-3.7604,-3.5133,-3.3749,-3.2322,-3.0898,-3.0898,-3.0898,-3.0898,-3.0898,-3.0898,-3.0898,-3.0898,-3.0898,-3.0898,-3.0898,-3.0898,-3.0898,0.0,0.0,0.0,0.0,0.0,0.0,0.0,0.0,0.0,0.0,-3.6985,0.0,0.0,0.0,0.0,0.0,0.0,0.0,0.0,0.0,-3.5397,-3.3884,-3.45,-3.5629,-3.7236,-3.7739,-3.799,-3.7939,-3.8517,-3.8844,-3.8844,-3.8894,-3.9145,-3.9622,-3.9622,-3.932,-3.8793,-3.8115,-3.7864,-3.7814,-3.7312,-3.7437,-3.7864,-3.7387,0.0,0.0,0.0,0.0,0.0,0.0,0.0,0.0,-3.4655,-3.468,-3.4781,-3.5232,-3.5056,-3.5127,-3.6634,0.0,0.0,-4.0275,-4.2936,0.0,-4.7004,-4.9741,-5.1925,-5.1825,0.0,-4.9264,-5.0167,-4.9138,-4.8611,-5.0042,0.0,0.0,0.0,0.0,0.0,0.0,0.0,0.0,0.0,0.0,0.0,0.0,0.0,0.0,0.0,-4.2635,-4.2112,-4.2062,-4.153,-4.0949,-4.045,-4.045,-4.0174,-3.9622,-3.9622,-3.8822,-3.7281,-3.4526,-3.2395,-3.082,-3.0879,-3.0859,-3.084,-3.0879,-3.0898,-3.0898,-3.0898,-3.0898,-3.0898,-3.0898,-3.0898,-3.0898,0.0,0.0,0.0,0.0,0.0,0.0,0.0,0.0,0.0,0.0,0.0,0.0,0.0,0.0,0.0,0.0,0.0,0.0,0.0,0.0,-3.4522,-3.333,-3.5072,-3.6584,-3.7789,-3.7939,-3.7789,-3.7362,-3.7914,-3.8191,-3.8191,-3.8668,-3.8944,-3.9044,-3.9044,-3.8718,-3.814,-3.7136,-3.6757,-3.6757,-3.6609,-3.6885,-3.7337,-3.7236,-3.7111,0.0,0.0,0.0,0.0,0.0,0.0,0.0,-3.4575,-3.468,-3.465,-3.4349,-3.4776,-3.5408,0.0,-3.6935,0.0,0.0,-4.5522,-4.8611,-4.8987,-4.9967,-5.0544,-4.9665,-5.0167,-5.0544,-4.9891,0.0,0.0,0.0,0.0,0.0,0.0,0.0,0.0,0.0,0.0,0.0,0.0,0.0,0.0,0.0,0.0,0.0,-4.1827,-4.1656,-4.1304,-4.0877,-4.0752,-4.0425,-3.9873,-3.9873,-3.9597,-3.9044,-3.9044,-3.8058,-3.6133,-3.5256,-3.3205,-3.0371,-3.0742,-3.0684,-3.0371,-3.0742,-3.0898,-3.0898,-3.0898,-3.0898,-3.0898,-3.0898,-3.0898,-3.0898,0.0,0.0,0.0,0.0,0.0,0.0,0.0,0.0,0.0,0.0,0.0,0.0,0.0,0.0,0.0,0.0,0.0,0.0,0.0,0.0,0.0,-3.3891,-3.573,-3.691,-3.7211,-3.7487,-3.7211,-3.6408,-3.6684,-3.7086,-3.7638,-3.8191,-3.8592,-3.8919,-3.8919,-3.8391,-3.7588,-3.701,-3.6656,-3.643,-3.6659,-3.7086,-3.7513,-3.6985,-3.6832,-3.6681,-3.5554,0.0,0.0,0.0,0.0,0.0,0.0,0.0,-3.458,-3.4073,-3.4299,-3.5002,0.0,0.0,0.0,0.0,0.0,0.0,-4.9138,-4.9414,-4.9389,-4.8535,-4.9264,0.0,0.0,0.0,0.0,0.0,0.0,0.0,0.0,0.0,0.0,0.0,0.0,0.0,0.0,0.0,0.0,0.0,0.0,-4.1254,-4.0899,-4.0701,-4.0425,-4.0124,-4.0124,-3.9848,-3.9295,-3.9295,-3.9019,-3.8467,-3.8467,-3.7515,-3.5726,-3.424,-3.2225,-2.9922,-3.0156,-3.0117,-2.9922,-3.0371,-3.0566,-3.0586,-3.0801,-3.0898,-3.0898,-3.0898,-3.0898,-3.0898,0.0,0.0,0.0,0.0,0.0,0.0,0.0,0.0,0.0,0.0,0.0,0.0,0.0,0.0,0.0,0.0,0.0,0.0,0.0,0.0,0.0,0.0,-3.6182,-3.6784,-3.6556,-3.6759,-3.6458,-3.5508,-3.5408,-3.5959,-3.7186,-3.7638,-3.8165,-3.8718,-3.8718,-3.809,-3.7036,-3.6835,-3.6483,-3.6179,-3.6584,-3.7036,-3.7362,-3.6533,-3.6204,-3.6003,-3.5052,-3.468,-3.4801,-3.5207,0.0,0.0,0.0,0.0,-3.4349,-3.3897,-3.3746,-3.4173,0.0,0.0,0.0,0.0,0.0,0.0,0.0,0.0,0.0,0.0,0.0,0.0,0.0,0.0,0.0,0.0,0.0,0.0,0.0,0.0,0.0,0.0,0.0,0.0,0.0,0.0,0.0,0.0,0.0,-4.0475,-4.0375,-3.9948,-3.9697,-3.9697,-3.9597,-3.932,-3.8868,-3.8768,-3.8442,-3.7864,-3.7764,-3.6948,-3.5443,-3.2858,-3.1016,-2.9842,-2.9643,-2.9531,-2.9492,-2.9922,-3.0098,-3.0137,-3.0508,-3.0664,-3.0664,-3.0664,-3.0664,-3.0664,0.0,0.0,0.0,0.0,0.0,0.0,0.0,0.0,0.0,0.0,0.0,0.0,0.0,0.0,0.0,0.0,0.0,0.0,0.0,0.0,0.0,-3.5332,-3.5608,-3.6182,-3.7061,-3.6207,-3.5633,-3.5508,-3.5031,-3.5629,-3.7186,-3.7262,-3.7588,-3.8115,-3.8115,-3.7513,-3.6455,-3.5454,-3.5002,-3.4951,-3.5027,-3.5102,-3.5203,-3.5483,-3.5307,-3.4926,-3.4731,-3.468,-3.4726,-3.4756,-3.4525,0.0,0.0,0.0,-3.3294,-3.3219,-3.3237,-3.3345,0.0,0.0,0.0,0.0,0.0,0.0,0.0,0.0,0.0,0.0,0.0,0.0,0.0,0.0,0.0,0.0,0.0,0.0,0.0,0.0,0.0,0.0,0.0,0.0,0.0,0.0,0.0,0.0,-4.0551,-4.03,-3.9823,-3.9747,-3.9697,-3.9697,-3.922,-3.8994,-3.8919,-3.8366,-3.7839,-3.7287,-3.6857,-3.5889,-3.455,-3.2937,-3.1698,-3.0772,-2.9948,-2.9355,-2.9043,-2.9473,-2.9648,-2.9668,-2.9726,-2.9746,-2.9746,-2.9746,-2.9746,-2.9746,0.0,0.0,0.0,0.0,0.0,0.0,0.0,0.0,0.0,0.0,0.0,0.0,0.0,0.0,0.0,0.0,0.0,0.0,0.0,0.0,0.0,-3.4123,-3.4449,-3.4851,-3.5328,-3.4876,-3.4474,-3.4173,-3.3922,0.0,0.0,-3.7186,-3.7814,-3.8919,-3.8291,-3.7563,-3.6759,-3.5655,-3.4956,-3.468,-3.468,-3.4856,-3.5107,-3.4731,-3.4474,-3.4173,-3.3545,-3.3319,-3.337,-3.3696,-3.3847,-3.3897,-3.3897,0.0,0.0,0.0,-3.3111,0.0,0.0,0.0,0.0,0.0,0.0,0.0,0.0,0.0,0.0,0.0,0.0,0.0,0.0,0.0,0.0,0.0,0.0,0.0,0.0,0.0,0.0,0.0,0.0,0.0,0.0,0.0,0.0,0.0,-3.9772,-3.9496,-3.9245,-3.8919,-3.8743,-3.8743,-3.8517,-3.8241,-3.7914,-3.7663,-3.7262,-3.6782,-3.6531,-3.6121,-3.5475,-3.3304,-3.1702,-3.0538,-2.9399,-2.875,-2.8594,-2.9023,-2.9199,-2.9219,-2.9473,-2.9626,-2.9626,-2.9626,-2.9626,-2.9626,0.0,0.0,0.0,0.0,0.0,0.0,0.0,0.0,0.0,0.0,0.0,0.0,0.0,0.0,0.0,0.0,0.0,0.0,0.0,0.0,0.0,-3.2817,-3.3244,-3.347,-3.347,-3.347,-3.3269,-3.2867,0.0,0.0,-3.7186,-3.7186,-3.8241,-4.0074,-3.8944,-3.7965,-3.7111,-3.5959,-3.5257,-3.4856,-3.4625,-3.4675,-3.4806,-3.4324,-3.4022,-3.3771,-3.2792,-3.2516,-3.2667,-3.2817,-3.3219,-3.3696,-3.3696,-3.3696,0.0,0.0,0.0,0.0,0.0,0.0,0.0,0.0,0.0,0.0,0.0,0.0,0.0,0.0,0.0,0.0,0.0,0.0,0.0,0.0,0.0,0.0,0.0,0.0,0.0,0.0,0.0,0.0,0.0,0.0,0.0,0.0,-3.8894,-3.8642,-3.8642,-3.8241,-3.8015,-3.8015,-3.7864,-3.7588,-3.7186,-3.691,-3.6558,-3.6157,-3.6157,-3.6091,-3.581,-3.338,-3.1571,-3.0224,-2.89,-2.8301,-2.832,-2.8633,-2.8769,-2.8789,-2.9121,-2.9238,-2.9238,-2.9238,-2.9238,-2.9238,0.0,0.0,0.0,0.0,0.0,0.0,0.0,0.0,0.0,0.0,0.0,0.0,-3.8242,-3.8362,-3.741,-3.5148,-3.5171,0.0,0.0,0.0,0.0,-3.2215,-3.229,0.0,-3.229,-3.229,-3.229,0.0,0.0,0.0,-3.7186,-3.7186,-3.8642,-4.115,-4.0099,-3.8693,-3.7111,-3.5959,-3.5483,-3.5357,-3.4349,-3.3646,-3.3319,-3.4299,-3.4349,-3.3822,-3.3244,-3.337,-3.3646,-3.2616,-3.2641,-3.3162,-3.3162,-3.3162,-3.3162,0.0,0.0,0.0,0.0,0.0,0.0,0.0,0.0,0.0,0.0,0.0,0.0,0.0,0.0,0.0,0.0,0.0,0.0,0.0,0.0,0.0,0.0,0.0,0.0,0.0,0.0,0.0,0.0,0.0,0.0,0.0,-3.8065,-3.804,-3.804,-3.8015,-3.8015,-3.8015,-3.7487,-3.7211,-3.7186,-3.6157,-3.5558,-3.5533,-3.5533,-3.5174,-3.4434,-3.2955,-3.1571,-3.0224,-2.89,-2.8301,-2.8301,-2.832,-2.832,-2.832,-2.8359,-2.8359,-2.8359,-2.8359,-2.8359,-2.8359,0.0,0.0,0.0,0.0,0.0,0.0,0.0,0.0,0.0,0.0,0.0,0.0,0.0,-3.7764,-3.6757,-3.4312,-3.2697,0.0,0.0,0.0,0.0,-3.116,-3.1512,-3.1537,-3.1185,-3.1512,-3.1687,0.0,0.0,-3.3596,-3.6707,-3.701,-3.8115,-3.9722,-3.8944,-3.8492,-3.8115,-3.5956,-3.5182,-3.5382,-3.3947,-3.3897,-3.46,-3.3922,-3.3771,-3.3771,-3.2842,-3.2641,-3.2767,-3.234,-3.2591,-3.3061,-3.2641,-3.2516,-3.239,-3.1712,-3.1687,0.0,0.0,0.0,0.0,0.0,0.0,0.0,0.0,0.0,0.0,0.0,0.0,0.0,0.0,0.0,0.0,0.0,0.0,0.0,0.0,0.0,0.0,0.0,0.0,0.0,0.0,0.0,0.0,0.0,0.0,-3.7487,-3.7487,-3.7136,-3.696,-3.696,-3.6408,-3.5956,-3.5604,-3.5182,-3.4981,-3.4981,-3.4981,-3.4435,-3.3363,-3.2045,-3.0674,-2.9396,-2.8061,-2.7793,-2.8262,-2.8008,-2.8047,-2.8301,-2.8301,-2.8301,-2.8301,-2.8301,-2.8301,-2.8301,0.0,0.0,0.0,0.0,0.0,0.0,0.0,0.0,0.0,-3.6716,0.0,0.0,0.0,0.0,-3.6353,-3.3815,-3.1846,-3.0457,-2.9818,-3.0101,-3.0407,-3.079,-3.1505,-3.1632,-3.1096,-3.1448,0.0,0.0,0.0,0.0,0.0,-3.6546,-3.7746,-3.9679,-3.8338,-3.8132,0.0,0.0,0.0,-3.5931,-3.4514,-3.4553,-3.5429,-3.4698,-3.4705,-3.4826,-3.352,-3.3169,-3.3194,-3.224,-3.2315,-3.2692,-3.2114,-3.1938,-3.1763,-3.0884,-3.1235,0.0,-3.1712,0.0,0.0,0.0,0.0,0.0,0.0,0.0,0.0,0.0,0.0,0.0,0.0,0.0,0.0,0.0,0.0,0.0,0.0,0.0,0.0,0.0,0.0,0.0,0.0,0.0,0.0,0.0,0.0,0.0,-3.6958,-3.6606,-3.6329,-3.6081,-3.5508,-3.4956,-3.4449,-3.4449,-3.4449,-3.4449,-3.4449,-3.364,-3.2183,-3.1329,-2.9976,-2.8266,-2.7399,-2.7422,-2.8066,-2.7826,-2.7963,-2.8301,-2.8301,-2.8301,-2.8301,-2.8301,-2.8301,-2.8301,0.0,0.0,0.0,0.0,0.0,0.0,0.0,0.0,-3.6716,-3.7315,0.0,0.0,0.0,0.0,0.0,-3.3879,-3.3052,-3.1856,-3.0036,-3.0733,-3.1267,-3.1267,0.0,0.0,0.0,0.0,0.0,0.0,0.0,0.0,0.0,0.0,-3.7612,-4.1178,-3.8407,-3.7816,-3.8768,0.0,-3.7255,-3.7225,0.0,-3.5564,-3.5764,-3.6727,-3.7154,-3.6983,-3.5328,-3.5056,-3.5082,-3.2416,-3.1863,-3.2215,-3.1612,-3.1386,-3.126,-3.0733,-3.0959,0.0,0.0,0.0,0.0,0.0,0.0,0.0,0.0,0.0,0.0,0.0,0.0,0.0,0.0,0.0,0.0,0.0,0.0,0.0,0.0,0.0,0.0,0.0,0.0,0.0,0.0,0.0,0.0,0.0,-3.6405,-3.6405,-3.638,-3.6355,-3.6056,-3.5458,-3.4931,-3.4424,-3.3872,-3.3872,-3.3872,-3.3872,-3.3872,-3.2817,-3.09,-3.09,-2.9443,-2.7024,-2.6973,-2.7226,-2.7689,-2.7689,-2.7891,-2.8281,-2.8281,-2.8281,-2.8281,-2.8281,-2.8281,-2.8281,0.0,0.0,0.0,0.0,0.0,0.0,-3.6567,-3.6477,-3.6537,0.0,0.0,0.0,-3.7674,-3.691,-3.6106,-3.5404,-3.4125,-3.3111,-3.2587,-3.2336,-3.2427,-3.2901,-3.3591,-3.3919,-3.3895,-3.4287,-3.4536,-3.4536,-3.4698,-3.5494,-3.6892,-3.7111,-3.8038,0.0,-3.9027,-3.8539,-3.7971,-3.7397,0.0,-3.9609,-3.7573,-3.776,0.0,0.0,0.0,-3.7098,-3.5775,-3.5357,-3.5382,-3.4605,-3.4455,-3.4279,-3.2541,-3.1461,-3.0733,-3.0181,-3.0683,-3.1185,-3.0256,0.0,0.0,0.0,0.0,0.0,0.0,0.0,0.0,0.0,0.0,0.0,0.0,0.0,0.0,0.0,0.0,0.0,0.0,0.0,0.0,0.0,0.0,0.0,0.0,0.0,0.0,0.0,-3.6405,-3.6182,-3.578,-3.5403,-3.4926,-3.4374,-3.4198,-3.3847,-3.3319,-3.3294,-3.3294,-3.3294,-3.3294,-3.2558,-3.1108,-3.0215,-2.8932,-2.7352,-2.6467,-2.6348,-2.6758,-2.707,-2.7441,-2.7885,-2.7885,-2.7885,-2.7871,-2.8184,-2.8105,-2.7943,0.0,0.0,0.0,0.0,0.0,-3.7704,-3.7345,-3.7285,-3.7285,0.0,0.0,0.0,-3.7434,-3.7163,-3.6733,-3.6086,-3.5146,-3.4329,-3.3614,-3.3605,-3.379,-3.4192,-3.4711,-3.5189,-3.5517,-3.5652,-3.5753,-3.5753,-3.5753,-3.6309,-3.7389,-3.7244,-3.7988,-3.9389,0.0,0.0,0.0,0.0,0.0,0.0,-3.8753,0.0,0.0,-3.9298,-3.9152,0.0,0.0,-3.7794,-3.718,-3.6276,-3.5302,-3.4198,-3.2416,-3.1763,-3.1486,-3.0683,-3.1235,-3.1863,-3.0758,-3.1311,-3.224,0.0,0.0,0.0,-3.3596,-3.3545,0.0,0.0,0.0,0.0,0.0,0.0,0.0,0.0,0.0,0.0,0.0,0.0,0.0,0.0,0.0,0.0,0.0,-3.6157,-3.6006,-3.6006,-3.5805,-3.5529,-3.5182,-3.4675,-3.4223,-3.3897,-3.3671,-3.3395,-3.3111,-3.3111,-3.3111,-3.3111,-3.3111,-3.2413,-3.1178,-2.9943,-2.8727,-2.7552,-2.6435,-2.6055,-2.6152,-2.6582,-2.7012,-2.7402,-2.7402,-2.7402,-2.7441,-2.7871,-2.7754,-2.7461,0.0,0.0,-3.9373,-3.9373,-3.8841,-3.8392,-3.8392,-3.8392,-3.8392,0.0,-3.8512,-3.8392,-3.7793,-3.8272,-3.8074,-3.67,-3.6396,-3.5662,-3.42,-3.4775,-3.5195,-3.5253,-3.5767,-3.6368,-3.7061,-3.6749,-3.6565,-3.6565,-3.6565,-3.706,-3.7956,-3.7021,-3.7911,-4.021,0.0,0.0,0.0,0.0,0.0,-3.7075,-3.9579,-4.0487,0.0,0.0,-4.2487,-4.2482,-4.1955,-4.1031,-3.9661,-3.759,-3.5332,-3.3283,-3.2055,-3.224,-3.2692,-3.1687,-3.2089,-3.2667,-3.1662,-3.1838,-3.2516,-3.3319,-3.2541,0.0,-3.3244,-3.2817,-3.2114,0.0,0.0,0.0,0.0,0.0,0.0,0.0,0.0,0.0,0.0,0.0,0.0,0.0,0.0,0.0,-3.6229,-3.573,-3.5408,-3.5408,-3.4906,-3.4625,-3.4625,-3.4098,-3.3796,-3.3796,-3.3345,-3.3111,-3.3111,-3.3111,-3.3111,-3.3111,-3.3111,-3.2525,-3.1356,-2.9988,-2.8819,-2.7741,-2.6752,-2.6094,-2.5713,-2.6152,-2.6562,-2.6953,-2.6953,-2.6953,-2.6992,-2.7441,-2.7324,-2.7012,0.0,-3.9373,-3.9373,-3.9373,-3.8841,-3.8392,-3.8392,-3.8392,-3.8392,-3.8392,-3.9349,-3.9948,-3.9828,-3.9918,-4.0084,-4.0323,-3.8858,-3.7807,-3.7482,-3.6674,-3.645,-3.6891,-3.704,-3.7664,-3.8882,-3.8818,-3.8767,-3.8767,-3.8767,-3.8907,-3.9053,-3.8841,-3.9076,-3.9523,0.0,0.0,0.0,0.0,0.0,-3.6816,-3.9395,0.0,-4.4091,-4.2979,-4.2553,-4.2509,-4.1903,-4.1214,-4.0314,-3.8929,-3.7306,-3.5557,-3.39,-3.2641,-3.1687,-3.1461,-3.1537,-3.1662,-3.1461,-3.2139,-3.2641,-3.1537,-3.2014,0.0,-3.1486,-3.1411,-3.1562,0.0,0.0,0.0,0.0,0.0,0.0,0.0,0.0,0.0,0.0,0.0,0.0,0.0,0.0,0.0,-3.5052,-3.4951,-3.4831,-3.4831,-3.4374,-3.4073,-3.4073,-3.3545,-3.3244,-3.3244,-3.3144,-3.3111,-3.3111,-3.3111,-3.3111,-3.3111,-3.3111,-3.2982,-3.2655,-3.0418,-2.9258,-2.8912,-2.6749,-2.5771,-2.5693,-2.5791,-2.6113,-2.6504,-2.6504,-2.6504,-2.6562,-2.6992,-2.6875,-2.6562,-3.9313,-3.9373,-3.9373,-3.9373,-3.914,-3.8901,-3.8901,-3.8901,-3.8901,-3.8901,-4.0068,-4.0636,-3.9978,-4.0487,-4.0756,-4.0427,-3.9469,-3.8601,-3.7943,-3.7315,-3.6956,-3.6956,-3.7255,-3.7883,-3.8871,-3.926,-3.9373,-3.9373,-3.9373,-3.9373,-3.9373,-3.9373,-3.923,-3.8871,-3.8212,0.0,0.0,0.0,-3.7464,-3.7674,-4.0307,0.0,-4.2931,-4.3289,-4.3478,-4.3453,-4.3473,-4.2317,-4.0426,-3.8399,-3.7142,0.0,-3.3788,-3.3244,-3.3294,-3.2466,-3.2416,-3.2591,-3.2315,-3.2641,0.0,-3.239,-3.2466,0.0,0.0,-3.1411,-3.1085,0.0,0.0,0.0,0.0,0.0,0.0,0.0,0.0,0.0,0.0,0.0,0.0,0.0,0.0,0.0,-3.4299,-3.4073,-3.3771,-3.3495,-3.347,-3.3495,-3.3495,-3.3262,-3.3111,-3.3111,-3.3111,-3.3111,-3.3111,-3.3111,-3.3111,-3.3111,-3.3111,-3.3111,-3.3025,-3.1134,-2.9943,-2.9304,-2.7437,-2.6304,-2.5693,-2.5693,-2.581,-2.6055,-2.6055,-2.6055,-2.6113,-2.6543,-2.6426,-2.6133,-3.92,-3.923,-3.923,-3.923,-3.923,-3.923,-3.923,-3.9313,-3.9373,-3.9373,-4.0576,-4.0965,-3.9918,-4.0756,-4.1115,-4.0427,-3.9679,-3.8931,-3.8212,-3.7584,-3.7075,-3.6686,-3.7015,-3.7584,-3.8362,-3.8931,-3.929,-3.9373,-3.9373,-3.9313,-3.923,-3.923,-3.8841,-3.8182,0.0,0.0,0.0,0.0,0.0,-3.8242,0.0,-4.1302,-4.0995,-4.312,-4.3928,-4.4018,-4.4526,-4.296,-4.0241,-3.7801,-3.6653,-3.5801,-3.333,-3.3502,0.0,0.0,0.0,0.0,0.0,0.0,0.0,0.0,0.0,-3.2842,0.0,0.0,0.0,0.0,0.0,0.0,0.0,0.0,0.0,0.0,0.0,0.0,0.0,0.0,0.0,0.0,0.0,0.0,0.0,-3.3244,-3.2667,-3.2089,-3.2591,-3.2918,-3.2918,-3.2918,-3.2968,-3.3111,-3.3111,-3.3111,-3.3111,-3.3111,-3.3111,-3.3111,-3.3111,-3.3111,-3.3025,-3.1557,-3.0305,-2.9326,-2.7861,-2.6668,-2.5693,-2.5693,-2.5693,-2.5693,-2.5693,-2.5693,-2.5732,-2.6133,-2.6035,-2.5732,-3.8392,-3.8512,-3.8512,-3.8512,-3.8512,-3.8512,-3.8512,-3.902,-3.9373,-3.9373,-4.0576,-4.1324,-4.1175,-4.1294,-4.2013,-4.3629,-4.0546,-3.92,-4.0816,-3.8212,-3.6806,-3.7285,-3.6836,-3.7165,-3.8362,-3.8452,-3.8811,-3.9373,-3.9373,-3.911,-3.8512,-3.8512,-3.8153,0.0,-3.6866,0.0,0.0,0.0,-3.6507,0.0,-3.8272,-4.0194,0.0,-4.25,-4.262,-4.262,-4.271,-4.1518,-3.9779,0.0,-3.7342,-3.5486,0.0,-3.2867,-3.2014,-3.2842,0.0,0.0,0.0,0.0,0.0,0.0,-3.3753,-3.448,0.0,0.0,-3.1788,-3.0884,0.0,0.0,0.0,0.0,0.0,0.0,0.0,0.0,0.0,0.0,0.0,0.0,0.0,0.0,0.0,-3.2641,-3.2089,-3.1512,-3.1989,-3.2315,-3.2315,-3.2315,-3.2541,-3.3068,-3.3111,-3.3111,-3.3111,-3.3111,-3.3111,-3.3111,-3.3111,-3.3111,-3.3025,-3.0687,-2.9533,-2.9258,-2.6935,-2.582,-2.5693,-2.5693,-2.5693,-2.5693,-2.5693,-2.5693,-2.5693,-2.5752,-2.5732,-2.5693,-3.7704,-3.7823,-3.7823,-3.7823,-3.7823,-3.7943,-3.8332,-3.929,-3.9978,-3.9978,-4.0816,-4.1572,0.0,0.0,0.0,-4.3159,0.0,-4.0307,0.0,0.0,-3.7883,-3.8542,-3.7943,-3.8033,-3.896,-3.8601,-3.8542,-3.8811,-3.8452,-3.8093,-3.7823,-3.7823,-3.7494,0.0,-3.6596,0.0,-3.6327,0.0,-3.6477,0.0,0.0,0.0,0.0,-4.0367,-4.0876,-4.1235,-4.1235,-4.0586,-3.9549,0.0,-3.7346,0.0,0.0,0.0,0.0,-3.2616,0.0,0.0,0.0,0.0,0.0,0.0,0.0,0.0,-3.2139,0.0,-3.1235,0.0,0.0,0.0,0.0,0.0,0.0,0.0,-3.1009,0.0,0.0,0.0,0.0,0.0,0.0,0.0,0.0,0.0,0.0,0.0,-3.1436,-3.1738,-3.1738,-3.1738,-3.1989,-3.2566,-3.2566,-3.2742,-3.3111,-3.3111,-3.3111,-3.3111,-3.3111,-3.3111,-3.3025,-3.1267,-3.0033,-2.9304,-2.7579,-2.638,-2.5693,-2.5693,-2.5693,-2.5693,-2.5693,-2.5693,-2.5693,-2.5693,-2.5693,-2.5693,-3.6806,-3.7045,-3.7165,-3.7165,-3.7285,-3.7704,-3.8542,-3.9499,0.0,0.0,0.0,0.0,-4.2321,-4.271,0.0,0.0,-4.2402,-4.1624,0.0,0.0,-3.8841,-3.8631,-3.8482,-3.8452,-3.8601,-3.8302,-3.8123,-3.8123,-3.7644,-3.7404,0.0,-3.7225,-3.6926,-3.6477,0.0,-3.6207,-3.5818,0.0,-3.6477,-3.6507,-3.6776,-3.6896,-3.7015,-3.8362,-3.917,-3.9589,-3.9798,-3.9312,-3.8486,-3.789,-3.6619,0.0,-3.378,-3.3378,-3.3242,0.0,0.0,0.0,-3.2827,0.0,0.0,0.0,0.0,0.0,0.0,0.0,0.0,0.0,0.0,0.0,0.0,0.0,0.0,0.0,0.0,-3.0507,0.0,0.0,0.0,0.0,0.0,0.0,0.0,0.0,0.0,-3.0658,-3.0959,-3.1185,-3.1185,-3.1185,-3.1486,-3.219,-3.2215,-3.2491,-3.3111,-3.3111,-3.3111,-3.3111,-3.3111,-3.3111,-3.3068,-3.1777,-3.053,-2.9304,-2.8143,-2.6887,-2.5693,-2.5693,-2.5693,-2.5693,-2.5693,-2.5693,-2.5693,-2.5693,-2.5693,-2.5693,-3.5579,-3.6088,0.0,0.0,0.0,0.0,0.0,0.0,0.0,0.0,0.0,0.0,0.0,0.0,0.0,0.0,0.0,-4.3,-4.2381,0.0,-3.923,0.0,0.0,-3.7823,-3.6596,-3.7135,-3.7434,-3.7434,-3.7434,-3.7404,0.0,0.0,-3.6507,-3.6477,-3.6477,-3.6477,-3.6447,-3.6477,-3.6477,-3.6447,-3.5818,-3.5579,-3.5699,0.0,-3.7494,-3.7584,-3.8212,0.0,0.0,-3.6654,-3.5083,0.0,0.0,0.0,0.0,0.0,0.0,0.0,0.0,0.0,0.0,-3.2365,0.0,0.0,0.0,0.0,-3.1361,0.0,0.0,0.0,0.0,-3.2516,-3.2315,-3.2893,-3.2064,0.0,0.0,0.0,0.0,0.0,0.0,0.0,0.0,0.0,-3.1185,-3.0658,-3.0633,-3.0633,-3.0633,-3.0633,-3.111,-3.219,-3.2215,-3.2491,-3.3111,-3.3111,-3.3111,-3.3111,-3.3111,-3.3111,-3.3068,-3.1777,-3.053,-2.9304,-2.8143,-2.6887,-2.5693,-2.5693,-2.5693,-2.5693,-2.5693,-2.5693,-2.5693,-2.5693,-2.5693,-2.5693,-3.6148,-3.6327,0.0,0.0,0.0,0.0,0.0,-3.9499,0.0,0.0,0.0,0.0,0.0,-4.6292,-4.6381,0.0,0.0,-4.4825,-4.3718,-4.2432,0.0,0.0,0.0,-4.0157,0.0,-3.8631,-3.7853,-3.7404,-3.6567,0.0,0.0,0.0,0.0,-3.5848,0.0,-3.6237,0.0,0.0,0.0,0.0,0.0,-3.5759,-3.6148,0.0,-3.6417,-3.6836,-3.7045,-3.702,0.0,-3.7128,-3.6158,-3.4845,-3.4751,-3.3724,-3.2488,-3.2304,-3.2201,-3.2087,0.0,0.0,-3.2842,-3.1913,0.0,0.0,0.0,0.0,0.0,0.0,0.0,0.0,0.0,-3.1788,-3.1738,-3.1938,-3.1361,-3.0884,0.0,0.0,0.0,0.0,0.0,0.0,0.0,0.0,0.0,-3.0105,-3.008,-3.008,-3.008,-3.008,-3.0407,-3.1135,-3.116,-3.1587,-3.2491,-3.2516,-3.2692,-3.3111,-3.3111,-3.3111,-3.3068,-3.1777,-3.1,-3.0485,-2.8448,-2.7363,-2.6887,-2.6062,-2.5693,-2.5693,-2.5693,-2.5693,-2.5693,-2.5693,-2.5693,-2.5693,-3.6178,0.0,0.0,0.0,0.0,0.0,0.0,0.0,0.0,0.0,-4.4257,0.0,-4.7369,0.0,-4.7459,0.0,-4.701,-4.6142,-4.4067,-4.3838,0.0,-4.1944,-4.1803,-4.1212,0.0,0.0,-3.8093,-3.6716,0.0,-3.6058,0.0,0.0,0.0,0.0,0.0,-3.6118,-3.5579,0.0,-3.6477,0.0,0.0,-3.5759,0.0,0.0,-3.5908,-3.6447,0.0,-3.6387,-3.6716,-3.6716,-3.6075,-3.5158,-3.4761,-3.3776,-3.2577,-3.1902,-3.1772,-3.1826,-3.1672,-3.1899,0.0,-3.1705,-3.1519,0.0,-3.0733,0.0,-3.1135,0.0,0.0,0.0,0.0,0.0,-3.1612,-3.1411,-3.0959,-3.0557,0.0,-3.0005,0.0,0.0,0.0,0.0,0.0,0.0,-3.0658,-3.0131,-2.9905,-2.9804,0.0,0.0,-3.0055,-3.0608,-3.0608,-3.1035,-3.1913,-3.2114,-3.2416,-3.2767,-3.2993,-3.3111,-3.3068,-3.2239,-3.1645,-3.1134,-2.9555,-2.8634,-2.819,-2.7342,-2.703,-2.703,-2.703,-2.703,-2.6935,-2.6014,-2.5693,-2.5791,-3.5669,0.0,0.0,0.0,-3.7045,0.0,0.0,0.0,-4.259,0.0,-4.5185,-4.6369,-4.6459,-4.7638,-4.7878,-4.6591,-4.7578,-4.692,-4.3648,-4.5203,0.0,0.0,-4.1414,-4.0905,-3.7674,0.0,0.0,0.0,0.0,0.0,0.0,0.0,0.0,0.0,-3.6477,0.0,-3.5549,-3.6207,-3.6118,-3.5519,-3.5519,-3.5519,-3.5549,-3.5519,-3.5908,-3.6387,-3.5729,-3.5519,-3.5519,-3.5519,-3.4872,-3.4047,-3.4047,-3.3429,-3.2486,-3.1609,-3.1304,-3.1325,-3.1815,-3.1319,-3.0871,-3.1719,-3.1626,0.0,0.0,0.0,-3.1989,0.0,0.0,0.0,0.0,0.0,0.0,-3.1461,-3.0959,-3.0432,-2.988,0.0,-3.0005,0.0,0.0,0.0,0.0,-3.1361,-3.1135,-3.0608,-3.008,-2.9804,0.0,0.0,-3.003,-3.0557,-3.0583,-3.0834,-3.1361,-3.1888,-3.219,-3.2215,-3.2792,-3.3111,-3.3111,-3.3111,-3.2413,-3.1311,-3.1223,-3.053,-2.9487,-2.9373,-2.9373,-2.9373,-2.9373,-2.9396,-2.9096,-2.6696,-2.5791,-2.5965,-3.6357,-3.6596,-3.7135,0.0,-3.7614,-3.7853,0.0,0.0,0.0,0.0,-4.6112,-4.7608,-4.903,-4.9478,-4.9404,-4.8596,-4.8386,0.0,0.0,0.0,0.0,-4.312,-4.306,-4.2222,-4.0397,-4.0217,-3.932,-3.7644,0.0,0.0,-3.6477,0.0,0.0,0.0,0.0,0.0,-3.5549,-3.6207,-3.6118,-3.5519,-3.5519,-3.5789,-3.6178,0.0,-3.5908,-3.6387,-3.5729,-3.5519,-3.5519,-3.5519,-3.5326,-3.51,-3.51,-3.4442,-3.3602,-3.3359,-3.26,-3.1747,-3.1483,-3.1293,-3.1165,-3.1001,-3.0907,-3.0783,0.0,0.0,0.0,0.0,0.0,0.0,0.0,0.0,0.0,-3.1411,-3.0959,-3.0432,-2.988,0.0,0.0,-3.0557,0.0,0.0,-3.0809,-3.0809,-3.0583,-3.0055,-2.988,-2.9804,-2.9804,0.0,0.0,-3.0005,-3.0005,-3.0256,-3.0809,-3.1336,-3.1813,-3.2215,-3.2792,-3.3111,-3.3111,-3.3111,-3.2939,-3.2568,-3.1601,-3.1045,-3.0641,-2.933,-2.8813,-2.8813,-2.8813,-2.9037,-2.9212,-2.7673,-2.7125,-2.703,-3.6596,0.0,0.0,-3.8392,0.0,0.0,-4.0157,-4.0816,0.0,-4.4556,-4.6292,0.0,-4.8402,-4.9,-4.9134,-4.8476,-4.8057,0.0,-4.6381,0.0,0.0,-4.4347,-4.3648,-4.2581,-4.0995,-4.0576,0.0,-3.7973,0.0,0.0,-3.6477,0.0,0.0,0.0,0.0,-3.5848,-3.5519,-3.5908,-3.5848,-3.5519,-3.5519,-3.5729,0.0,-3.5639,-3.5729,-3.5998,-3.5639,-3.5519,-3.5519,-3.5519,-3.5519,-3.5424,-3.4971,-3.4476,-3.3842,-3.3017,-3.2227,-3.1589,-3.1272,-3.0971,-3.0727,-3.0829,-3.0722,-3.0608,-3.0608,-3.0783,-3.0884,0.0,-3.1035,-3.126,0.0,0.0,0.0,0.0,0.0,0.0,0.0,0.0,0.0,0.0,-3.0256,0.0,-3.0256,-3.0482,-3.0382,-2.9829,-3.0005,-3.0055,0.0,0.0,0.0,-2.9804,-3.003,-3.0181,-3.0256,-3.1009,-3.1436,-3.1512,-3.2315,-3.2692,-3.2717,-3.2968,-3.3111,-3.3068,-3.2326,-3.204,-3.1928,-3.0958,-3.0575,-3.0552,-3.0272,-3.0343,-3.047,-2.9263,-2.8644,-2.8236,-3.6836,0.0,0.0,0.0,0.0,0.0,0.0,-4.2231,0.0,-4.4287,0.0,-4.7219,-4.6651,-4.7608,-4.8057,-4.7489,0.0,-4.692,-4.6309,-4.613,-4.5502,-4.4377,-4.3559,-4.2312,-4.0427,-4.0307,-3.932,0.0,-3.7315,-3.7015,-3.6477,0.0,0.0,0.0,0.0,0.0,0.0,-3.5519,-3.5519,-3.5519,-3.5519,-3.5519,-3.5519,-3.5519,-3.5519,-3.5519,-3.5519,-3.5519,-3.5519,-3.5519,-3.5519,-3.5359,-3.4476,-3.4211,-3.3905,-3.2263,-3.1683,-3.1573,-3.1573,-3.0809,-3.0177,-3.1007,-3.0855,-3.0507,-3.0507,-3.0859,-3.106,-3.0608,-3.0859,-3.0909,0.0,0.0,0.0,0.0,0.0,0.0,0.0,0.0,0.0,0.0,0.0,0.0,0.0,-3.0256,-3.0306,-2.9829,-3.0231,0.0,0.0,0.0,0.0,-2.9804,-3.0256,-3.0306,-2.9905,-3.0834,-3.111,-3.0733,-3.1662,-3.2114,-3.2114,-3.2692,-3.2918,-3.291,-3.2943,-3.2918,-3.2842,-3.2792,-3.2742,-3.2692,-3.2114,-3.1989,-3.1964,-3.0657,-2.9989,-2.9444,-3.8093,0.0,0.0,0.0,0.0,-4.1743,-4.2821,-4.3539,-4.4257,-4.5035,-4.686,-4.8057,-4.7967,-4.8147,-4.8237,-4.8117,-4.713,0.0,0.0,0.0,0.0,-4.4317,-4.318,-4.1863,-4.0427,-3.9858,-3.8871,-3.7404,-3.6896,-3.6596,-3.6477,0.0,0.0,0.0,0.0,0.0,-3.5519,-3.5519,0.0,-3.5519,-3.5519,-3.5519,-3.5519,-3.5519,-3.5519,-3.5519,-3.5519,-3.5519,-3.5519,-3.5519,-3.5519,-3.5457,-3.5294,-3.5261,-3.5166,-3.4839,-3.4143,-3.3533,-3.3533,-3.2236,-3.1007,-3.1167,-3.0546,-2.993,-2.993,-3.0005,-3.0055,-2.9955,-3.0005,-3.0005,-2.9829,0.0,0.0,0.0,0.0,0.0,0.0,0.0,0.0,0.0,0.0,-2.998,0.0,0.0,-2.9905,-2.9804,-2.988,0.0,0.0,0.0,0.0,0.0,-2.988,0.0,0.0,0.0,-3.0909,-3.126,-3.1436,-3.1537,-3.1562,-3.2114,-3.2114,-3.1712,-3.2164,-3.2114,-3.1637,-3.121,-3.106,-3.0984,-3.0432,-3.0758,-3.1339,-2.9694,-2.9928,-3.0646,0.0,0.0,0.0,0.0,0.0,0.0,0.0,-4.4915,-4.5334,-4.5304,-4.6142,-4.6741,-4.6741,-4.704,-4.7279,-4.7279,-4.6352,-4.5783,-4.5783,-4.4855,-4.4127,-4.3798,-4.288,-4.1632,-3.9918,-3.923,-3.8392,-3.7404,-3.6447,-3.6148,-3.6477,-3.5818,0.0,0.0,0.0,-3.5519,0.0,0.0,0.0,-3.5519,-3.5519,-3.5519,-3.5519,-3.5519,-3.5519,-3.5519,-3.5519,-3.5519,-3.5519,-3.5519,-3.5519,-3.5519,-3.5519,-3.5519,-3.5392,-3.4872,-3.4409,-3.3876,-3.3429,-3.2236,-3.1204,-3.1204,-3.0495,-2.9804,-2.9804,-2.9804,-2.9804,-2.9804,-2.9804,-2.9804,-2.9804,-3.003,0.0,0.0,0.0,0.0,0.0,0.0,-2.9905,0.0,0.0,0.0,0.0,0.0,0.0,0.0,0.0,-3.0105,-2.9804,0.0,-3.008,0.0,0.0,0.0,0.0,0.0,0.0,-3.0557,-3.0859,-3.0984,-3.1009,-3.1537,-3.1637,-3.1411,-3.1662,-3.1637,-3.1361,-3.111,-3.0859,-3.0583,-3.0331,-3.0532,-3.0879,-3.0056,-3.0251,-3.0629,0.0,-4.0038,0.0,0.0,-4.288,0.0,-4.4796,-4.5574,-4.5963,-4.5574,-4.5394,-4.5304,-4.5304,-4.5783,-4.6112,-4.6112,-4.5364,-4.4885,-4.4885,-4.4137,-4.3449,-4.2901,-4.2162,-4.0935,-3.923,-3.8392,-3.7674,-3.7015,-3.5998,-3.5759,-3.6267,-3.5759,0.0,0.0,0.0,0.0,0.0,0.0,-3.5519,-3.5519,-3.5519,-3.5519,-3.5519,-3.5519,-3.5519,-3.5519,-3.5519,-3.5519,-3.5519,-3.5519,-3.5519,-3.5519,-3.5519,-3.5519,-3.5326,-3.4279,-3.3979,-3.3808,-3.2841,-3.1938,-3.1204,-3.1204,-3.0495,-2.9804,-2.9804,-2.9804,-2.9804,-2.9804,-2.9804,-2.9804,-2.9804,-3.0156,0.0,0.0,0.0,0.0,0.0,0.0,-2.9804,0.0,0.0,0.0,-2.9804,0.0,0.0,0.0,0.0,-3.0256,-2.9804,-3.0206,-3.0256,0.0,0.0,-3.0281,-2.998,0.0,-3.0281,-2.998,-3.0281,-3.0432,-3.0457,-3.0984,-3.116,-3.106,-3.1185,-3.116,-3.106,-3.106,-3.0809,-3.0432,-3.0432,-3.0432,-3.0432,-3.0432,-3.0432,-3.0204,0.0,0.0,0.0,0.0,0.0,0.0,-4.3469,-4.4586,-4.5603,-4.6142,-4.5693,-4.5304,-4.5304,-4.5364,-4.5394,-4.5394,-4.4227,-4.3469,-4.3469,-4.2342,-4.1624,-4.1564,-4.0367,-3.932,-3.8512,-3.7285,-3.6357,-3.5699,-3.5579,-3.5549,0.0,-3.5519,0.0,0.0,0.0,0.0,0.0,-3.5519,-3.5519,-3.5519,-3.5519,-3.5519,-3.5519,-3.5519,-3.5519,-3.5519,-3.5519,-3.5519,-3.5519,-3.5519,-3.5519,-3.5519,-3.5519,-3.5519,-3.5326,-3.4279,-3.3979,-3.3808,-3.2841,-3.1938,-3.1204,-3.1204,-3.0495,-2.9804,-2.9804,-2.9804,-2.9804,-2.9804,-2.9804,-2.9804,-2.9804,-2.9829,-2.9854,0.0,0.0,0.0,0.0,0.0,-2.9804,-2.9804,0.0,0.0,-2.9804,-2.9804,0.0,0.0,-2.9854,-2.9854,-2.9804,-2.9854,-2.9854,-2.9804,-2.9854,-3.008,-3.0532,-3.0105,-3.0105,-3.0532,-3.008,-2.9854,-2.988,-3.0432,-3.0407,-2.998,-3.0457,-3.0407,-2.9955,-2.9955,-2.9905,-2.9854,-2.9854,-2.9854,-2.9854,-2.9854,-2.9854,-2.9841,0.0,0.0,0.0,0.0,0.0,0.0,0.0,-4.4616,-4.4796,-4.5065,-4.5214,-4.5304,-4.5304,-4.4945,-4.4556,-4.4137,-4.3269,-4.2581,-4.2192,-4.1654,-4.1205,-4.0816,-4.0277,-3.932,-3.7823,-3.7315,-3.6537,0.0,0.0,0.0,-3.5519,0.0,0.0,0.0,0.0,-3.5519,-3.5519,-3.5519,-3.5519,-3.5519,-3.5519,-3.5519,-3.5519,-3.5519,-3.5519,-3.5519,-3.5519,-3.5519,-3.5519,-3.5519,-3.5519,-3.5519,-3.5519,-3.5519,-3.5424,-3.5034,-3.4476,-3.391,-3.3533,-3.2343,-3.1204,-3.1204,-3.0495,-2.9804,-2.9804,-2.9804,-2.9804,-2.9804,-2.9804,-2.9804,-2.9804,-2.9804,-2.9804,-2.9804,0.0,0.0,0.0,0.0,0.0,-2.9804,0.0,-2.9804,-2.9804,-2.9804,0.0,0.0,0.0,-2.9804,-2.9804,-2.9804,-2.9804,-2.9804,0.0,-2.9905,-3.0131,-2.9905,-2.9905,-3.0131,-2.9905,-2.9804,-2.9804,-3.003,-3.0005,-2.9804,-3.003,-3.0005,-2.9804,-2.9804,-2.9804,-2.9804,-2.9804,-2.9804,-2.9804,-2.9804,-2.9804,-2.9702,-4.1662,0.0,-4.2013,0.0,-4.329,-4.3618,-4.4586,-4.4317,-4.4018,-4.4018,-4.4436,-4.4706,-4.4706,-4.4137,-4.3539,-4.309,-4.2282,-4.1632,-4.1115,-4.0905,-4.0516,-3.9828,-3.9619,0.0,-3.7165,-3.6956,-3.6417,-3.5519,-3.5519,0.0,0.0,0.0,0.0,0.0,-3.5519,-3.5519,-3.5519,-3.5519,-3.5519,-3.5519,-3.5519,-3.5519,-3.5519,-3.5519,-3.5519,-3.5519,-3.5519,-3.5519,-3.5519,-3.5519,-3.5519,-3.5519,-3.5519,-3.5294,-3.5001,-3.4739,-3.3939,-3.3115,-3.2834,-3.1792,-3.0809,-3.0809,-3.0266,-2.9804,-2.9804,-2.9804,-2.9804,-2.9804,-2.9804,-2.9804,-2.9804,-2.9804,-2.9804,-2.9804,0.0,0.0,0.0,-2.9804,0.0,-2.9804,-2.9804,-2.9804,-2.9804,-2.9804,0.0,0.0,0.0,-2.9804,-2.9804,-2.9804,-2.9804,0.0,0.0,0.0,-2.9804,-2.9804,-2.9804,-2.9804,-2.9804,-2.9804,-2.9804,-2.9804,-2.9804,-2.9804,-2.9804,-2.9804,-2.9804,-2.9804,-2.9804,-2.9804,-2.9804,-2.9804,-2.9804,-2.9804,-2.9804,-2.9663,-4.2261,-4.2381,-4.259,-4.317,-4.329,-4.329,-4.3319,-4.3319,-4.329,-4.329,-4.3319,-4.3319,-4.3319,-4.2761,-4.241,-4.241,-4.1175,-4.0427,-4.0397,-3.9798,-3.914,0.0,0.0,-3.7135,-3.6507,-3.5848,-3.5519,-3.5519,0.0,0.0,-3.5519,0.0,-3.5519,-3.5519,-3.5519,-3.5519,-3.5519,-3.5519,-3.5519,-3.5519,-3.5519,-3.5519,-3.5519,-3.5519,-3.5519,-3.5519,-3.5519,-3.5519,-3.5519,-3.5519,-3.5519,-3.5519,-3.5519,-3.4806,-3.3842,-3.2912,-3.1947,-3.1044,-3.0101,-2.9818,-2.9818,-2.9818,-2.9804,-2.9804,-2.9804,-2.9804,-2.9804,-2.9804,-2.9804,-2.9804,-2.9804,-2.9804,-2.9804,-2.9804,0.0,0.0,0.0,-2.9804,0.0,-2.9804,-2.9804,-2.9804,-2.9804,-2.9804,0.0,0.0,0.0,0.0,0.0,0.0,0.0,-2.9804,-2.9804,0.0,-2.9804,-2.9804,-2.9804,-2.9804,-2.9804,-2.9804,-2.9804,-2.9804,-2.9804,-2.9804,-2.9804,-2.9804,-2.9804,-2.9804,-2.9804,-2.9804,-2.9804,-2.9804,-2.9804,-2.9804,-2.9804,-2.9804,-4.297,-4.303,-4.309,-4.326,-4.329,-4.329,-4.329,-4.329,-4.314,-4.2731,-4.2671,-4.2491,-4.2043,-4.2261,-4.2051,0.0,-4.0636,-4.0008,0.0,-3.8841,-3.8422,-3.7764,-3.7524,-3.7135,-3.6507,-3.6267,-3.5968,-3.5519,0.0,0.0,0.0,-3.5519,-3.5519,-3.5519,-3.5519,-3.5519,-3.5519,-3.5519,-3.5519,-3.5519,-3.5519,-3.5519,-3.5519,-3.5519,-3.5519,-3.5519,-3.5519,-3.5519,-3.5519,-3.5519,-3.5519,-3.5392,-3.4677,-3.4739,-3.4938,-3.4673,-3.3871,-3.2876,-3.1974,-3.123,-3.0582,-2.9972,-2.9804,-2.9804,-2.9804,-2.9804,-2.9804,-2.9804,-2.9804,-2.9804,-2.9804,-2.9804,-2.9804,-2.9804,-2.9804,0.0,-2.9804,0.0,-2.9804,-2.9804,-2.9804,-2.9804,-2.9804,-2.9804,0.0,0.0,0.0,0.0,0.0,0.0,0.0,0.0,-2.9804,0.0,-2.9804,-2.9804,-2.9804,-2.9804,-2.9804,-2.9804,-2.9804,-2.9804,-2.9804,-2.9804,-2.9804,-2.9804,-2.9804,-2.9804,-2.9804,-2.9804,-2.9804,-2.9804,-2.9804,-2.9804,-2.9804,-2.9804,-4.303,-4.311,-4.323,-4.3,-4.314,-4.32,-4.3,-4.297,-4.2821,-4.244,-4.2171,-4.1782,-4.1085,-4.1422,0.0,-4.0457,-3.9948,-3.929,-3.8452,-3.8153,-3.7734,-3.7075,-3.7075,-3.6776,-3.6118,-3.6118,0.0,-3.5519,-3.5519,-3.5519,-3.5519,-3.5519,-3.5519,-3.5519,-3.5519,-3.5519,-3.5519,-3.5519,-3.5519,-3.5519,-3.5519,-3.5519,-3.5519,-3.5519,-3.5519,-3.5519,-3.5519,-3.5519,-3.5519,-3.5519,-3.5519,-3.5392,-3.4773,-3.4971,-3.5294,-3.4206,-3.3185,-3.2299,-3.1683,-3.1119,-3.0507,-2.9934,-2.9804,-2.9804,-2.9804,-2.9804,-2.9804,-2.9804,-2.9804,-2.9804,-2.9804,-2.9804,-2.9804,-2.9804,-2.9804,-2.9804,-2.9804,0.0,-2.9804,0.0,0.0,0.0,0.0,-2.9804,-2.9804,0.0,0.0,0.0,0.0,0.0,0.0,-2.9804,-2.9804,-2.9804,-2.9804,-2.9804,-2.9804,-2.9804,-2.9804,-2.9804,-2.9804,-2.9804,-2.9804,-2.9804,-2.9804,-2.9804,-2.9804,-2.9804,-2.9804,-2.9804,-2.9804,-2.9804,-2.9804,-2.9804,-2.9804,-2.9804,-4.244,-4.2791,-4.3,0.0,-4.2791,0.0,-4.244,-4.2321,-4.2321,-4.2261,-4.1722,-4.1055,-4.0397,-4.0337,-4.0307,-4.0277,0.0,0.0,0.0,-3.7764,-3.7105,-3.6447,-3.6417,-3.6118,-3.5519,-3.5519,-3.5519,-3.5519,-3.5519,-3.5519,-3.5519,-3.5519,-3.5519,-3.5519,-3.5519,-3.5519,-3.5519,-3.5519,-3.5519,-3.5519,-3.5519,-3.5519,-3.5519,-3.5519,-3.5519,-3.5519,-3.5519,-3.5519,-3.5519,-3.5519,-3.5519,-3.5519,-3.5424,-3.5359,-3.4806,-3.2263,-3.0846,-3.0088,-3.0011,-2.9934,-2.9895,-2.9818,-2.9804,-2.9804,-2.9804,-2.9804,-2.9804,-2.9804,-2.9804,-2.9804,-2.9804,-2.9804,-2.9804,-2.9804,-2.9804,-2.9804,-2.9804,-2.9804,-2.9804,0.0,0.0,0.0,-2.9804,-2.9804,-2.9804,0.0,0.0,0.0,0.0,0.0,-2.9804,-2.9804,-2.9804,-2.9804,-2.9804,-2.9804,-2.9804,-2.9804,-2.9804,-2.9804,-2.9804,-2.9804,-2.9804,-2.9804,-2.9804,-2.9804,-2.9804,-2.9804,-2.9804,-2.9804,-2.9804,-2.9804,-2.9804,-2.9804,-2.9804,-2.9804,0.0,0.0,-4.1803,-4.1662,-4.1743,-4.1773,-4.1662,-4.1662,-4.1482,-4.0935,-4.0726,-4.0397,-3.9738,-3.9649,-3.9439,-3.8901,-3.905,-3.8751,-3.7704,-3.7494,-3.6896,-3.5789,-3.5729,-3.5669,-3.5519,-3.5519,-3.5519,-3.5519,-3.5519,-3.5519,-3.5519,-3.5519,-3.5519,-3.5519,-3.5519,-3.5519,-3.5519,-3.5519,-3.5519,-3.5519,-3.5519,-3.5519,-3.5519,-3.5519,-3.5519,-3.5519,-3.5519,-3.5519,-3.5519,-3.5519,-3.5519,-3.5359,-3.461,-3.3842,-3.3429,-3.424,-3.3768,-3.2869,-3.2155,-3.1389,-3.0696,-2.9972,-2.9804,-2.9804,-2.9804,-2.9804,-2.9804,-2.9804,-2.9804,-2.9804,-2.9804,-2.9804,-2.9804,-2.9804,-2.9804,-2.9804,-2.9804,-2.9804,-2.9804,0.0,-2.9804,-2.9804,-2.9804,-2.9804,-2.9804,0.0,0.0,0.0,-2.9804,-2.9804,-2.9804,-2.9804,-2.9804,-2.9804,-2.9804,-2.9804,-2.9804,-2.9804,-2.9804,-2.9804,-2.9804,-2.9804,-2.9804,-2.9804,-2.9804,-2.9804,-2.9804,-2.9804,-2.9804,-2.9804,-2.9804,-2.9804,-2.9804,-2.9804,-2.9804,-2.9804,-4.0995,-4.1175,-4.1294,-4.0995,-4.1175,-4.1294,-4.0965,-4.0935,-4.0816,-4.0457,-4.0127,-3.9709,-3.902,-3.896,-3.8661,-3.8003,-3.8272,-3.8063,-3.7045,-3.6716,-3.6237,-3.5549,-3.5519,-3.5519,-3.5519,-3.5519,-3.5519,-3.5519,-3.5519,-3.5519,-3.5519,-3.5519,-3.5519,-3.5519,-3.5519,-3.5519,-3.5519,-3.5519,-3.5519,-3.5519,-3.5519,-3.5519,-3.5519,-3.5519,-3.5519,-3.5519,-3.5519,-3.5519,-3.5519,-3.5519,-3.5519,-3.5392,-3.4872,-3.4041,-3.3463,-3.4509,-3.3526,-3.1974,-3.1452,-3.0959,-3.0457,-2.9934,-2.9804,-2.9804,-2.9804,-2.9804,-2.9804,-2.9804,-2.9804,-2.9804,-2.9804,-2.9804,-2.9804,-2.9804,-2.9804,-2.9804,-2.9804,-2.9804,-2.9804,-2.9804,-2.9804,-2.9804,-2.9804,-2.9804,-2.9804,-2.9804,-2.9804,0.0,-2.9804,-2.9804,-2.9804,-2.9804,-2.9804,-2.9804,-2.9804,-2.9804,-2.9804,-2.9804,-2.9804,-2.9804,-2.9804,-2.9804,-2.9804,-2.9804,-2.9804,-2.9804,-2.9804,-2.9804,-2.9804,-2.9804,-2.9804,-2.9804,-2.9804,-2.9804,-2.9804,-2.9804,-4.0367,-4.0696,-4.0905,-4.0337,-4.0726,-4.0905,-4.0337,-4.0247,-4.0217,-4.0098,-3.9619,-3.899,-3.8302,-3.8242,-3.7973,-3.7315,-3.7255,-3.7045,-3.6507,-3.5968,-3.5609,-3.5519,-3.5519,-3.5519,-3.5519,-3.5519,-3.5519,-3.5519,-3.5519,-3.5519,-3.5519,-3.5519,-3.5519,-3.5519,-3.5519,-3.5519,-3.5519,-3.5519,-3.5519,-3.5519,-3.5519,-3.5519,-3.5519,-3.5519,-3.5519,-3.5519,-3.5519,-3.5519,-3.5519,-3.5519,-3.5519,-3.5519,-3.5519,-3.4806,-3.3979,-3.3979,-3.2191,-3.0177,-3.0049,-2.9895,-2.9804,-2.9804,-2.9804,-2.9804,-2.9804,-2.9804,-2.9804,-2.9804,-2.9804,-2.9804,-2.9804,-2.9804,-2.9804,-2.9804,-2.9804,-2.9804,-2.9804,0.0,-2.9804,-2.9804,-2.9804,-2.9804,-2.9804,-2.9804,-2.9804,-2.9804,-2.9804,-2.9804,-2.9804,-2.9804,-2.9804,-2.9804,-2.9804,-2.9804,-2.9804,-2.9804,-2.9804,-2.9804,-2.9804,-2.9804,-2.9804,-2.9804,-2.9804,-2.9804,-2.9804,-2.9804,-2.9804,-2.9804,-2.9804,-2.9804,-2.9804,-2.9804,-2.9804,-2.9804,-2.9804,-2.9804,-3.9589,-3.9649,-3.9679,-3.9553,-3.9649,-3.9679,-3.9553,-3.9559,-3.9349,-3.8781,-3.8601,-3.8302,-3.7644,-3.7554,-3.7315,-3.6686,-3.6626,-3.6596,-3.6507,-3.6387,-3.6088,-3.5519,-3.5519,-3.5519,-3.5519,-3.5519,-3.5519,-3.5519,-3.5519,-3.5519,-3.5519,-3.5519,-3.5519,-3.5519,-3.5519,-3.5519,-3.5519,-3.5519,-3.5519,-3.5519,-3.5519,-3.5519,-3.5519,-3.5519,-3.5519,-3.5519,-3.5519,-3.5519,-3.5519,-3.5519,-3.5519,-3.5519,-3.5519,-3.4806,-3.3979,-3.3979,-3.315,-3.201,-3.1193,-3.0419,-2.9804,-2.9804,-2.9804,-2.9804,-2.9804,-2.9804,-2.9804,-2.9804,-2.9804,-2.9804,-2.9804,-2.9804,-2.9804,-2.9804,-2.9804,-2.9804,-2.9804,0.0,-2.9804,-2.9804,-2.9804,-2.9804,-2.9804,-2.9804,-2.9804,-2.9804,-2.9804,-2.9804,-2.9804,-2.9804,-2.9804,-2.9804,-2.9804,-2.9804,-2.9804,-2.9804,-2.9804,-2.9804,-2.9804,-2.9804,-2.9804,-2.9804,-2.9804,-2.9804,-2.9804,-2.9804,-2.9804,-2.9804,-2.9804,-2.9804,-2.9804,-2.9804,-2.9804,-2.9804,-2.9804,-2.9804,-3.9313,-3.9373,-3.9373,-3.9373,-3.9373,-3.9373,-3.9373,-3.9373,-3.917,-3.8482,-3.8392,-3.8003,-3.7015,-3.6926,-3.6656,-3.6028,-3.5968,-3.5968,-3.5968,-3.5968,-3.5818,-3.5519,-3.5519,-3.5519,-3.5519,-3.5519,-3.5519,-3.5519,-3.5519,-3.5519,-3.5519,-3.5519,-3.5519,-3.5519,-3.5519,-3.5519,-3.5519,-3.5519,-3.5519,-3.5519,-3.5519,-3.5519,-3.5519,-3.5519,-3.5519,-3.5519,-3.5519,-3.5519,-3.5519,-3.5519,-3.5519,-3.5392,-3.4872,-3.4041,-3.3122,-3.2629,-3.2164,-3.1756,-3.1315,-3.0507,-2.9804,-2.9804,-2.9804,-2.9804,-2.9804,-2.9804,-2.9804,-2.9804,-2.9804,-2.9804,-2.9804,-2.9804,-2.9804,-2.9804,-2.9804,0.0,-2.9804,-2.9804,-2.9804,-2.9804,-2.9804,-2.9804,-2.9804,-2.9804,-2.9804,-2.9804,-2.9804,-2.9804,-2.9804,-2.9804,-2.9804,-2.9804,-2.9804,-2.9804,-2.9804,-2.9804,-2.9804,-2.9804,-2.9804,-2.9804,-2.9804,-2.9804,-2.9804,-2.9804,-2.9804,-2.9804,-2.9804,-2.9804,-2.9804,-2.9804,-2.9804,-2.9804,-2.9804,-2.9804,-2.9804,-2.9804,-3.8841,-3.896,-3.899,-3.914,-3.917,-3.917,-3.917,-3.917,-3.8871,-3.8063,-3.7943,-3.7524,-3.6387,-3.6267,-3.6058,-3.5549,-3.5519,-3.5519,-3.5519,-3.5519,-3.5519,-3.5519,-3.5519,-3.5519,-3.5519,-3.5519,-3.5519,-3.5519,-3.5519,-3.5519,-3.5519,-3.5519,-3.5519,-3.5519,-3.5519,-3.5519,-3.5519,-3.5519,-3.5519,-3.5519,-3.5519,-3.5519,-3.5519,-3.5519,-3.5519,-3.5519,-3.5519,-3.5519,-3.5519,-3.5519,-3.5519,-3.5359,-3.4576,-3.3842,-3.315,-3.2407,-3.1901,-3.1426,-3.097,-3.0343,-2.9804,-2.9804,-2.9804,-2.9804,-2.9804,-2.9804,-2.9804,-2.9804,-2.9804,-2.9804,-2.9804,-2.9804,-2.9804,-2.9804,0.0,-2.9804,-2.9804,-2.9804,-2.9804,-2.9804,-2.9804,-2.9804,-2.9804,-2.9804,-2.9804,-2.9804,-2.9804,-2.9804,-2.9804,-2.9804,-2.9804,-2.9804,-2.9804,-2.9804,-2.9804,-2.9804,-2.9804,-2.9804,-2.9804,-2.9804,-2.9804,-2.9804,-2.9804,-2.9804,-2.9804,-2.9804,-2.9804,-2.9804,-2.9804,-2.9804,-2.9804,-2.9804,-2.9804,-2.9804,-2.9804,-2.9804,-3.7554,-3.7554,-3.7734,-3.8362,-3.8452,-3.8452,-3.8452,-3.8452,-3.8033,-3.6776,-3.6626,-3.6357,-3.5639,-3.5579,-3.5549,-3.5519,-3.5519,-3.5519,-3.5519,-3.5519,-3.5519,-3.5519,-3.5519,-3.5519,-3.5519,-3.5519,-3.5519,-3.5519,-3.5519,-3.5519,-3.5519,-3.5519,-3.5519,-3.5519,-3.5519,-3.5519,-3.5519,-3.5519,-3.5519,-3.5519,-3.5519,-3.5519,-3.5519,-3.5519,-3.5519,-3.5519,-3.5519,-3.5519,-3.5519,-3.5519,-3.5519,-3.5519,-3.5392,-3.5359,-3.5294,-3.5198,-3.3905,-3.2119,-3.0406,-2.9856,-2.9804,-2.9804,-2.9804,-2.9804,-2.9804,-2.9804,-2.9804,-2.9804,-2.9804,-2.9804,-2.9804,-2.9804,-2.9804,-2.9804,0.0,0.0,-2.9804,-2.9804,-2.9804,-2.9804,-2.9804,-2.9804,-2.9804,-2.9804,-2.9804,-2.9804,-2.9804,-2.9804,-2.9804,-2.9804,-2.9804,-2.9804,-2.9804,-2.9804,-2.9804,-2.9804,-2.9804,-2.9804,-2.9804,-2.9804,-2.9804,-2.9804,-2.9804,-2.9804,-2.9804,-2.9804,-2.9804,-2.9804,-2.9804,-2.9804,-2.9804,-2.9804,-2.9804,-2.9804,-2.9804,-2.9804,-3.7345,-3.7404,-3.7494,-3.7734,-3.7793,-3.7793,-3.7793,-3.7793,-3.7464,-3.6596,-3.6477,-3.6237,-3.5579,-3.5519,-3.5519,-3.5519,-3.5519,-3.5519,-3.5519,-3.5519,-3.5519,-3.5519,-3.5519,-3.5519,-3.5519,-3.5519,-3.5519,-3.5519,-3.5519,-3.5519,-3.5519,-3.5519,-3.5519,-3.5519,-3.5519,-3.5519,-3.5519,-3.5519,-3.5519,-3.5519,-3.5519,-3.5519,-3.5519,-3.5519,-3.5519,-3.5519,-3.5519,-3.5519,-3.5519,-3.5519,-3.5519,-3.5294,-3.4075,-3.3699,-3.3463,-3.2326,-3.1415,-3.0722,-3.0011,-2.9804,-2.9804,-2.9804,-2.9804,-2.9804,-2.9804,-2.9804,-2.9804,-2.9804,-2.9804,-2.9804,-2.9804,-2.9804,-2.9804,-2.9804,0.0,-2.9804,-2.9804,-2.9804,-2.9804,-2.9804,-2.9804,-2.9804,-2.9804,-2.9804,-2.9804,-2.9804,-2.9804,-2.9804,-2.9804,-2.9804,-2.9804,-2.9804,-2.9804,-2.9804,-2.9804,-2.9804,-2.9804,-2.9804,-2.9804,-2.9804,-2.9804,-2.9804,-2.9804,-2.9804,-2.9804,-2.9804,-2.9804,-2.9804,-2.9804,-2.9804,-2.9804,-2.9804,-2.9804,-2.9804,-2.9804,-2.9804,-3.6716,-3.6806,-3.6866,-3.7075,-3.7135,-3.7135,-3.7135,-3.7135,-3.6896,-3.6267,-3.6178,-3.5998,-3.5549,-3.5519,-3.5519,-3.5519,-3.5519,-3.5519,-3.5519,-3.5519,-3.5519,-3.5519,-3.5519,-3.54,-3.519,-3.519,-3.519,-3.519,-3.519,-3.528,-3.5519,-3.5519,-3.5519,-3.5519,-3.5519,-3.5519,-3.5519,-3.5519,-3.5519,-3.5519,-3.5519,-3.5519,-3.5519,-3.5519,-3.5519,-3.5519,-3.5519,-3.5519,-3.5519,-3.5519,-3.5519,-3.5294,-3.3939,-3.329,-3.2735,-3.1119,-3.0457,-3.0254,-3.0254,-3.0024,-2.9804,-2.9804,-2.9804,-2.9804,-2.9804,-2.9804,-2.9804,-2.9804,-2.9804,-2.9804,-2.9804,-2.9804,-2.9804,-2.9804,-2.9804,-2.9804,-2.9804,-2.9804,-2.9804,-2.9804,-2.9804,-2.9804,-2.9804,-2.9804,-2.9804,-2.9804,-2.9804,-2.9804,-2.9804,-2.9804,-2.9804,-2.9804,-2.9804,-2.9804,-2.9804,-2.9804,-2.9804,-2.9804,-2.9804,-2.9804,-2.9804,-2.9804,-2.9804,-2.9804,-2.9804,-2.9804,-2.9804,-2.9804,-2.9804,-2.9804,-2.9804,-2.9804,-2.9804,-2.9804,-2.9804,-2.9804,-3.5519,-3.5519,-3.5699,-3.6357,-3.6477,-3.6477,-3.6477,-3.6477,-3.6237,-3.5579,-3.5519,-3.5519,-3.5519,-3.5519,-3.5519,-3.5519,-3.5519,-3.5519,-3.5519,-3.5519,-3.5519,-3.5519,-3.5519,-3.519,-3.4533,-3.4503,-3.4503,-3.4503,-3.4503,-3.4831,-3.5489,-3.5489,-3.5489,-3.5489,-3.5489,-3.5489,-3.5489,-3.5519,-3.5519,-3.5519,-3.5519,-3.5519,-3.5519,-3.5519,-3.5519,-3.5519,-3.5519,-3.5519,-3.5519,-3.5519,-3.5519,-3.5519,-3.5519,-3.4806,-3.3808,-3.2876,-3.1911,-3.1204,-3.1204,-3.0533,-2.9818,-2.9804,-2.9804,-2.9804,-2.9804,-2.9804,-2.9804,-2.9804,-2.9804,-2.9804,-2.9804,-2.9804,-2.9804,-2.9804,-2.9804,-2.9804,-2.9804,-2.9804,-2.9804,-2.9804,-2.9804,-2.9804,-2.9804,-2.9804,-2.9804,-2.9804,-2.9804,-2.9804,-2.9804,-2.9804,-2.9804,-2.9804,-2.9804,-2.9804,-2.9804,-2.9804,-2.9804,-2.9804,-2.9804,-2.9804,-2.9804,-2.9804,-2.9804,-2.9804,-2.9804,-2.9804,-2.9804,-2.9804,-2.9804,-2.9804,-2.9804,-2.9804,-2.9804,-2.9804,-2.9804,-2.9804,-3.5519,-3.5519,-3.5579,-3.5759,-3.5789,-3.5789,-3.5789,-3.5789,-3.5729,-3.5519,-3.5519,-3.5519,-3.5519,-3.5519,-3.5519,-3.5519,-3.5519,-3.5519,-3.5519,-3.5519,-3.5519,-3.5519,-3.5519,-3.54,-3.522,-3.4711,-3.4503,-3.4503,-3.4054,-3.3903,-3.4113,-3.4113,-3.4113,-3.4113,-3.4592,-3.4771,-3.4831,-3.531,-3.5519,-3.5519,-3.5519,-3.5519,-3.5519,-3.5519,-3.5519,-3.5519,-3.5519,-3.5519,-3.5519,-3.5519,-3.5519,-3.5392,-3.4677,-3.3774,-3.2947,-3.2664,-3.2379,-3.2164,-3.2164,-3.1974,-3.1452,-3.0139,-2.9804,-2.9804,-2.9804,-2.9804,-2.9804,-2.9804,-2.9804,-2.9804,-2.9804,-2.9804,-2.9804,-2.9804,-2.9804,-2.9804,-2.9804,-2.9804,-2.9804,-2.9804,-2.9804,-2.9804,-2.9804,-2.9804,-2.9804,-2.9804,-2.9804,-2.9804,-2.9804,-2.9804,-2.9804,-2.9804,-2.9804,-2.9804,-2.9804,-2.9804,-2.9804,-2.9804,-2.9804,-2.9804,-2.9804,-2.9804,-2.9804,-2.9804,-2.9804,-2.9804,-2.9804,-2.9804,-2.9804,-2.9804,-2.9804,-2.9804,-2.9804,-2.9804,-2.9804,-2.9702,-3.5519,-3.5519,-3.5519,-3.5519,-3.5519,-3.5519,-3.5519,-3.5519,-3.5519,-3.5519,-3.5519,-3.5519,-3.5519,-3.5519,-3.5519,-3.5519,-3.5519,-3.5519,-3.5519,-3.525,-3.522,-3.5489,-3.4981,-3.4831,-3.51,-3.4442,-3.4234,-3.4503,-3.3544,-3.3365,-3.3873,-3.3604,-3.3484,-3.3514,-3.4204,-3.4503,-3.4533,-3.4921,-3.525,-3.5489,-3.522,-3.525,-3.5519,-3.5519,-3.5519,-3.5519,-3.5519,-3.5519,-3.5519,-3.5519,-3.5519,-3.5261,-3.3905,-3.3052,-3.2451,-3.1719,-3.1756,-3.1974,-3.1573,-3.1756,-3.1683,-3.0177,-3.0062,-3.0343,-3.0343,-3.0062,-2.9804,-2.9804,-2.9804,-2.9804,-2.9804,-2.9804,-2.9804,-2.9804,-2.9804,-2.9804,-2.9804,-2.9804,-2.9804,-2.9804,-2.9804,-2.9804,-2.9804,-2.9804,-2.9804,-2.9804,-2.9804,-2.9804,-2.9804,-2.9804,-2.9804,-2.9804,-2.9804,-2.9804,-2.9804,-2.9804,-2.9804,-2.9804,-2.9804,-2.9804,-2.9804,-2.9804,-2.9804,-2.9804,-2.9804,-2.9804,-2.9804,-2.9804,-2.9804,-2.9804,-2.9804,-2.9804,-2.9765,-2.9287,-2.9106,-2.8988,-3.5519,-3.5519,-3.5519,-3.5519,-3.5519,-3.5519,-3.5519,-3.5519,-3.5519,-3.5519,-3.5519,-3.5519,-3.5519,-3.5519,-3.5519,-3.5519,-3.5459,-3.54,-3.54,-3.4771,-3.4711,-3.537,-3.4173,-3.3844,-3.4593,-3.3814,-3.3694,-3.4324,-3.3036,-3.3036,-3.4234,-3.3604,-3.3335,-3.3335,-3.3993,-3.4324,-3.4324,-3.4444,-3.4831,-3.537,-3.4801,-3.4951,-3.5489,-3.5429,-3.54,-3.54,-3.54,-3.54,-3.5429,-3.5489,-3.5459,-3.5106,-3.3401,-3.2841,-3.2514,-3.0835,-3.0921,-3.1389,-3.0533,-3.0921,-3.1352,-3.0381,-3.0771,-3.1278,-3.1093,-3.0495,-2.9895,-2.9818,-2.9856,-2.9895,-2.9818,-2.9804,-2.9804,-2.9804,-2.9804,-2.9804,-2.9804,-2.9804,-2.9804,-2.9804,-2.9804,-2.9804,-2.9804,-2.9804,-2.9804,-2.9804,-2.9804,-2.9804,-2.9804,-2.9804,-2.9804,-2.9804,-2.9804,-2.9804,-2.9804,-2.9804,-2.9804,-2.9804,-2.9804,-2.9804,-2.9804,-2.9804,-2.9804,-2.9804,-2.9804,-2.9804,-2.9804,-2.9804,-2.9804,-2.9804,-2.9804,-2.9804,-2.9663,-2.8648,-2.8267,-2.8108,-3.5519,-3.5519,-3.5519,-3.5519,-3.5519,-3.5519,-3.5519,-3.5519,-3.5519,-3.5519,-3.5519,-3.5519,-3.5519,-3.5519,-3.5519,-3.5519,-3.5011,-3.4743,-3.4743,-3.4083,-3.3993,-3.4713,-3.3933,-3.4053,-3.525,-3.3604,-3.2796,-3.2946,-3.2108,-3.1869,-3.2138,-3.1989,-3.1929,-3.1959,-3.2647,-3.2946,-3.3006,-3.4023,-3.4593,-3.4773,-3.513,-3.537,-3.5459,-3.4921,-3.4743,-3.4743,-3.4743,-3.4743,-3.4771,-3.531,-3.516,-3.4707,-3.4824,-3.4872,-3.4773,-3.4404,-3.4438,-3.4539,-3.4337,-3.4438,-3.4341,-3.3325,-3.2664,-3.1901,-3.0419,-3.0507,-3.0696,-2.9934,-3.0381,-3.0658,-2.9934,-2.9804,-2.9804,-2.9804,-2.9804,-2.9804,-2.9804,-2.9804,-2.9804,-2.9804,-2.9804,-2.9804,-2.9804,-2.9804,-2.9804,-2.9804,-2.9804,-2.9804,-2.9804,-2.9804,-2.9804,-2.9804,-2.9804,-2.9804,-2.9804,-2.9804,-2.9804,-2.9804,-2.9804,-2.9804,-2.9804,-2.9804,-2.9804,-2.9804,-2.9804,-2.9804,-2.9804,-2.9804,-2.9804,-2.9804,-2.9804,-2.9804,-2.974,-2.9546,-2.9443,-2.917,-3.5519,-3.5519,-3.5519,-3.5519,-3.5519,-3.5519,-3.5519,-3.5519,-3.5519,-3.5519,-3.5519,-3.5519,-3.5519,-3.5519,-3.5519,-3.5519,-3.519,-3.4981,-3.4981,-3.4053,-3.3784,-3.4474,-3.3544,-3.3365,-3.4053,-3.3066,-3.2826,-3.3455,-3.2437,-3.1959,-3.1959,-3.166,-3.1511,-3.154,-3.2198,-3.2527,-3.2557,-3.3245,-3.3724,-3.4054,-3.4053,-3.4262,-3.4502,-3.4143,-3.3993,-3.3993,-3.3993,-3.3993,-3.4113,-3.4801,-3.4771,-3.4528,-3.4732,-3.4773,-3.4706,-3.4274,-3.4442,-3.4706,-3.424,-3.4138,-3.3973,-3.3463,-3.2629,-3.1683,-3.0696,-3.0495,-3.0381,-2.9895,-3.0177,-3.0381,-2.9895,-2.9804,-2.9804,-2.9804,-2.9804,-2.9804,-2.9804,-2.9804,-2.9804,-2.9804,-2.9804,-2.9804,-2.9804,-2.9804,-2.9804,-2.9804,-2.9804,-2.9804,-2.9804,-2.9804,-2.9804,-2.9804,-2.9804,-2.9804,-2.9804,-2.9804,-2.9804,-2.9804,-2.9804,-2.9804,-2.9804,-2.9804,-2.9804,-2.9804,-2.9804,-2.9804,-2.9804,-2.9804,-2.9804,-2.9804,-2.9804,-2.9804,-2.9663,-2.8633,-2.7545,-2.6419,-3.5519,-3.5519,-3.5519,-3.5519,-3.5519,-3.5519,-3.5519,-3.5519,-3.5519,-3.5519,-3.5519,-3.5519,-3.5519,-3.5519,-3.5519,-3.5519,-3.528,-3.516,-3.516,-3.3903,-3.3455,-3.4144,-3.2976,-3.2467,-3.2677,-3.2587,-3.3006,-3.3963,-3.2886,-3.2318,-3.2318,-3.175,-3.1511,-3.154,-3.2079,-3.2318,-3.2318,-3.2437,-3.2826,-3.3275,-3.2856,-3.3006,-3.3484,-3.3365,-3.3335,-3.3335,-3.3335,-3.3335,-3.3455,-3.4352,-3.4533,-3.4347,-3.4247,-3.4245,-3.4109,-3.3325,-3.3636,-3.4109,-3.3325,-3.3115,-3.308,-3.2876,-3.2236,-3.1646,-3.1499,-3.0932,-3.0457,-3.033,-3.0406,-3.0457,-3.033,-3.0139,-3.0024,-3.0024,-2.9895,-2.9804,-2.9804,-2.9804,-2.9804,-2.9804,-2.9804,-2.9804,-2.9804,-2.9804,-2.9804,-2.9804,-2.9804,-2.9804,-2.9804,-2.9804,-2.9804,-2.9804,-2.9804,-2.9804,-2.9804,-2.9804,-2.9804,-2.9804,-2.9804,-2.9804,-2.9804,-2.9804,-2.9804,-2.9804,-2.9804,-2.9804,-2.9804,-2.9804,-2.9804,-2.9804,-2.9804,-2.9804,-2.9546,-2.7504,-2.5462,-2.3627,-3.5519,-3.5519,-3.5519,-3.5519,-3.5519,-3.5519,-3.5519,-3.5519,-3.5519,-3.5519,-3.5519,-3.5519,-3.5519,-3.5519,-3.5519,-3.5519,-3.4442,-3.3754,-3.3754,-3.2497,-3.2079,-3.2736,-3.2019,-3.2168,-3.3335,-3.2796,-3.2288,-3.1899,-3.172,-3.163,-3.163,-3.154,-3.1511,-3.1511,-3.16,-3.163,-3.166,-3.2228,-3.2557,-3.2677,-3.3155,-3.3425,-3.3425,-3.2856,-3.2647,-3.2647,-3.2647,-3.2647,-3.2916,-3.4741,-3.4592,-3.3813,-3.4971,-3.5294,-3.5294,-3.5133,-3.5198,-3.5294,-3.5133,-3.51,-3.4905,-3.4041,-3.3705,-3.3429,-3.2593,-3.2912,-3.322,-3.2379,-3.2869,-3.3185,-3.2343,-3.1536,-3.1007,-3.1007,-3.0305,-2.9804,-2.9804,-2.9804,-2.9804,-2.9804,-2.9804,-2.9804,-2.9804,-2.9804,-2.9804,-2.9804,-2.9804,-2.9804,-2.9804,-2.9804,-2.9804,-2.9804,-2.9804,-2.9804,-2.9804,-2.9804,-2.9804,-2.9804,-2.9804,-2.9804,-2.9804,-2.9804,-2.9804,-2.9804,-2.9804,-2.9804,-2.9804,-2.9804,-2.9804,-2.9804,-2.9804,-2.9804,-2.9624,-2.8347,-2.7116,-2.5902,-3.5519,-3.5519,-3.5519,-3.5519,-3.5519,-3.5519,-3.5519,-3.5519,-3.5519,-3.5519,-3.5519,-3.5519,-3.5519,-3.5519,-3.534,-3.4951,-3.4382,-3.3873,-3.3514,-3.2946,-3.2557,-3.2527,-3.2587,-3.2557,-3.2378,-3.2437,-3.2168,-3.1511,-3.1869,-3.1869,-3.1511,-3.1511,-3.1511,-3.1511,-3.1511,-3.1511,-3.154,-3.1809,-3.1929,-3.1959,-3.2258,-3.2378,-3.2348,-3.2049,-3.1929,-3.1929,-3.1929,-3.1929,-3.2138,-3.3425,-3.3425,-3.3185,-3.4502,-3.4921,-3.5011,-3.54,-3.5519,-3.5519,-3.5519,-3.51,-3.4706,-3.4806,-3.4442,-3.4041,-3.4206,-3.4543,-3.4245,-3.2263,-3.2128,-3.2155,-3.1193,-3.0696,-3.0419,-3.0419,-3.0062,-2.9804,-2.9804,-2.9804,-2.9804,-2.9804,-2.9804,-2.9804,-2.9804,-2.9804,-2.9804,-2.9804,-2.9804,-2.9804,-2.9804,-2.9804,-2.9804,-2.9804,-2.9804,-2.9804,-2.9804,-2.9804,-2.9804,-2.9804,-2.9804,-2.9804,-2.9804,-2.9804,-2.9804,-2.9804,-2.9804,-2.9804,-2.9804,-2.9804,-2.9804,-2.9804,-2.9804,-2.9052,-2.7891,-2.7383,-2.6088,-2.451]}]]